[[{"header":{"parameterUnit":"m.s-1","parameterCategory":1,"la1":30.6,"la2":29.2853,"lo1":-89.7004,"lo2":-87.6739,"dy":0.0162,"dx":0.0183,"nx":112,"ny":82,"refTime":"2026-02-28T00:00:00:Z","depth":0,"parameterNumber":2,"parameterNumberName":"U-component_of_WINDS"},"data":[0.0,0.0,0.0,0.0,0.0,0.0,0.0,0.0,0.0,0.0,0.0,0.0,0.0,0.0,0.0,0.0,0.0,0.0,0.0,0.0,0.0,0.0,0.0,0.0,0.0,0.0,0.0,0.0,0.0,0.0,0.0,0.0,0.0,0.0,0.0,0.0,0.0,0.0,0.0,0.0,0.0,0.0,0.0,0.0,0.0,0.0,0.0,0.0,0.0,0.0,0.0,0.0,0.0,0.0,0.0,0.0,0.0,0.0,0.0,0.0,0.0,0.0,0.0,0.0,0.0,0.0,0.0,0.0,0.0,0.0,0.0,0.0,0.0,0.0,0.0,0.0,0.0,0.0,0.0,0.0,0.0,0.0,0.0,0.0,0.0,0.0,0.0,0.0,0.0,0.0,-1.4975,-1.5544,-1.6545,-1.7167,-1.7167,-1.6752,-1.5856,-1.433,0.0,0.0,0.0,0.0,0.0,0.0,0.0,0.0,0.0,0.0,0.0,0.0,0.0,0.0,0.0,0.0,0.0,0.0,0.0,0.0,0.0,0.0,0.0,0.0,0.0,0.0,0.0,0.0,0.0,0.0,0.0,0.0,0.0,0.0,0.0,0.0,0.0,0.0,0.0,0.0,0.0,0.0,0.0,0.0,0.0,0.0,0.0,0.0,0.0,0.0,0.0,0.0,0.0,0.0,0.0,0.0,0.0,0.0,0.0,0.0,0.0,0.0,0.0,0.0,0.0,0.0,0.0,0.0,0.0,0.0,0.0,0.0,0.0,0.0,0.0,0.0,0.0,0.0,0.0,0.0,0.0,0.0,0.0,0.0,0.0,0.0,0.0,0.0,0.0,0.0,0.0,0.0,0.0,0.0,0.0,0.0,0.0,0.0,0.0,0.0,0.0,0.0,0.0,0.0,-1.4572,-1.6757,-1.6775,-1.6616,-1.6616,-1.6552,-1.6007,-1.4846,0.0,0.0,0.0,0.0,0.0,0.0,0.0,0.0,0.0,0.0,0.0,0.0,0.0,0.0,0.0,0.0,0.0,0.0,0.0,0.0,0.0,0.0,0.0,0.0,0.0,0.0,0.0,0.0,0.0,0.0,0.0,0.0,0.0,0.0,0.0,0.0,0.0,0.0,0.0,0.0,0.0,0.0,0.0,0.0,0.0,0.0,0.0,0.0,0.0,0.0,0.0,0.0,0.0,0.0,0.0,0.0,0.0,0.0,0.0,0.0,0.0,0.0,0.0,0.0,0.0,0.0,0.0,0.0,0.0,0.0,0.0,0.0,0.0,0.0,0.0,0.0,0.0,0.0,0.0,0.0,0.0,0.0,0.0,0.0,0.0,0.0,0.0,0.0,0.0,0.0,0.0,0.0,0.0,0.0,0.0,0.0,0.0,0.0,0.0,0.0,0.0,0.0,0.0,-1.3711,-1.4605,-1.6635,-1.6659,-1.65,-1.65,-1.65,-1.6045,-1.4979,-1.3061,0.0,0.0,0.0,0.0,0.0,0.0,0.0,0.0,0.0,0.0,0.0,0.0,0.0,0.0,0.0,0.0,0.0,0.0,0.0,0.0,0.0,0.0,0.0,0.0,0.0,0.0,0.0,0.0,0.0,0.0,0.0,0.0,0.0,0.0,0.0,0.0,0.0,0.0,0.0,0.0,0.0,0.0,0.0,0.0,0.0,0.0,0.0,0.0,0.0,0.0,0.0,0.0,0.0,0.0,0.0,0.0,0.0,0.0,0.0,0.0,0.0,0.0,0.0,0.0,0.0,0.0,0.0,0.0,0.0,0.0,0.0,0.0,0.0,0.0,0.0,0.0,0.0,0.0,0.0,0.0,0.0,0.0,0.0,0.0,0.0,0.0,0.0,0.0,0.0,0.0,0.0,0.0,0.0,0.0,0.0,0.0,0.0,0.0,0.0,0.0,0.0,0.0,-1.4851,-1.5135,-1.6362,-1.65,-1.65,-1.65,-1.6283,-1.5768,-1.4947,-1.2571,0.0,0.0,0.0,0.0,0.0,0.0,0.0,0.0,0.0,0.0,0.0,0.0,0.0,0.0,0.0,0.0,0.0,0.0,0.0,0.0,0.0,0.0,0.0,0.0,0.0,0.0,0.0,0.0,0.0,0.0,0.0,0.0,0.0,0.0,0.0,0.0,0.0,0.0,0.0,0.0,0.0,0.0,0.0,0.0,0.0,0.0,0.0,0.0,0.0,0.0,0.0,0.0,0.0,0.0,0.0,0.0,0.0,0.0,0.0,0.0,0.0,0.0,0.0,0.0,0.0,0.0,0.0,0.0,0.0,0.0,0.0,0.0,0.0,0.0,0.0,0.0,0.0,0.0,0.0,0.0,0.0,0.0,0.0,0.0,0.0,0.0,0.0,0.0,0.0,0.0,0.0,0.0,0.0,0.0,0.0,0.0,0.0,0.0,0.0,0.0,0.0,0.0,-1.5103,-1.6362,-1.6488,-1.65,-1.65,-1.65,-1.558,-1.4972,-1.4896,-1.1842,0.0,0.0,0.0,0.0,0.0,0.0,0.0,0.0,0.0,0.0,0.0,0.0,0.0,0.0,0.0,0.0,0.0,0.0,0.0,0.0,0.0,0.0,0.0,0.0,0.0,0.0,0.0,0.0,0.0,0.0,0.0,0.0,0.0,0.0,0.0,0.0,0.0,0.0,0.0,0.0,0.0,0.0,0.0,0.0,0.0,0.0,0.0,0.0,0.0,0.0,0.0,0.0,0.0,0.0,0.0,0.0,0.0,0.0,0.0,0.0,0.0,0.0,0.0,0.0,0.0,0.0,0.0,0.0,0.0,0.0,0.0,0.0,0.0,0.0,0.0,0.0,0.0,0.0,0.0,0.0,0.0,0.0,0.0,0.0,0.0,0.0,0.0,0.0,0.0,0.0,0.0,0.0,0.0,0.0,0.0,0.0,0.0,0.0,0.0,0.0,0.0,0.0,-1.4551,-1.5756,-1.6425,-1.65,-1.65,-1.65,-1.6132,-1.5475,-1.4462,0.0,0.0,0.0,0.0,0.0,0.0,0.0,0.0,0.0,0.0,0.0,0.0,0.0,0.0,0.0,0.0,0.0,0.0,0.0,0.0,0.0,0.0,0.0,0.0,0.0,0.0,0.0,0.0,0.0,0.0,0.0,0.0,0.0,0.0,0.0,0.0,0.0,0.0,0.0,0.0,0.0,0.0,0.0,0.0,0.0,0.0,0.0,0.0,0.0,0.0,0.0,0.0,0.0,0.0,0.0,0.0,0.0,0.0,0.0,0.0,0.0,0.0,0.0,0.0,0.0,0.0,0.0,0.0,0.0,0.0,0.0,0.0,0.0,0.0,0.0,0.0,0.0,0.0,0.0,0.0,0.0,0.0,0.0,0.0,0.0,0.0,0.0,0.0,0.0,0.0,0.0,0.0,0.0,0.0,0.0,0.0,0.0,0.0,0.0,0.0,0.0,0.0,-1.296,-1.45,-1.568,-1.6412,-1.65,-1.65,-1.65,-1.6195,-1.5462,-1.4191,0.0,0.0,0.0,0.0,0.0,0.0,0.0,0.0,0.0,0.0,0.0,0.0,0.0,0.0,0.0,0.0,0.0,0.0,0.0,0.0,0.0,0.0,0.0,0.0,0.0,0.0,0.0,0.0,0.0,0.0,0.0,0.0,0.0,0.0,0.0,0.0,0.0,0.0,0.0,0.0,0.0,0.0,0.0,0.0,0.0,0.0,0.0,0.0,0.0,0.0,0.0,0.0,0.0,0.0,0.0,0.0,0.0,0.0,0.0,0.0,0.0,0.0,0.0,0.0,0.0,0.0,0.0,0.0,0.0,0.0,0.0,0.0,0.0,0.0,0.0,0.0,0.0,0.0,0.0,0.0,0.0,0.0,0.0,0.0,0.0,0.0,0.0,0.0,0.0,0.0,0.0,0.0,0.0,0.0,0.0,0.0,0.0,0.0,0.0,0.0,0.0,0.0,-1.306,-1.5133,-1.65,-1.65,-1.65,-1.65,-1.65,-1.5537,-1.4689,0.0,0.0,0.0,0.0,0.0,0.0,0.0,0.0,0.0,0.0,0.0,0.0,0.0,0.0,0.0,0.0,0.0,0.0,0.0,0.0,0.0,0.0,0.0,0.0,0.0,0.0,0.0,0.0,0.0,0.0,0.0,0.0,0.0,0.0,0.0,0.0,0.0,0.0,0.0,0.0,0.0,0.0,0.0,0.0,0.0,0.0,0.0,0.0,0.0,0.0,0.0,0.0,0.0,0.0,0.0,0.0,0.0,0.0,0.0,0.0,0.0,0.0,0.0,0.0,0.0,0.0,0.0,0.0,0.0,0.0,0.0,0.0,0.0,0.0,0.0,0.0,0.0,0.0,0.0,0.0,0.0,0.0,0.0,0.0,0.0,0.0,0.0,0.0,0.0,0.0,0.0,0.0,0.0,0.0,0.0,0.0,0.0,0.0,0.0,0.0,0.0,0.0,0.0,-1.306,-1.5133,-1.65,-1.65,-1.65,-1.65,-1.65,-1.6199,-1.5304,-1.3584,0.0,0.0,0.0,0.0,0.0,0.0,0.0,0.0,0.0,0.0,0.0,0.0,0.0,0.0,0.0,0.0,0.0,0.0,0.0,0.0,0.0,0.0,0.0,0.0,0.0,0.0,0.0,0.0,0.0,0.0,0.0,0.0,0.0,0.0,0.0,0.0,0.0,0.0,0.0,0.0,0.0,0.0,0.0,0.0,0.0,0.0,0.0,0.0,0.0,0.0,0.0,0.0,0.0,0.0,0.0,0.0,0.0,0.0,0.0,0.0,0.0,0.0,0.0,0.0,0.0,0.0,0.0,0.0,0.0,0.0,0.0,0.0,0.0,0.0,0.0,0.0,0.0,0.0,0.0,0.0,0.0,0.0,0.0,0.0,0.0,0.0,0.0,0.0,0.0,0.0,0.0,0.0,0.0,0.0,0.0,0.0,0.0,0.0,0.0,0.0,0.0,0.0,-1.3396,-1.5291,-1.6588,-1.6835,-1.6638,-1.6588,-1.6848,-1.6647,-1.5648,-1.3684,0.0,0.0,0.0,0.0,0.0,0.0,0.0,0.0,0.0,0.0,0.0,0.0,0.0,0.0,0.0,0.0,0.0,0.0,0.0,0.0,0.0,0.0,0.0,0.0,0.0,0.0,0.0,0.0,0.0,0.0,0.0,0.0,0.0,0.0,0.0,0.0,0.0,0.0,0.0,0.0,0.0,0.0,0.0,0.0,0.0,0.0,0.0,0.0,0.0,0.0,0.0,0.0,0.0,0.0,0.0,0.0,0.0,0.0,0.0,0.0,0.0,0.0,0.0,0.0,0.0,0.0,0.0,0.0,0.0,0.0,0.0,0.0,0.0,0.0,0.0,0.0,0.0,0.0,0.0,0.0,0.0,0.0,0.0,0.0,0.0,0.0,0.0,0.0,0.0,0.0,0.0,0.0,0.0,0.0,0.0,0.0,0.0,0.0,0.0,0.0,0.0,0.0,-1.3901,-1.5563,-1.6798,-1.7348,-1.6911,-1.681,-1.736,-1.6861,-1.5831,-1.4261,0.0,0.0,0.0,0.0,0.0,0.0,0.0,0.0,0.0,0.0,0.0,0.0,0.0,0.0,0.0,0.0,0.0,0.0,0.0,0.0,0.0,0.0,0.0,0.0,0.0,0.0,0.0,0.0,0.0,0.0,0.0,0.0,0.0,0.0,0.0,0.0,0.0,0.0,0.0,0.0,0.0,0.0,0.0,0.0,0.0,0.0,0.0,0.0,0.0,0.0,0.0,0.0,0.0,0.0,0.0,0.0,0.0,0.0,0.0,0.0,-1.6304,-1.5424,0.0,0.0,0.0,0.0,0.0,0.0,0.0,0.0,0.0,0.0,0.0,0.0,0.0,0.0,0.0,0.0,0.0,0.0,0.0,0.0,0.0,0.0,0.0,0.0,0.0,0.0,0.0,0.0,0.0,0.0,0.0,0.0,0.0,0.0,0.0,0.0,0.0,0.0,0.0,0.0,-1.3952,-1.5915,-1.7272,-1.7385,-1.7285,-1.7272,-1.7398,-1.6861,-1.5994,-1.4796,-1.3559,0.0,0.0,0.0,0.0,0.0,0.0,0.0,0.0,0.0,0.0,0.0,0.0,0.0,0.0,0.0,0.0,0.0,0.0,0.0,0.0,0.0,0.0,0.0,0.0,0.0,0.0,0.0,0.0,0.0,0.0,0.0,0.0,0.0,0.0,0.0,0.0,0.0,0.0,0.0,0.0,0.0,0.0,0.0,0.0,0.0,0.0,0.0,0.0,0.0,0.0,0.0,0.0,0.0,0.0,0.0,0.0,0.0,0.0,0.0,-1.8869,-1.7827,0.0,0.0,0.0,0.0,0.0,0.0,0.0,0.0,0.0,0.0,0.0,0.0,0.0,0.0,0.0,0.0,0.0,0.0,0.0,0.0,0.0,0.0,0.0,0.0,0.0,0.0,0.0,0.0,0.0,0.0,0.0,0.0,0.0,0.0,0.0,0.0,0.0,0.0,0.0,0.0,-1.4664,-1.6355,-1.7612,-1.8116,-1.794,-1.7777,-1.7777,-1.7262,-1.6459,-1.5361,-1.4255,0.0,0.0,0.0,0.0,0.0,0.0,0.0,0.0,0.0,0.0,0.0,0.0,0.0,0.0,0.0,0.0,0.0,0.0,0.0,0.0,0.0,0.0,0.0,0.0,0.0,0.0,0.0,0.0,0.0,0.0,0.0,0.0,0.0,0.0,0.0,0.0,0.0,0.0,0.0,0.0,0.0,0.0,0.0,0.0,0.0,0.0,0.0,0.0,0.0,0.0,0.0,0.0,0.0,-2.2723,-2.3276,-2.3684,-2.3684,-2.4029,-2.4443,-2.2108,-2.1104,-2.1006,-1.9522,0.0,0.0,0.0,0.0,0.0,0.0,0.0,0.0,0.0,0.0,0.0,0.0,0.0,0.0,0.0,0.0,0.0,0.0,0.0,0.0,0.0,0.0,-1.6522,-1.6964,-1.7451,-1.7174,-1.4858,0.0,0.0,0.0,0.0,0.0,0.0,0.0,0.0,0.0,0.0,0.0,-1.558,-1.6911,-1.8016,-1.8907,-1.8594,-1.8342,-1.8342,-1.7752,-1.7008,-1.6045,-1.4991,-1.3921,0.0,0.0,0.0,0.0,0.0,0.0,0.0,0.0,0.0,0.0,0.0,0.0,0.0,0.0,0.0,0.0,0.0,0.0,0.0,0.0,0.0,0.0,0.0,0.0,0.0,0.0,0.0,0.0,0.0,0.0,0.0,0.0,-1.6996,-1.7058,0.0,0.0,0.0,0.0,0.0,0.0,0.0,0.0,0.0,0.0,0.0,0.0,0.0,-2.1628,-2.187,-2.3371,-2.4211,-2.4362,-2.5456,-2.5984,-2.6059,-2.6059,-2.6361,-2.6829,-2.6452,0.0,-2.2732,-2.2029,0.0,0.0,0.0,0.0,0.0,0.0,0.0,0.0,0.0,0.0,0.0,0.0,0.0,0.0,0.0,0.0,0.0,0.0,0.0,0.0,0.0,0.0,-1.9284,-1.9346,-1.9422,-1.9384,-1.902,-1.6735,-1.4576,-1.3795,-1.2923,-1.1886,0.0,0.0,0.0,0.0,0.0,0.0,-1.6245,-1.7792,-1.8845,-1.8983,-1.8945,-1.8895,-1.8895,-1.7978,-1.7335,-1.7197,-1.6095,-1.5211,-1.4595,-1.3478,0.0,0.0,0.0,0.0,0.0,0.0,0.0,0.0,0.0,0.0,0.0,0.0,0.0,0.0,0.0,0.0,0.0,0.0,0.0,0.0,0.0,0.0,0.0,0.0,0.0,0.0,0.0,0.0,0.0,-1.6898,-1.8191,-1.789,-1.8593,-1.8555,0.0,0.0,0.0,0.0,0.0,0.0,0.0,0.0,0.0,-2.2556,-2.3308,-2.4167,-2.5096,-2.5837,-2.6515,-2.7095,-2.762,-2.8021,-2.8335,-2.8335,-2.8461,-2.8699,-2.8699,-2.7821,-2.6217,-2.4424,-2.2975,-2.1694,0.0,0.0,0.0,0.0,-1.9962,-1.9861,-2.1041,-2.1091,-2.0552,-2.0175,0.0,0.0,0.0,0.0,0.0,0.0,0.0,-1.818,-1.9384,-2.0225,-2.0903,-2.1503,-2.1403,-2.1217,-2.1217,-1.961,-1.7712,-1.6229,-1.555,-1.4551,-1.2459,0.0,0.0,0.0,0.0,-1.5864,-1.7275,-1.8356,-1.9121,-1.9409,-1.9434,-1.9321,-1.9033,-1.8556,-1.8041,-1.7448,-1.6933,-1.6267,-1.5399,-1.4576,-1.337,0.0,0.0,0.0,0.0,0.0,0.0,0.0,0.0,0.0,0.0,0.0,0.0,0.0,0.0,0.0,0.0,0.0,0.0,0.0,0.0,0.0,0.0,0.0,0.0,0.0,0.0,0.0,0.0,-1.8254,-1.9447,-1.8894,-2.0037,-2.0175,0.0,0.0,0.0,0.0,0.0,0.0,-2.2284,-2.3,-2.4017,-2.541,-2.5724,-2.6465,-2.7695,-2.7846,-2.8335,-2.9113,-2.9113,-2.9377,-2.9792,-2.9792,-2.9792,-2.9792,-2.9792,-2.9553,-2.8925,-2.6593,-2.5259,-2.4494,-2.3088,-2.246,-2.241,-2.2949,-2.2887,-2.2736,-2.4142,-2.4243,-2.3622,-2.2987,-2.2502,-2.1794,-2.0012,0.0,0.0,0.0,0.0,-2.0186,-2.1732,-2.2133,-2.2372,-2.3308,-2.3221,-2.292,-2.292,-2.2083,-2.0717,-1.8642,-1.8127,-1.725,-1.4895,0.0,0.0,0.0,0.0,-1.6835,-1.8242,-1.887,-1.9346,-1.9761,-1.9798,-1.9648,-1.9233,-1.9083,-1.8657,-1.7852,-1.7561,-1.7021,-1.6158,-1.5613,-1.4576,-1.3069,0.0,0.0,0.0,0.0,0.0,0.0,0.0,0.0,0.0,0.0,0.0,0.0,0.0,0.0,0.0,0.0,0.0,0.0,0.0,0.0,0.0,0.0,0.0,0.0,0.0,0.0,0.0,0.0,0.0,-2.0629,-2.2489,0.0,0.0,0.0,0.0,-2.2071,-2.2606,-2.3434,-2.4562,-2.5707,-2.6562,-2.7178,-2.8172,-2.8725,-2.8813,-2.939,-2.9691,-2.9741,-2.9741,-2.9767,-2.9792,-2.9792,-2.9792,-2.9792,-2.9792,-2.9779,-2.9654,-2.8448,-2.7306,-2.6311,-2.5636,-2.5084,-2.4687,-2.5234,-2.541,-2.5485,-2.6147,-2.5996,-2.5548,-2.6084,-2.5179,-2.3753,-2.3058,-2.2146,0.0,0.0,-2.2146,-2.241,-2.3565,-2.3866,-2.4017,-2.4562,-2.4675,-2.4662,-2.4662,-2.3785,-2.2481,0.0,-2.0088,-1.9309,-1.8154,0.0,-1.7815,-1.731,-1.7702,-1.8304,-1.8882,-1.9447,-1.9773,-1.9798,-1.9798,-1.9798,-1.9761,-1.9284,-1.8983,-1.892,-1.7953,-1.7373,-1.7322,-1.6748,-1.5906,-1.4796,-1.3654,0.0,0.0,0.0,0.0,0.0,0.0,0.0,0.0,0.0,0.0,0.0,0.0,0.0,0.0,0.0,0.0,0.0,0.0,0.0,0.0,0.0,0.0,0.0,0.0,0.0,0.0,0.0,0.0,-2.2786,-2.4475,0.0,-2.2987,-2.3314,-2.3715,-2.3873,-2.477,-2.5762,-2.6879,-2.7645,-2.8473,-2.9402,-2.9804,-3.0168,-3.0507,-3.0721,-3.0821,-3.0821,-3.0821,-3.0821,-3.0821,-3.0821,-3.0821,-3.0796,-3.047,-3.0319,-3.0269,-2.9503,-2.8737,-2.7996,-2.7431,-2.7092,-2.6967,-2.7143,-2.7205,-2.7243,-2.7444,-2.7381,-2.7193,-2.7077,-2.6386,-2.5581,-2.5335,-2.5028,-2.4764,-2.4965,-2.4707,-2.4607,-2.5418,-2.531,-2.5172,-2.577,-2.5586,-2.5322,-2.5322,-2.4713,-2.401,-2.3452,-2.2008,-2.0539,-1.9422,-1.9535,-1.9623,-1.902,-1.9447,-1.9987,-2.0539,-2.0778,-2.0891,-2.0891,-2.0603,-2.0377,-2.0377,-1.9849,-1.9233,-1.8519,-1.8129,-1.7589,-1.6861,-1.66,-1.617,-1.5437,-1.4683,-1.3295,0.0,0.0,0.0,0.0,0.0,0.0,0.0,0.0,0.0,0.0,0.0,0.0,0.0,0.0,0.0,0.0,0.0,0.0,0.0,0.0,0.0,0.0,0.0,0.0,0.0,-2.2431,-2.4104,-2.4494,-2.6176,-2.664,-2.4983,-2.5498,-2.5979,-2.6167,-2.7055,-2.7984,-2.89,-2.9465,-3.0105,-3.0859,-3.0871,-3.1047,-3.1386,-3.1386,-3.1386,-3.1386,-3.1386,-3.1386,-3.1386,-3.1386,-3.1386,-3.1373,-3.1022,-3.0871,-3.0834,-3.0294,-2.9842,-2.9402,-2.8888,-2.8674,-2.8674,-2.8674,-2.8674,-2.8674,-2.8674,-2.8549,-2.8323,-2.7959,-2.7469,-2.7052,-2.7052,-2.7052,-2.7052,-2.7052,-2.6741,-2.6527,-2.6952,-2.6728,-2.649,-2.6725,-2.644,-2.6113,-2.5925,-2.546,-2.5084,-2.5084,-2.359,-2.2033,-2.1091,-2.1091,-2.1029,-2.0464,-2.0717,-2.1106,-2.1443,-2.1493,-2.1493,-2.1493,-2.1182,-2.0893,-2.0717,-2.0339,-1.971,-1.8807,-1.8405,-1.7865,-1.7089,-1.6701,-1.6325,-1.5982,-1.5273,-1.3991,-1.214,0.0,0.0,0.0,0.0,0.0,0.0,0.0,0.0,0.0,0.0,0.0,0.0,0.0,0.0,0.0,0.0,0.0,0.0,0.0,0.0,0.0,0.0,0.0,-2.3083,-2.4619,-2.5686,-2.5724,-2.767,-2.8386,-2.6801,-2.7582,-2.8436,-2.8925,-2.9528,-3.008,-3.0608,-3.1122,-3.1399,-3.1411,-3.1411,-3.1424,-3.1436,-3.1436,-3.1436,-3.1436,-3.1436,-3.1436,-3.1436,-3.1436,-3.1436,-3.1436,-3.1424,-3.1411,-3.1373,-3.0859,-3.0633,-3.0583,-3.0018,-2.9792,-2.9792,-2.9792,-2.9792,-2.9792,-2.9792,-2.9428,-2.8913,-2.8913,-2.8599,-2.816,-2.816,-2.816,-2.816,-2.816,-2.8147,-2.8134,-2.8134,-2.8122,-2.7971,-2.7444,-2.7306,-2.719,-2.6637,-2.6084,-2.5649,-2.5624,-2.477,-2.3866,-2.3258,-2.2706,-2.2184,-2.1644,-2.1556,0.0,-2.1543,-2.1543,-2.1543,-2.1543,-2.1518,-2.1292,-2.0792,-2.0717,-2.044,-1.9811,-1.8781,-1.8191,-1.8154,-1.7077,-1.65,-1.65,-1.5449,-1.4356,-1.3223,0.0,0.0,0.0,0.0,0.0,0.0,0.0,0.0,0.0,0.0,0.0,0.0,0.0,0.0,0.0,0.0,0.0,0.0,0.0,0.0,0.0,-2.2836,-2.4148,-2.4299,-2.6126,-2.772,-2.8549,-2.9867,-3.0532,-3.0119,-3.0306,-3.0545,-3.0696,-3.0859,-3.1022,-3.1173,-3.1311,-3.1574,-3.1976,-3.1989,-3.219,-3.2616,-3.2616,-3.2616,-3.2616,-3.2616,-3.2616,-3.2616,-3.2616,-3.2616,-3.2634,-3.2164,-3.1989,-3.1938,-3.1399,-3.1173,-3.1085,-3.0156,-2.9792,-2.9792,-2.9792,-2.9792,-2.9792,-2.9792,-2.9691,-2.9553,-2.9553,-2.9453,-2.9327,-2.9327,-2.9327,-2.9327,-2.9327,-2.9026,-2.8662,-2.8662,-2.8398,-2.8059,-2.7921,-2.7883,-2.772,-2.7216,-2.6964,-2.6703,-2.6336,-2.5649,-2.4983,-2.4424,-2.3904,-2.3489,-2.3326,-2.2949,0.0,-2.2656,-2.2656,-2.2656,-2.2656,-2.2293,-2.202,-2.187,-2.1157,-2.0289,-1.9271,-1.8593,-1.784,-1.6989,-1.6663,-1.65,-1.65,-1.5449,-1.4544,0.0,0.0,0.0,0.0,0.0,0.0,0.0,0.0,0.0,0.0,0.0,0.0,0.0,0.0,0.0,0.0,0.0,0.0,0.0,0.0,0.0,0.0,-2.5297,-2.6593,-2.6866,-2.8009,-2.9214,-3.0331,-3.1009,-3.1386,-3.1386,-3.1386,-3.1386,-3.1386,-3.1599,-3.1738,-3.1738,-3.1964,-3.2252,-3.2566,-3.2579,-3.2742,-3.3124,-3.3124,-3.3124,-3.3124,-3.3124,-3.3124,-3.3124,-3.3124,-3.3124,-3.3056,-3.2717,-3.2579,-3.2528,-3.1964,-3.1738,-3.1625,0.0,0.0,0.0,0.0,-2.9792,-2.9792,-2.9792,-2.9792,-2.9792,-2.9792,-2.9792,-2.9792,-2.9792,-2.9792,-2.9792,-2.9792,-2.9553,-2.9289,-2.9289,-2.9051,-2.875,-2.8511,-2.8448,-2.8298,-2.7745,-2.7632,-2.7469,-2.6952,-2.6562,0.0,-2.5598,-2.4858,-2.4343,-2.4343,-2.4023,-2.3735,-2.3496,-2.3471,-2.3371,-2.3133,-2.2819,-2.2531,-2.2334,-2.1506,0.0,0.0,0.0,-1.8053,-1.6923,-1.6886,0.0,0.0,0.0,0.0,0.0,0.0,0.0,0.0,-1.3928,-1.3576,0.0,0.0,0.0,0.0,0.0,0.0,0.0,0.0,0.0,0.0,0.0,0.0,0.0,0.0,0.0,0.0,-2.7645,-2.9226,-2.9967,-3.0068,-3.0419,-3.1373,-3.1537,-3.1587,-3.1587,-3.1587,-3.1587,-3.1587,-3.2039,-3.2303,-3.2303,-3.2805,0.0,0.0,0.0,-3.3206,-3.3257,-3.3269,-3.3269,-3.3269,-3.3269,-3.3232,-3.3212,-3.3212,-3.3174,-3.3124,-3.3124,-3.3124,-3.3074,-3.2516,-3.2277,-3.2114,-3.1097,-3.0708,-3.0633,-3.0093,-2.988,-2.988,-2.9817,0.0,0.0,-2.9792,-2.9792,-2.9792,-2.9792,-2.9792,-2.9792,-2.9792,-2.9792,-2.9792,-2.9792,-2.9792,-2.9666,-2.9151,-2.8988,-2.8838,-2.8323,-2.8197,-2.8034,-2.7482,-2.7318,-2.7165,-2.6675,-2.5636,-2.4876,-2.4876,-2.4825,-2.4612,-2.4155,-2.4092,-2.3866,-2.3258,0.0,0.0,-2.2447,-2.1895,-2.1343,-2.0817,-1.9723,-1.8632,-1.7614,-1.7564,-1.7564,-1.7564,-1.7564,-1.784,-1.838,-1.838,-1.838,-1.8317,-1.5209,-1.4557,0.0,0.0,0.0,0.0,0.0,0.0,0.0,0.0,0.0,0.0,0.0,0.0,0.0,0.0,0.0,-2.7331,-2.875,-3.0118,-3.1549,-3.175,-3.1825,-3.2026,-3.2466,-3.2797,-3.2797,-3.2797,-3.2797,-3.2797,-3.2855,-3.2918,-3.2918,-3.3061,-3.3282,-3.3721,-3.3746,-3.396,-3.4399,-3.4399,-3.4399,-3.4399,-3.4399,0.0,-3.3746,-3.3746,-3.3495,-3.3124,-3.3124,-3.3124,-3.3111,-3.2955,-3.2641,-3.2152,-3.1499,-3.1248,-3.1173,-3.0645,-3.0457,-3.0394,-2.9942,-2.9792,-2.9792,-2.9792,-2.9792,-2.9792,-2.9792,-2.9792,0.0,-2.9792,-2.9792,-2.9792,-2.9792,-2.9792,-2.9767,-2.9654,-2.9628,-2.9465,-2.885,-2.8737,-2.8612,-2.8059,-2.7595,-2.7291,-2.7178,-2.6189,-2.5448,-2.5448,-2.5096,-2.475,-2.4669,-2.4637,-2.4412,-2.3891,-2.3841,-2.3602,-2.2995,-2.2443,-2.192,-2.1395,-2.0275,-1.9371,-1.8707,-1.8682,-1.8682,-1.8682,-1.8682,-1.8945,-1.9497,-1.9497,-1.9497,-1.9459,-1.794,-1.7413,0.0,0.0,0.0,0.0,0.0,0.0,0.0,0.0,0.0,0.0,0.0,-2.3577,-2.4958,0.0,-2.7494,-2.944,-3.0457,-3.1286,-3.2102,-3.2466,-3.2641,-3.2641,-3.2905,-3.3124,-3.3124,-3.3124,-3.3124,-3.3124,-3.3332,-3.3483,-3.3483,-3.3746,-3.4022,-3.4299,-3.4311,-3.4449,-3.468,-3.468,-3.468,-3.468,-3.468,-3.4575,-3.4311,-3.4311,-3.401,-3.3483,-3.3483,-3.3332,-3.3124,-3.3124,-3.2905,-3.2616,-3.234,-3.1888,-3.1361,-3.1097,-3.0997,-3.0959,-3.0683,-3.0419,-3.0206,-3.0206,-3.0018,-2.9792,-2.9792,-2.9792,-2.9792,-2.9792,-2.9792,-2.9792,-2.9792,-2.9792,-2.9792,-2.9792,-2.9792,-2.9716,-2.9428,-2.9365,-2.9189,-2.8624,-2.8298,-2.8021,-2.7745,-2.7005,-2.6352,-2.6097,-2.5799,-2.5536,-2.5247,-2.5209,-2.5008,-2.4469,-2.4406,-2.4293,-2.3973,-2.3183,-2.2372,-2.1543,-2.0953,-2.0413,-1.9874,-1.9849,-1.9849,-1.9849,-1.9849,-2.0112,-2.0639,-2.0639,-2.0639,-2.0639,-2.01,-1.9698,0.0,0.0,0.0,0.0,0.0,0.0,0.0,-2.1139,-2.1962,-2.3292,-2.4418,-2.5699,-2.7582,-2.8373,-2.9365,-3.1248,-3.2014,-3.2378,-3.2378,-3.2867,-3.3206,-3.3093,-3.3124,-3.3124,-3.3124,-3.3124,-3.3162,-3.3275,-3.3646,-3.3947,-3.406,-3.4487,-3.4731,-3.4831,-3.4876,-3.4926,-3.5039,-3.5039,-3.5039,-3.5039,-3.5039,-3.4989,-3.4876,-3.4876,-3.4575,-3.406,-3.3947,-3.3646,-3.3275,-3.3162,-3.3124,-3.3124,-3.3124,-3.2516,-3.17,-3.1587,-3.1549,-3.1537,-3.1436,-3.1122,-3.0771,-3.0771,-3.0394,-2.9955,-2.9955,-2.988,-2.9792,-2.9792,-2.9792,-2.9792,-2.9792,-2.9792,-2.9792,-2.9792,-2.9792,-2.9792,-2.9792,-2.9792,-2.9654,-2.9189,-2.8963,-2.875,-2.8348,-2.7808,-2.7256,-2.6738,-2.6562,-2.6323,-2.5858,-2.5762,-2.5561,-2.4988,-2.4971,-2.4901,-2.48,-2.396,-2.3058,-2.2196,-2.2133,-2.1895,-2.1358,-2.1345,-2.1345,-2.1345,-2.1232,-2.1509,-2.2133,-2.2033,-2.2033,-2.2133,-2.2133,-2.1669,-2.2328,-2.1634,-2.1356,-2.1572,-2.1773,-2.282,0.0,-2.6011,-2.5645,-2.7734,-2.8699,-2.9365,-3.0105,-3.067,-3.126,-3.2001,-3.2604,-3.298,-3.298,-3.3458,-3.3621,-3.3174,-3.3124,-3.3124,-3.3124,-3.3124,-3.3282,-3.3771,-3.3872,-3.411,-3.4613,-3.4688,-3.4906,-3.5395,-3.5408,-3.5692,-3.6216,-3.6229,-3.6229,-3.6229,-3.6229,-3.5931,-3.5408,-3.5408,-3.5107,-3.46,-3.411,-3.3872,-3.3771,-3.3282,-3.3124,-3.3124,-3.3124,-3.3006,-3.2817,-3.2315,-3.2127,-3.2051,-3.1562,-3.1348,-3.1298,-3.1298,-3.0947,-3.052,-3.052,-3.0181,-2.9792,-2.9792,-2.9792,-2.9792,-2.9792,-2.9792,-2.9792,-2.9792,-2.9792,-2.9792,-2.9792,-2.9792,-2.9779,-2.9704,-2.9289,-2.8875,-2.8813,-2.8386,-2.7821,-2.7268,-2.6813,-2.6474,-2.6411,-2.6399,-2.6172,-2.5573,-2.5511,-2.5322,-2.4825,-2.4675,-2.455,-2.4424,-2.4412,-2.4205,-2.3653,-2.3627,-2.3627,-2.3627,-2.3095,-2.3358,-2.4412,-2.3954,-2.3966,-2.4412,-2.4412,-2.3351,-2.4961,-2.4588,-2.4299,-2.3827,-2.4701,-2.6025,-2.7331,-2.7846,-2.8398,-2.9654,-3.0344,-3.0896,-3.1436,-3.1725,-3.2051,-3.2616,-3.3181,-3.3445,-3.3162,-3.3558,-3.3571,-3.2679,-3.2867,-3.3124,-3.3124,-3.3124,-3.3307,-3.3859,-3.4198,-3.4613,-3.5132,-3.5504,-3.578,-3.6006,-3.6019,-3.6119,-3.6405,-3.6405,-3.6405,-3.6405,-3.6405,-3.6292,-3.6019,-3.6019,-3.5717,-3.5119,-3.4613,-3.4374,-3.4361,-3.4123,-3.3847,-3.3558,-3.3558,-3.3357,-3.3056,-3.2805,-3.2717,-3.2679,-3.2453,-3.2152,-3.1863,-3.1863,-3.1499,-3.1072,-3.1072,-3.0909,-3.0658,-3.0357,-3.0269,-3.0193,-2.988,-2.9792,-2.9792,-2.9792,-2.9792,-2.9792,-2.9792,-2.9792,-2.9792,-2.9792,-2.9591,-2.9428,-2.9428,-2.8963,-2.8511,-2.8273,-2.777,-2.7341,-2.7014,-2.6977,-2.6763,-2.6185,-2.6135,-2.5908,-2.5322,-2.5272,-2.5146,-2.4813,-2.4788,-2.4687,-2.4481,-2.4481,-2.4481,-2.4481,-2.4211,-2.4311,-2.4788,-2.4562,-2.4562,-2.4788,-2.4788,-2.4286,-2.6235,-2.6373,-2.6575,-2.5887,-2.7281,-2.8725,-2.8473,-2.9365,-3.0382,-3.0947,-3.1348,-3.1788,-3.2353,-3.2453,-3.2591,-3.3048,-3.3671,-3.3884,-3.3224,-3.3558,-3.3483,-3.2353,-3.2453,-3.2667,-3.283,-3.298,-3.337,-3.4073,-3.45,-3.4981,-3.573,-3.6144,-3.6405,-3.6405,-3.6405,-3.6405,-3.6405,-3.6405,-3.6405,-3.6405,-3.6405,-3.6405,-3.6405,-3.6405,-3.6144,-3.5742,-3.5144,-3.4906,-3.4893,-3.4743,-3.4487,-3.4123,-3.4123,-3.3884,-3.3508,-3.3357,-3.3206,-3.3124,-3.3124,-3.2805,-3.2453,-3.2453,-3.2064,-3.1625,-3.1625,-3.1512,-3.1311,-3.0934,-3.0834,-3.0733,-3.0331,-3.0131,-3.0018,-3.0018,-2.9905,-2.9792,-2.9792,-2.9792,-2.9792,-2.9792,-2.9792,-2.9792,-2.9792,-2.9453,-2.9126,-2.9126,-2.8825,-2.831,-2.7607,-2.7507,-2.7356,-2.6989,-2.6813,-2.6549,-2.6101,-2.5925,-2.5674,-2.5297,-2.5272,-2.5272,-2.5272,-2.5272,-2.5272,-2.5272,-2.5121,-2.5109,-2.5272,-2.5109,-2.5121,-2.5272,-2.5272,-2.5272,-2.5172,-2.6038,-2.7381,-2.7883,-2.9289,-3.067,-3.1148,-3.1298,-3.1499,-3.2051,-3.2177,-3.2365,-3.2943,-3.3056,-3.3056,-3.3124,-3.3985,-3.4324,-3.3232,-3.3558,-3.3483,-3.2353,-3.175,-3.165,-3.219,-3.2754,-3.3533,-3.4613,-3.4668,-3.519,-3.6329,-3.6405,-3.6405,-3.6405,-3.6405,-3.6405,-3.6405,-3.6405,-3.6405,-3.6405,-3.6405,-3.6405,-3.6405,-3.6405,-3.6405,-3.6355,-3.5755,-3.547,-3.5433,-3.4893,-3.4668,-3.47,-3.47,-3.4688,-3.4613,-3.4073,-3.3533,-3.3124,-3.3124,-3.3111,-3.3056,-3.3056,-3.2667,-3.219,-3.219,-3.1813,-3.1386,-3.1373,-3.1361,-3.1361,-3.1348,-3.0972,-3.0595,-3.0595,-3.0181,-2.9792,-2.9792,-2.9792,-2.9792,-2.9792,-2.9792,-2.9792,-2.9792,-2.9779,-2.9767,-2.9767,-2.9754,-2.934,-2.8222,-2.8084,-2.8072,-2.8059,-2.7582,-2.7291,-2.7231,-2.6776,-2.6461,-2.6449,-2.6449,-2.6449,-2.6449,-2.6449,-2.6449,-2.6449,-2.585,-2.585,-2.6449,-2.585,-2.5862,-2.6449,-2.6449,-2.6449,-2.6904,-2.767,-2.8599,-2.9541,-3.0733,-3.1725,-3.1901,-3.224,-3.2453,-3.2252,-3.2215,-3.2152,-3.1989,-3.1951,-3.2077,-3.2441,-3.3445,-3.3922,-3.3181,-3.3872,-3.3759,-3.1888,-3.1825,-3.1863,-3.1687,-3.2164,-3.2968,-3.4098,-3.4512,-3.5039,-3.578,-3.6157,-3.6405,-3.6405,-3.6405,-3.6405,-3.6405,-3.6405,-3.6405,-3.6405,-3.6405,-3.6405,-3.6405,-3.6405,-3.6405,-3.6405,-3.6169,-3.6094,-3.6069,-3.5881,-3.5592,-3.5219,-3.5219,-3.4994,-3.47,-3.4512,-3.4324,-3.406,-3.3332,-3.3124,-3.3124,-3.3124,-3.2943,-3.278,-3.278,-3.2654,-3.2428,-3.2039,-3.1938,-3.1851,-3.1486,-3.126,-3.1047,-3.0696,-3.047,-3.0231,-2.988,-2.9792,-2.9792,-2.9792,-2.9792,-2.9792,-2.9792,-2.9792,-2.9792,-2.9792,-2.9465,-2.9076,-2.8662,-2.8335,-2.8109,-2.8109,-2.7946,-2.7821,-2.7821,-2.7657,-2.7557,-2.7557,-2.7557,-2.7557,-2.7557,-2.7557,-2.7557,-2.7557,-2.7005,-2.6816,-2.704,-2.6474,-2.6487,-2.704,-2.704,-2.704,-2.8097,-2.8913,-2.9765,-3.0909,-3.1851,-3.2516,-3.2516,-3.2654,-3.2667,-3.229,-3.1913,-3.1537,-3.1185,-3.0947,-3.106,-3.18,-3.2867,-3.3483,-3.3174,-3.3859,-3.3746,-3.1901,-3.1825,-3.1851,-3.17,-3.2001,-3.2679,-3.3809,-3.4412,-3.4919,-3.547,-3.6056,-3.6405,-3.6405,-3.6405,-3.6405,-3.6405,-3.6405,-3.6405,-3.6405,-3.6405,-3.6405,-3.6405,-3.6405,-3.6405,-3.6405,-3.6405,-3.6405,-3.6405,-3.6405,-3.6157,-3.583,-3.583,-3.5617,-3.5278,-3.509,-3.4969,-3.4818,-3.3759,-3.337,-3.3332,-3.3144,-3.3124,-3.3124,-3.3124,-3.3124,-3.3006,-3.2629,-3.2516,-3.2441,-3.2089,-3.1838,-3.1599,-3.126,-3.1035,-3.0746,-3.0206,-3.0093,-3.003,-2.9829,-2.9792,-2.9792,-2.9792,-2.9792,-2.9792,-2.9792,-2.9478,-2.9239,-2.9239,-2.8925,-2.8712,-2.8712,-2.8524,-2.8398,-2.8398,-2.8222,-2.8109,-2.8109,-2.8109,-2.8109,-2.8109,-2.8109,-2.8109,-2.8109,-2.7758,-2.7582,-2.7582,-2.7253,-2.7231,-2.7582,-2.7582,-2.7582,-2.875,-2.9866,-3.0997,-3.2039,-3.2717,-3.3149,-3.3086,-3.2604,-3.2177,-3.2064,-3.1235,-3.0495,-3.0382,-3.0005,-3.0043,-3.1097,-3.2252,-3.3056,-3.3106,-3.3571,-3.3508,-3.2428,-3.1813,-3.17,-3.224,-3.2303,-3.2754,-3.3859,-3.4424,-3.4919,-3.547,-3.6056,-3.6405,-3.6405,-3.6405,-3.6405,-3.6405,-3.6405,-3.6405,-3.6405,-3.6405,-3.6405,-3.6405,-3.6405,-3.6405,-3.6405,-3.6405,-3.6405,-3.6405,-3.6405,-3.6405,-3.6405,-3.6405,-3.6405,-3.6342,-3.578,-3.5545,-3.5395,-3.4361,-3.396,-3.3847,-3.3307,-3.3162,-3.3162,-3.3124,-3.3124,-3.3124,-3.3124,-3.3124,-3.3124,-3.3124,-3.2667,-3.2252,-3.2227,-3.1813,-3.1286,-3.0771,-3.0658,-3.0495,-2.9942,-2.9817,-2.9792,-2.9792,-2.9792,-2.9792,-2.9792,-2.9792,-2.9792,-2.9792,-2.9792,-2.9792,-2.9792,-2.9302,-2.8938,-2.8938,-2.8499,-2.8197,-2.8197,-2.8197,-2.8197,-2.8197,-2.8197,-2.8197,-2.8197,-2.816,-2.8147,-2.8147,-2.8122,-2.8122,-2.8147,-2.8147,-2.8147,-3.0859,-3.1901,-3.2616,-3.3294,-3.3583,-3.347,-3.2616,-3.2315,-3.175,-3.0066,-2.9515,-2.8813,-2.718,-2.7783,-2.8762,-2.9453,-3.1173,-3.2729,-3.3571,-3.3809,-3.3796,-3.3508,-3.298,-3.2867,-3.342,-3.347,-3.3759,-3.4462,-3.4638,-3.4919,-3.547,-3.6056,-3.6405,-3.6405,-3.6405,-3.6405,-3.6405,-3.6405,-3.6405,-3.6405,-3.6405,-3.6405,-3.6405,-3.6405,-3.6405,-3.6405,-3.6405,-3.6405,-3.6405,-3.6405,-3.6405,-3.6405,-3.6405,-3.6405,-3.6392,-3.6207,-3.6157,-3.6056,-3.5366,-3.4806,-3.4424,-3.3872,-3.3696,-3.3608,-3.3206,-3.3124,-3.3124,-3.3124,-3.3124,-3.3124,-3.3124,-3.3011,-3.2754,-3.2315,-3.2102,-3.1851,-3.1311,-3.1198,-3.1035,-3.0507,-3.0068,-2.9792,-2.9792,-2.9792,-2.9792,-2.9792,-2.9792,-2.9792,-2.9792,-2.9792,-2.9792,-2.9792,-2.9666,-2.9578,-2.9578,-2.9453,-2.9365,-2.9365,-2.9365,-2.9365,-2.9365,-2.9365,-2.9365,-2.9365,-2.8938,-2.8687,-2.8712,-2.8298,-2.8323,-2.8687,-2.8687,-2.8687,-3.219,-3.3181,-3.3822,-3.3884,-3.3721,-3.3181,-3.1825,-3.1122,-3.0218,-2.8247,-2.7469,-2.6631,-2.5172,-2.605,-2.7344,-2.8361,-3.0419,-3.2328,-3.3709,-3.411,-3.4261,-3.4261,-3.3985,-3.3922,-3.4223,-3.4261,-3.4487,-3.4994,-3.5044,-3.5169,-3.5483,-3.6056,-3.6405,-3.6405,-3.6405,-3.6405,-3.6405,-3.6405,-3.6405,-3.6405,-3.6405,-3.6405,-3.6405,-3.6405,-3.6405,-3.6405,-3.6405,-3.6405,-3.6405,-3.6405,-3.6405,-3.6405,-3.6405,-3.6405,-3.6405,-3.6405,-3.6405,-3.6367,-3.6006,-3.5705,-3.5316,-3.4512,-3.4261,-3.4198,-3.3884,-3.3633,-3.3432,-3.3432,-3.3269,-3.3124,-3.3124,-3.3124,-3.2993,-3.2667,-3.2591,-3.2441,-3.1863,-3.175,-3.1587,-3.106,-3.0708,-3.0419,-3.0193,-3.0156,-3.0068,-2.9829,-2.9792,-2.9792,-2.9792,-2.9792,-2.9792,-2.9792,-2.9792,-2.9792,-2.9792,-2.9792,-2.9792,-2.9792,-2.9792,-2.9792,-2.9792,-2.9792,-2.9792,-2.9792,-2.9478,-2.9302,-2.9302,-2.9001,-2.9001,-2.9302,-2.9302,-2.9302,-3.3119,-3.4048,-3.47,-3.4148,-3.3596,-3.2717,-3.0922,-2.959,-2.831,-2.6537,-2.5322,-2.4374,-2.3778,-2.4669,-2.6038,-2.772,-2.9842,-3.1901,-3.3658,-3.4311,-3.4663,-3.4768,-3.4826,-3.4864,-3.4926,-3.4939,-3.514,-3.5571,-3.5608,-3.5608,-3.5608,-3.6107,-3.6405,-3.6405,-3.6405,-3.6405,-3.6405,-3.6405,-3.6405,-3.6405,-3.6405,-3.6405,-3.6405,-3.6405,-3.6405,-3.6405,-3.6405,-3.6405,-3.6405,-3.6405,-3.6405,-3.6405,-3.6405,-3.6405,-3.6405,-3.6405,-3.6405,-3.6405,-3.6405,-3.6405,-3.6229,-3.5165,-3.4826,-3.4768,-3.4705,-3.4387,-3.401,-3.401,-3.3658,-3.3325,-3.3206,-3.3224,-3.3212,-3.3136,-3.3124,-3.2943,-3.2441,-3.2265,-3.2077,-3.1599,-3.1436,-3.1248,-3.0796,-3.0721,-3.0532,-2.998,-2.9905,-2.988,-2.9804,-2.9792,-2.9792,-2.9792,-2.9792,-2.9792,-2.9792,-2.9792,-2.9792,-2.9792,-2.9792,-2.9792,-2.9792,-2.9792,-2.9792,-2.9792,-2.9792,-2.9792,-2.9792,-2.9792,-2.9792,-2.9792,-2.9792,-2.9792,-3.4161,-3.4868,-3.5219,-3.4713,-3.4161,-3.3093,-3.052,-2.9063,0.0,-2.4958,-2.3891,-2.3095,-2.2108,-2.359,-2.5498,-2.7155,-2.9302,-3.1486,-3.3608,-3.3985,-3.4374,-3.5245,-3.5357,-3.5579,-3.6078,-3.6128,-3.6166,-3.6267,-3.6267,-3.6267,-3.6267,-3.6355,-3.6405,-3.6405,-3.6405,-3.6405,-3.6405,-3.6405,-3.6405,-3.6405,-3.6405,-3.6405,-3.6405,-3.6405,-3.6405,-3.6405,-3.6405,-3.6405,-3.6405,-3.6405,-3.6405,-3.6405,-3.6405,-3.6405,-3.6405,-3.6405,-3.6405,-3.6405,-3.6405,-3.6405,-3.6304,-3.5617,-3.5357,-3.527,-3.4818,-3.4663,-3.4575,-3.4575,-3.4512,-3.4336,-3.3872,-3.3759,-3.3646,-3.3224,-3.3124,-3.3056,-3.2955,-3.2554,-3.219,-3.2089,-3.17,-3.1361,-3.1273,-3.1248,-3.1085,-3.0557,-3.047,-3.0306,-2.9854,-2.9792,-2.9792,-2.9792,-2.9792,-2.9792,-2.9792,-2.9792,-2.9792,-2.9792,-2.9792,-2.9792,-2.9792,-2.9792,-2.9792,-2.9792,-2.9792,-2.9792,-2.9792,-2.9792,-2.9792,-2.9792,-2.9792,-2.9792,-3.45,-3.5328,-3.5768,-3.4926,-3.4085,-3.2604,-2.9252,0.0,0.0,-2.2498,-2.1832,-2.1518,-2.0413,-2.223,-2.4362,-2.5774,-2.762,-2.9854,-3.2629,-3.3018,-3.3646,-3.5295,-3.5805,-3.6069,-3.638,-3.6405,-3.6405,-3.6405,-3.6405,-3.6405,-3.6405,-3.6405,-3.6405,-3.6405,-3.6405,-3.6405,-3.6405,-3.6405,-3.6405,-3.6405,-3.6405,-3.6405,-3.6405,-3.6405,-3.6405,-3.6405,-3.6405,-3.6405,-3.6405,-3.6405,-3.6405,-3.6405,-3.6405,-3.6405,-3.6405,-3.6405,-3.6405,-3.6405,-3.6405,-3.6405,-3.6367,-3.6056,-3.5968,-3.5918,-3.5655,-3.5378,-3.5107,-3.5107,-3.4906,-3.4618,-3.4399,-3.4324,-3.4261,-3.3997,-3.3709,-3.342,-3.3144,-3.2855,-3.2667,-3.2667,-3.2453,-3.2164,-3.1863,-3.1813,-3.1637,-3.1097,-3.1022,-3.0821,-3.0294,-3.0218,-3.0118,-2.9829,-2.9792,-2.9792,-2.9792,-2.9792,-2.9792,-2.9792,-2.9792,-2.9792,-2.9792,-2.9792,-2.9792,-2.9792,-2.9792,-2.9792,-2.9792,-2.9792,-2.9792,-2.9792,-2.9792,-2.9792,-3.4399,-3.5265,-3.5768,-3.4788,-3.3709,-3.1901,-2.8171,-2.6226,0.0,-2.0552,-1.9974,-1.9975,-1.9284,-2.1039,-2.3058,0.0,-2.6201,-2.836,-3.1436,-3.2277,-3.3269,-3.5107,-3.5956,0.0,-3.6405,-3.6405,-3.6405,-3.6405,-3.6405,-3.6405,-3.6405,-3.6405,-3.6405,-3.6405,-3.6405,-3.6405,-3.6405,-3.6405,-3.6405,-3.6405,-3.6405,-3.6405,-3.6405,-3.6405,-3.6405,-3.6405,-3.6405,-3.6405,-3.6405,-3.6405,-3.6405,-3.6405,-3.6405,-3.6405,-3.6405,-3.6405,-3.6405,-3.6405,-3.6405,-3.6405,-3.6405,-3.6405,-3.6405,-3.6405,-3.6405,-3.6056,-3.5671,-3.5671,-3.5403,-3.5052,-3.4881,-3.4856,-3.4818,-3.4751,-3.4399,-3.3922,-3.337,-3.3257,-3.3262,-3.3106,-3.3124,-3.293,-3.2478,-3.239,-3.2215,-3.165,-3.1562,-3.1373,-3.0846,-3.0783,-3.062,-3.0181,-2.993,-2.9792,-2.9792,-2.9792,-2.9792,-2.9792,-2.9792,-2.9792,-2.9792,-2.9792,-2.9792,-2.9792,-2.9792,-2.9792,-2.9792,-2.9792,-2.9792,-2.9792,-2.9792,-2.9792,-3.3822,-3.4412,-3.4726,-3.4123,-3.3119,-3.1411,-2.8047,0.0,-2.3314,-2.0401,-1.907,-1.8694,-1.9572,-2.039,0.0,0.0,0.0,-2.8097,-3.0432,-3.2491,-3.401,-3.4668,0.0,0.0,-3.6405,-3.6405,-3.6405,-3.6405,-3.6405,-3.6405,-3.6405,-3.6405,-3.6405,-3.6405,-3.6405,-3.6405,-3.6405,-3.6405,-3.6405,-3.6405,-3.6405,-3.6405,-3.6405,-3.6405,-3.6405,-3.6405,-3.6405,-3.6405,-3.6405,-3.6405,-3.6405,-3.6405,-3.6405,-3.6405,-3.6405,-3.6405,-3.6405,-3.6405,-3.6405,-3.6405,-3.6405,-3.6405,-3.6405,-3.6405,-3.6405,-3.6367,-3.6329,-3.6329,-3.6292,-3.6094,-3.5558,-3.542,-3.5295,-3.4839,-3.4675,-3.45,-3.3935,-3.3822,-3.3671,-3.3169,-3.3124,-3.3056,-3.3048,-3.3006,-3.2805,-3.2227,-3.2139,-3.1938,-3.1386,-3.1323,-3.1298,-3.1248,-3.0369,-2.9792,-2.9792,-2.9792,-2.9792,-2.9792,-2.9792,-2.9792,-2.9792,-2.9792,-2.9792,-2.9792,-2.9792,-2.9792,-2.9792,-2.9792,-2.9792,-2.9792,-2.9792,-2.9792,-3.3156,-3.4048,-3.4512,-3.3621,-3.2554,-3.0758,-2.7105,-2.482,-2.2569,-1.9484,-1.8505,-1.8329,-1.8756,-1.956,-2.084,-2.2962,0.0,0.0,-2.7758,-2.944,-3.111,-3.2993,-3.4487,-3.5642,-3.6342,-3.6405,-3.6405,-3.6405,-3.6405,-3.6405,-3.6405,-3.6405,-3.6405,-3.6405,-3.6405,-3.6405,-3.6405,-3.6405,-3.6405,-3.6405,-3.6405,-3.6405,-3.6405,-3.6405,-3.6405,-3.6405,-3.6405,-3.6405,-3.6405,-3.6405,-3.6405,-3.6405,-3.6405,-3.6405,-3.6405,-3.6405,-3.6405,-3.6405,-3.6405,-3.6405,-3.6405,-3.6405,-3.6405,-3.6405,-3.6405,-3.6405,-3.6405,-3.6405,-3.6405,-3.6355,-3.6094,-3.6031,-3.5893,-3.5307,-3.5169,-3.5019,-3.4512,-3.4135,-3.3834,-3.3608,-3.3307,-3.3124,-3.3124,-3.3124,-3.3006,-3.2767,-3.2729,-3.2528,-3.1964,-3.1888,-3.1763,-3.1424,-3.1009,-3.0633,-3.0319,-3.0281,-3.0143,-2.9817,-2.9792,-2.9792,-2.9792,-2.9792,-2.9792,-2.9792,-2.9792,-2.9792,-2.9792,-2.9792,-2.9792,-2.9792,-2.9792,-2.9792,-3.2428,-3.3269,-3.3596,-3.2968,-3.1863,-2.998,-2.6402,-2.4192,-2.1979,-1.8844,-1.794,-1.7802,-1.8141,-1.8819,-1.9924,-2.1769,0.0,-2.3527,-2.6348,-2.7795,-2.9503,-3.1926,-3.3407,-3.4675,-3.5768,-3.6216,-3.6405,-3.6405,-3.6405,-3.6405,-3.6405,-3.6405,-3.6405,-3.6405,-3.6405,-3.6405,-3.6405,-3.6405,-3.6405,-3.6405,-3.6405,-3.6405,-3.6405,-3.6405,-3.6405,-3.6405,-3.6405,-3.6405,-3.6405,-3.6405,-3.6405,-3.6405,-3.6405,-3.6405,-3.6405,-3.6405,-3.6405,-3.6405,-3.6405,-3.6405,-3.6405,-3.6405,-3.6405,-3.6405,-3.6405,-3.6405,-3.6405,-3.6405,-3.6405,-3.6405,-3.6405,-3.6405,-3.6304,-3.5881,-3.5793,-3.5583,-3.5044,-3.4663,-3.4336,-3.4173,-3.3822,-3.3508,-3.3345,-3.3319,-3.3269,-3.3106,-3.3124,-3.293,-3.2516,-3.2466,-3.2315,-3.1926,-3.1888,-3.1599,-3.0909,-3.0846,-3.0683,-3.0294,-3.0118,-3.0043,-3.0043,-2.988,-2.9792,-2.9792,-2.9792,-2.9792,-2.9792,-2.9792,-2.9792,-2.9792,-2.9792,-2.9792,-3.1625,-3.1838,-3.1549,-3.2089,-3.0997,-2.9076,-2.6239,-2.3891,-2.1543,-1.8781,-1.7313,-1.6851,-1.8003,-1.8216,-1.8945,-2.1142,-2.241,0.0,-2.6892,-2.8725,-3.0382,-3.2026,-3.2729,-3.3533,-3.4625,-3.5717,-3.6405,-3.6405,-3.6405,-3.6405,-3.6405,-3.6405,-3.6405,-3.6405,-3.6405,-3.6405,-3.6405,-3.6405,-3.6405,-3.6405,-3.6405,-3.6405,-3.6405,-3.6405,-3.6405,-3.6405,-3.6405,-3.6405,-3.6405,-3.6405,-3.6405,-3.6405,-3.6405,-3.6405,-3.6405,-3.6405,-3.6405,-3.6405,-3.6405,-3.6405,-3.6405,-3.6405,-3.6405,-3.6405,-3.6405,-3.6405,-3.6405,-3.6405,-3.6405,-3.6405,-3.6405,-3.6405,-3.6405,-3.6405,-3.6405,-3.6207,-3.5608,-3.5483,-3.532,-3.4768,-3.4713,-3.4525,-3.3985,-3.3884,-3.3709,-3.3156,-3.3124,-3.3124,-3.3111,-3.3111,-3.3111,-3.3056,-3.3056,-3.2604,-3.1474,-3.1386,-3.1386,-3.1373,-3.0896,-3.0608,-3.0608,-3.008,-2.9792,-2.9792,-2.9792,-2.9792,-2.9792,-2.9792,-2.9792,-2.9792,-2.9792,-2.9792,-2.8649,-2.9553,-3.0068,-2.9089,-2.8172,-2.6914,-2.4469,-2.2498,-2.0614,-1.8618,-1.7277,-1.6839,-1.799,-1.8204,-1.9146,-2.2105,-2.2882,-2.3948,-2.6424,-2.816,-2.9817,-3.1461,-3.3822,-3.55,-3.5805,-3.6204,-3.6405,-3.6405,-3.6405,-3.6405,-3.6405,-3.6405,-3.6405,-3.6405,-3.6405,-3.6405,-3.6405,-3.6405,-3.6405,-3.6405,-3.6405,-3.6405,-3.6405,-3.6405,-3.6405,-3.6405,-3.6405,-3.6405,-3.6405,-3.6405,-3.6405,-3.6405,-3.6405,-3.6405,-3.6405,-3.6405,-3.6405,-3.6405,-3.6405,-3.6405,-3.6405,-3.6405,-3.6405,-3.6405,-3.6405,-3.6405,-3.6405,-3.6405,-3.6405,-3.6405,-3.6405,-3.6405,-3.6405,-3.6405,-3.6405,-3.6367,-3.6144,-3.5805,-3.5445,-3.527,-3.4931,-3.4663,-3.45,-3.4462,-3.4274,-3.3721,-3.3633,-3.3508,-3.3174,-3.3124,-3.3124,-3.3124,-3.3124,-3.2767,-3.2014,-3.1951,-3.1788,-3.1411,-3.1235,-3.1148,-3.1148,-3.0972,-3.0884,-3.0884,-3.0884,-3.0884,-3.0884,-3.0532,-3.0168,-2.9792,-2.9792,-2.9792,-2.6663,-2.7769,-2.8335,-2.7494,-2.6553,-2.536,-2.3521,-2.1681,-1.9962,-1.8505,-1.7277,-1.6798,-1.7727,-1.789,-1.8769,-2.1415,-2.2058,-2.3125,-2.5795,-2.7394,-2.9151,-3.1436,-3.4085,-3.5742,-3.5742,-3.6166,-3.6405,-3.6405,-3.6405,-3.6405,-3.6405,-3.6405,-3.6405,-3.6405,-3.6405,-3.6405,-3.6405,-3.6405,-3.6405,-3.6405,-3.6405,-3.6405,-3.6405,-3.6405,-3.6405,-3.6405,-3.6405,-3.6405,0.0,-3.6405,-3.6405,-3.6405,-3.6405,-3.6405,-3.6405,-3.6405,-3.6405,-3.6405,-3.6405,-3.6405,-3.6405,-3.6405,-3.6405,-3.6405,-3.6405,-3.6405,-3.6405,-3.6405,-3.6405,-3.6405,-3.6405,-3.6405,-3.6405,-3.6405,-3.6405,-3.6405,-3.6405,-3.6094,-3.5855,-3.5855,-3.5579,-3.5278,-3.5019,-3.4994,-3.4806,-3.4299,-3.4211,-3.401,-3.3458,-3.3382,-3.3307,-3.3106,-3.3124,-3.293,-3.2566,-3.2541,-3.239,-3.2051,-3.1825,-3.17,-3.17,-3.1499,-3.1386,-3.1386,-3.1386,-3.1386,-3.1386,-3.106,-3.0733,-3.0394,-3.0394,-3.0394,0.0,-2.6109,-2.6361,-2.6766,-2.5724,-2.4274,-2.3183,-2.1265,0.0,-1.8417,-1.7277,-1.6713,-1.7448,-1.7511,-1.8052,-1.9811,-2.0578,-2.2062,-2.5259,-2.6854,-2.8863,-3.2026,-3.3834,-3.4839,-3.4839,-3.5768,-3.6405,-3.6405,-3.6405,-3.6405,-3.6405,-3.6405,-3.6405,-3.6405,-3.6405,-3.6405,-3.6405,-3.6405,-3.6405,-3.6405,-3.6405,-3.6405,-3.6405,-3.6405,-3.6405,-3.6405,-3.6405,-3.6405,-3.6405,-3.6405,-3.6405,-3.6405,-3.6405,-3.6405,-3.6405,-3.6405,-3.6405,-3.6405,-3.6405,-3.6405,-3.6405,-3.6405,-3.6405,-3.6405,-3.6405,-3.6405,-3.6405,-3.6405,-3.6405,-3.6405,-3.6405,-3.6405,-3.6405,-3.6405,-3.6405,-3.6405,-3.6405,-3.6405,-3.6405,-3.6405,-3.6405,-3.6194,-3.5646,-3.5558,-3.537,-3.4818,-3.4776,-3.4575,-3.4035,-3.396,-3.3759,-3.3257,-3.3194,-3.3224,-3.3144,-3.3106,-3.3124,-3.3124,-3.2566,-3.2277,-3.2277,-3.1788,-3.1512,-3.1512,-3.1512,-3.1486,-3.1449,-3.1449,-3.1436,-3.1386,-3.1386,-3.1386,-2.0537,0.0,-2.374,-2.3037,-2.256,-2.2096,0.0,-2.0188,-1.8995,-1.8342,-1.7277,-1.7052,-1.8894,-1.8568,-1.9108,-2.2472,-2.3125,-2.4079,-2.654,-2.9679,-3.2315,-3.3935,-3.5228,-3.6015,-3.6015,-3.6254,-3.6405,-3.6405,-3.6405,-3.6405,-3.6405,-3.6405,-3.6405,-3.6405,-3.6405,-3.6405,-3.6405,-3.6405,-3.6405,-3.6405,-3.6405,-3.6405,-3.6405,-3.6405,-3.6405,-3.6405,-3.6405,-3.6405,-3.6405,-3.6405,-3.6405,-3.6405,-3.6405,-3.6405,-3.6405,-3.6405,-3.6405,-3.6405,-3.6405,-3.6405,-3.6405,-3.6405,-3.6405,-3.6405,-3.6405,-3.6405,-3.6405,-3.6405,-3.6405,-3.6405,-3.6405,-3.6405,-3.6405,-3.6405,-3.6405,-3.6405,-3.6405,-3.6405,-3.6405,-3.6405,-3.6405,-3.6367,-3.6194,-3.6169,-3.5981,-3.5395,-3.5307,-3.5107,-3.46,-3.4525,-3.4474,-3.4349,-3.4336,-3.4161,-3.3746,-3.3319,-3.3124,-3.3124,-3.2955,-3.2867,-3.2867,-3.2797,-3.2679,-3.2679,-3.2679,-3.2466,-3.2014,-3.2014,-3.18,-3.1386,-3.1386,-3.1386,-1.8279,-2.0275,-2.2234,-2.1644,-2.1292,-2.1069,-2.0767,-1.9447,-1.8191,-1.789,-1.7124,-1.6939,-1.8417,-1.8631,-1.9434,-2.2074,-2.3326,-2.5121,-2.836,-3.1273,-3.3583,-3.4893,-3.5843,-3.6405,-3.6405,-3.6405,-3.6405,-3.6405,-3.6405,-3.6405,-3.6405,-3.6405,-3.6405,-3.6405,-3.6405,-3.6405,-3.6405,-3.6405,-3.6405,-3.6405,-3.6405,-3.6405,-3.6405,-3.6405,-3.6405,-3.6405,-3.6405,-3.6405,-3.6405,-3.6405,-3.6405,-3.6405,-3.6405,-3.6405,-3.6405,-3.6405,-3.6405,-3.6405,-3.6405,-3.6405,-3.6405,-3.6405,-3.6405,-3.6405,-3.6405,-3.6405,-3.6405,-3.6405,-3.6405,-3.6405,-3.6405,-3.6405,-3.6405,-3.6405,-3.6405,-3.6405,-3.6405,-3.6405,-3.6405,-3.6405,-3.6405,-3.6405,-3.6405,-3.6405,-3.6304,-3.5968,-3.5918,-3.5717,-3.5119,-3.5056,-3.4956,-3.4751,-3.468,-3.46,-3.4299,-3.401,-3.3621,-3.3106,-3.3124,-3.3124,-3.3124,-3.3124,-3.3124,-3.3124,-3.3124,-3.2918,-3.2604,-3.2604,-3.2453,-3.2164,-3.2164,-3.2164,-1.7674,-1.9522,-2.1358,-2.1154,-2.0918,-2.0666,-2.0578,-1.9057,-1.7639,-1.7639,-1.7174,-1.7027,-1.7989,-1.8832,-1.9849,-2.1219,-2.3226,-2.605,-3.0156,-3.2164,-3.3784,-3.5307,-3.6031,-3.6405,-3.6405,-3.6405,-3.6405,-3.6405,-3.6405,-3.6405,-3.6405,-3.6405,-3.6405,-3.6405,-3.6405,-3.6405,-3.6405,-3.6405,-3.6405,-3.6405,-3.6405,-3.6405,-3.6405,-3.6405,-3.6405,-3.6405,-3.6405,-3.6405,-3.6405,-3.6405,-3.6405,-3.6405,-3.6405,-3.6405,-3.6405,-3.6405,-3.6405,-3.6405,-3.6405,-3.6405,-3.6405,-3.6405,-3.6405,-3.6405,-3.6405,-3.6405,-3.6405,-3.6405,-3.6405,-3.6405,-3.6405,-3.6405,-3.6405,-3.6405,-3.6405,-3.6405,-3.6405,-3.6405,-3.6405,-3.6405,-3.6405,-3.6405,-3.6405,-3.6405,-3.6405,-3.6405,-3.6405,-3.6194,-3.5683,-3.5621,-3.5445,-3.5027,-3.4977,-3.4939,-3.4806,-3.4806,-3.4412,-3.3395,-3.3257,-3.3212,-3.3124,-3.3124,-3.3124,-3.3124,-3.3124,-3.3124,-3.3124,-3.3124,-3.3124,-3.3124,-3.3124,-3.3124,-1.892,-2.01,-2.0591,-1.961,-2.0037,-2.0566,-2.0037,-1.9334,-1.8744,-1.8744,-1.8306,-1.8681,-2.1104,-2.1317,-2.1933,-2.4431,-2.6327,-2.836,-3.0922,-3.2717,-3.4211,-3.5357,-3.6031,-3.6405,-3.6405,-3.6405,-3.6405,-3.6405,-3.6405,-3.6405,-3.6405,-3.6405,-3.6405,-3.6405,-3.6405,-3.6405,-3.6405,-3.6405,-3.6405,-3.6405,-3.6405,-3.6405,-3.6405,-3.6405,-3.6405,-3.6405,-3.6405,-3.6405,-3.6405,-3.6405,-3.6405,-3.6405,-3.6405,-3.6405,-3.6405,-3.6405,-3.6405,-3.6405,-3.6405,-3.6405,-3.6405,-3.6405,-3.6405,-3.6405,-3.6405,-3.6405,-3.6405,-3.6405,-3.6405,-3.6405,-3.6405,-3.6405,-3.6405,-3.6405,-3.6405,-3.6405,-3.6405,-3.6405,-3.6405,-3.6405,-3.6405,-3.6405,-3.6405,-3.6405,-3.6405,-3.6405,-3.6405,-3.638,-3.6292,-3.6279,-3.6254,-3.6166,-3.6153,-3.5918,-3.5408,-3.537,-3.5107,-3.4512,-3.4035,-3.3558,-3.3136,-3.3124,-3.3124,-3.3124,-3.3124,-3.3124,-3.3124,-3.3124,-3.3124,-3.3124,-3.3124,-3.3124,-1.725,-1.8623,-1.9723,-1.9497,-2.0727,-2.1857,-2.128,-2.0752,-2.0363,-2.0363,-2.015,-2.0552,-2.238,-2.302,-2.4293,-2.7369,-2.9001,-3.0545,-3.2478,-3.3671,-3.4751,-3.5855,-3.6207,-3.6405,-3.6405,-3.6405,-3.6405,-3.6405,-3.6405,-3.6405,-3.6405,-3.6405,-3.6405,-3.6405,-3.6405,-3.6405,-3.6405,-3.6405,-3.6405,-3.6405,-3.6405,-3.6405,-3.6405,-3.6405,-3.6405,-3.6405,-3.6405,-3.6405,-3.6405,-3.6405,-3.6405,-3.6405,-3.6405,-3.6405,-3.6405,-3.6405,-3.6405,-3.6405,-3.6405,-3.6405,-3.6405,-3.6405,-3.6619,-3.6857,-3.6857,-3.701,-3.7249,-3.7249,-3.7036,-3.6782,-3.648,-3.6631,-3.6782,-3.648,-3.6405,-3.6405,-3.6405,-3.6405,-3.6405,-3.6405,-3.6405,-3.6405,-3.6405,-3.6405,-3.6405,-3.6405,-3.6405,-3.6405,-3.6405,-3.6405,-3.6405,-3.6405,-3.6405,-3.6304,-3.6006,-3.5994,-3.5629,-3.4731,-3.4487,-3.4223,-3.3972,-3.396,-3.396,-3.396,-3.3671,-3.352,-3.352,-3.3219,-3.3124,-3.3124,-3.3124,-3.3124,-1.6504,-1.7812,-1.9194,-2.0135,-2.1481,-2.2556,-2.2686,-2.2171,-2.1794,-2.2184,-2.2272,-2.2611,-2.3715,-2.5013,-2.6866,-2.9553,-3.0997,-3.2277,-3.3696,-3.4487,-3.5278,-3.6292,-3.6405,-3.6405,-3.6405,-3.6405,-3.6405,-3.6405,-3.6405,-3.6405,-3.6405,-3.6405,-3.6405,-3.6405,-3.6405,-3.6405,-3.6405,-3.6405,-3.6405,-3.6405,-3.6405,-3.6405,-3.6405,-3.6405,-3.6405,-3.6405,-3.6405,-3.6405,-3.6405,-3.6405,-3.6405,-3.6405,-3.6405,-3.6405,-3.6405,-3.6405,-3.6405,-3.6405,-3.6405,-3.6493,-3.6606,-3.6606,-3.6923,-3.7374,-3.7374,-3.7663,-3.8002,-3.8002,-3.7801,-3.745,-3.6933,-3.7061,-3.7262,-3.6895,-3.6795,-3.6795,-3.6795,-3.6795,-3.6795,-3.6795,-3.6795,-3.6795,-3.6795,-3.6795,-3.6795,-3.6795,-3.6795,-3.6744,-3.6619,-3.6606,-3.6556,-3.6417,-3.6405,-3.6405,-3.6405,-3.6405,-3.6053,-3.5165,-3.4989,-3.4806,-3.4726,-3.468,-3.468,-3.468,-3.4311,-3.4085,-3.4085,-3.3671,-3.3458,-3.3458,-3.3458,-3.3458,-1.9167,-1.9415,-1.9424,-2.159,-2.1481,-2.1408,-2.3414,-2.3037,-2.2669,-2.4224,-2.455,-2.4921,-2.6047,-2.802,-2.9679,-3.0432,-3.1901,-3.3169,-3.3809,-3.4768,-3.5658,-3.6329,-3.6405,-3.6405,-3.6405,-3.6405,-3.6405,-3.6405,-3.6405,-3.6405,-3.6405,-3.6405,-3.6405,-3.6405,-3.6405,-3.6405,-3.6405,-3.6405,-3.6405,-3.6405,-3.6405,-3.6405,-3.6405,-3.6405,-3.6405,-3.6405,-3.6405,-3.6405,-3.6405,-3.6405,-3.6405,-3.6405,-3.6405,-3.6405,-3.6405,-3.6405,-3.6405,-3.6405,-3.6405,-3.6744,-3.7123,-3.7123,-3.75,-3.7952,-3.7952,-3.7977,-3.8002,-3.8002,-3.8366,-3.8617,-3.804,-3.7914,-3.7939,-3.7902,-3.7889,-3.7889,-3.7889,-3.7889,-3.7889,-3.7889,-3.7889,-3.7889,-3.7889,-3.7889,-3.7889,-3.7889,-3.7889,-3.7701,-3.7199,-3.7123,-3.6923,-3.6468,-3.6405,-3.6405,-3.6405,-3.6405,-3.6367,-3.6292,-3.5768,-3.5207,-3.4705,-3.468,-3.468,-3.468,-3.4675,-3.4618,-3.4618,-3.4625,-3.4555,-3.4555,-3.4555,-3.4555,-1.7206,-1.8467,-1.9782,-2.1403,-2.2535,-2.3464,-2.4318,-2.5247,-2.6189,-2.7132,-2.767,-2.8047,-2.8461,-2.9767,-3.0846,-3.106,-3.2792,-3.4173,-3.4387,-3.5366,-3.6119,-3.638,-3.6405,-3.6405,-3.6405,-3.6405,-3.6405,-3.6405,-3.6405,-3.6405,-3.6405,-3.6405,-3.6405,-3.6405,-3.6405,-3.6405,-3.6405,-3.6405,-3.6405,-3.6405,-3.6405,-3.6405,-3.6405,-3.6405,-3.6405,-3.6405,-3.6405,-3.6405,-3.6405,-3.6405,-3.6405,-3.6405,-3.6405,-3.6405,-3.6405,-3.6405,-3.6405,-3.6405,-3.6405,-3.6769,-3.7186,-3.7186,-3.7801,-3.8542,-3.8542,-3.8781,-3.9057,-3.9057,-3.922,-3.917,-3.8241,-3.8278,-3.8454,-3.809,-3.8002,-3.8002,-3.8002,-3.8002,-3.8002,-3.8002,-3.8002,-3.8002,-3.8002,-3.8002,-3.8002,-3.8002,-3.8002,-3.7939,-3.7713,-3.7701,-3.7613,-3.7412,-3.7073,-3.6782,-3.6443,-3.6405,-3.6405,-3.6405,-3.6169,-3.5956,-3.5755,-3.5742,-3.5742,-3.5742,-3.5403,-3.5194,-3.5194,-3.4843,-3.468,-3.468,-3.468,-3.468,-1.6105,-1.7752,-1.9751,-2.1014,-2.2969,-2.4763,-2.5661,-2.703,-2.836,-2.9239,-2.9779,-3.0055,-3.0055,-3.0783,-3.1449,-3.1625,-3.3382,-3.4776,-3.4919,-3.578,-3.6405,-3.6405,-3.6405,-3.6405,-3.6405,-3.6405,-3.6405,-3.6405,-3.6405,-3.6405,-3.6405,-3.6405,-3.6405,-3.6405,-3.6405,-3.6405,-3.6405,-3.6405,-3.6405,-3.6405,-3.6405,-3.6405,-3.6405,-3.6405,-3.6405,-3.6405,-3.6405,-3.6405,-3.6405,-3.6405,-3.6405,-3.6405,-3.6405,-3.6405,-3.6405,-3.6405,-3.6405,-3.643,-3.6606,-3.6973,-3.7475,-3.7651,-3.8366,-3.9132,-3.9132,-3.9396,-3.9697,-3.9697,-3.9697,-3.9521,-3.8743,-3.8831,-3.9032,-3.863,-3.8542,-3.8542,-3.8542,-3.8542,-3.8542,-3.8542,-3.8542,-3.8542,-3.8542,-3.8542,-3.8542,-3.8542,-3.8542,-3.8479,-3.8304,-3.8278,-3.8203,-3.8027,-3.7513,-3.7023,-3.6694,-3.6505,-3.6405,-3.6405,-3.6405,-3.6405,-3.6405,-3.6405,-3.6405,-3.6405,-3.5994,-3.5805,-3.5805,-3.5429,-3.524,-3.524,-3.524,-3.524,-1.6686,-1.7617,-1.9266,-2.0647,-2.2543,-2.4757,-2.7494,-2.8122,-2.8612,-3.0294,-3.0633,-3.0633,-3.0633,-3.1047,-3.1574,-3.2127,-3.3633,-3.4868,-3.542,-3.6019,-3.6405,-3.6405,-3.6405,-3.6405,-3.6405,-3.6405,-3.6405,-3.6405,-3.6405,-3.6405,-3.6405,-3.6405,-3.6405,-3.6405,-3.6405,-3.6405,-3.6405,-3.6405,-3.6405,-3.6405,-3.6405,-3.6405,-3.6405,-3.6405,-3.6405,-3.6405,-3.6405,-3.6405,-3.6405,-3.6405,-3.6405,-3.6405,-3.6405,-3.6405,-3.6405,-3.6405,-3.6405,-3.648,-3.6985,-3.7538,-3.8103,-3.868,-3.9245,-3.9697,-3.9697,-3.9697,-3.9697,-3.9697,-3.9697,-3.9697,-3.9697,-3.9697,-3.9697,-3.9697,-3.9697,-3.9697,-3.9697,-3.9697,-3.9697,-3.9697,-3.9697,-3.9697,-3.9697,-3.9697,-3.9697,-3.9697,-3.9697,-3.9496,-3.8994,-3.8932,-3.8655,-3.8078,-3.7525,-3.7199,-3.7199,-3.6732,-3.6417,-3.6417,-3.6417,-3.6417,-3.6405,-3.6405,-3.6405,-3.6405,-3.6405,-3.6405,-3.6405,-3.6405,-3.6405,-3.6405,-3.6405,-3.6405,-1.6067,-1.7946,-2.0353,-2.1421,-2.4316,-2.7306,-2.8925,-2.9591,-3.0344,-3.2001,-3.2014,-3.1738,-3.1738,-3.1863,-3.2152,-3.2729,-3.3897,-3.4868,-3.542,-3.6019,-3.6405,-3.6405,-3.6405,-3.6405,-3.6405,-3.6405,-3.6405,-3.6405,-3.6405,-3.6405,-3.6405,-3.6405,-3.6405,-3.6405,-3.6405,-3.6405,-3.6405,-3.6405,-3.6405,-3.6405,-3.6405,-3.6405,-3.6405,-3.6405,-3.6405,-3.6405,-3.6405,-3.6405,-3.6405,-3.6405,-3.6405,-3.6405,-3.6405,-3.6405,-3.6405,-3.6405,-3.6405,-3.643,-3.6593,-3.7224,-3.804,-3.8203,-3.8919,-3.9697,-3.9697,-3.9697,-3.9697,-3.9697,-3.9697,-3.9697,-3.9697,-3.9697,-3.9697,-3.9697,-3.9697,-3.9697,-3.9697,-3.9697,-3.9697,-3.9697,-3.9697,-3.9697,-3.9697,-3.9697,-3.9697,-3.9697,-3.9697,-3.9634,-3.9471,-3.9446,-3.9233,-3.868,-3.8467,-3.8203,-3.7801,-3.7613,-3.7349,-3.7008,-3.6935,-3.6807,-3.643,-3.6405,-3.6405,-3.6405,-3.6405,-3.6405,-3.6405,-3.6405,-3.6405,-3.6405,-3.6405,-3.6405,-1.6452,-1.8403,-2.08,-2.2058,-2.4921,-2.8026,-3.0265,-3.1009,-3.1599,-3.2817,-3.2616,-3.2215,-3.2215,-3.2215,-3.2403,-3.298,-3.3822,-3.4618,-3.5395,-3.5642,-3.5793,-3.6006,-3.5843,-3.5705,-3.5705,-3.5705,-3.5705,-3.5705,-3.5705,-3.5705,-3.5705,-3.5705,-3.5705,-3.5705,-3.5705,-3.5705,-3.5705,-3.5931,-3.6031,-3.6044,-3.6304,-3.6405,-3.6405,-3.6405,-3.6405,-3.6405,-3.6405,-3.6405,-3.6405,-3.6405,-3.6405,-3.6405,-3.6405,-3.6405,-3.6405,-3.6405,-3.6405,-3.6443,-3.6656,-3.7262,-3.804,-3.8278,-3.8956,-3.9697,-3.9697,-3.9697,-3.9697,-3.9697,-3.9697,-3.9697,-3.9697,-3.9697,-3.9697,-3.9697,-3.9697,-3.9697,-3.9697,-3.9697,-3.9697,-3.9697,-3.9697,-3.9697,-3.9697,-3.9697,-3.9697,-3.9697,-3.9697,-3.9697,-3.9697,-3.9697,-3.9572,-3.9233,-3.9057,-3.873,-3.8379,-3.814,-3.7864,-3.7525,-3.7513,-3.7362,-3.7023,-3.6644,-3.6405,-3.6405,-3.6405,-3.6405,-3.6405,-3.6405,-3.6405,-3.6405,-3.6405,-3.6405,-1.7278,-1.8792,-2.0798,-2.2466,-2.4857,-2.7735,-3.1377,-3.2252,-3.2441,-3.3011,-3.2654,-3.229,-3.229,-3.229,-3.2478,-3.3056,-3.3571,-3.4274,-3.527,-3.4994,-3.4868,-3.537,-3.4981,-3.468,-3.468,-3.468,-3.468,-3.468,-3.468,-3.468,-3.468,-3.468,-3.468,-3.468,-3.468,-3.468,-3.468,-3.5169,-3.542,-3.5433,-3.5968,-3.6279,-3.6329,-3.638,-3.6405,-3.6405,-3.6405,-3.6405,-3.6405,-3.6405,-3.6405,-3.6405,-3.6405,-3.6405,-3.6405,-3.6405,-3.6405,-3.648,-3.6935,-3.75,-3.809,-3.8617,-3.9195,-3.9697,-3.9697,-3.9697,-3.9697,-3.9697,-3.9697,-3.9697,-3.9697,-3.9697,-3.9697,-3.9697,-3.9697,-3.9697,-3.9697,-3.9697,-3.9697,-3.9697,-3.9697,-3.9697,-3.9697,-3.9697,-3.9697,-3.9697,-3.9697,-3.9697,-3.9697,-3.9697,-3.9697,-3.9697,-3.9245,-3.8994,-3.8994,-3.8467,-3.814,-3.809,-3.809,-3.8065,-3.8002,-3.6998,-3.648,-3.648,-3.643,-3.6405,-3.6405,-3.6405,-3.6405,-3.6405,-3.6405,-3.6405,-1.6415,-1.8281,-2.0664,-2.2466,-2.6,-2.9646,-3.1714,-3.2566,-3.293,-3.3056,-3.298,-3.2893,-3.2893,-3.2893,-3.3068,-3.3633,-3.3822,-3.4135,-3.4756,-3.4756,-3.4718,-3.4843,-3.4756,-3.468,-3.468,-3.468,-3.468,-3.468,-3.468,-3.468,-3.468,-3.468,-3.468,-3.468,-3.468,-3.468,-3.468,-3.4793,-3.4856,-3.4856,-3.5014,-3.5303,-3.5683,-3.6157,-3.6405,-3.6405,-3.6405,-3.6405,-3.6405,-3.6405,-3.6405,-3.6405,-3.6405,-3.6405,-3.6405,-3.6405,-3.6405,-3.643,-3.6543,-3.7186,-3.8027,-3.8153,-3.8868,-3.9697,-3.9697,-3.9697,-3.9697,-3.9697,-3.9697,-3.9697,-3.9697,-3.9697,-3.9697,-3.9697,-3.9697,-3.9697,-3.9697,-3.9697,-3.9697,-3.9697,-3.9697,-3.9697,-3.9697,-3.9697,-3.9697,-3.9697,-3.9697,-3.9697,-3.9697,-3.9697,-3.9697,-3.9697,-3.9584,-3.9521,-3.9521,-3.9396,-3.9145,-3.8718,-3.873,-3.8479,-3.8027,-3.7362,-3.7059,-3.7059,-3.6631,-3.6405,-3.6405,-3.6405,-3.6405,-3.6405,-3.6405,-3.6405,-1.6686,-1.8354,-2.0663,-2.4436,-2.7197,-2.9624,-3.2077,-3.2855,-3.3124,-3.3124,-3.3124,-3.3124,-3.3124,-3.3124,-3.3212,-3.3458,-3.3508,-3.3696,-3.4248,-3.4098,-3.4035,-3.4299,-3.4098,-3.3935,-3.3935,-3.3935,-3.3935,-3.3935,-3.3935,-3.3935,-3.3935,-3.3935,-3.3935,-3.3935,-3.3935,-3.3935,-3.3935,-3.4198,-3.4324,-3.4336,-3.46,-3.4969,-3.552,-3.6107,-3.6405,-3.6405,-3.6405,-3.6405,-3.6405,-3.6405,-3.6405,-3.6405,-3.6405,-3.6405,-3.6405,-3.6405,-3.6405,-3.6405,-3.6405,-3.7086,-3.8002,-3.8002,-3.8768,-3.9697,-3.9697,-3.9697,-3.9697,-3.9697,-3.9697,-3.9697,-3.9697,-3.9697,-3.9697,-3.9697,-3.9697,-3.9697,-3.9697,-3.9697,-3.9697,-3.9697,-3.9697,-3.9697,-3.9697,-3.9697,-3.9697,-3.9697,-3.9697,-3.9697,-3.9697,-3.9697,-3.9697,-3.9697,-3.9697,-3.9697,-3.9697,-3.9697,-3.9572,-3.9283,-3.927,-3.9132,-3.8831,-3.8278,-3.7864,-3.7588,-3.7036,-3.6807,-3.6807,-3.6543,-3.6405,-3.6405,-3.6405,-3.6405,-1.6934,-1.8516,-2.0863,-2.6561,-2.8014,-2.8971,-3.2197,-3.3048,-3.3124,-3.3124,-3.3124,-3.3124,-3.3124,-3.3124,-3.3124,-3.3124,-3.3124,-3.3232,-3.3696,-3.337,-3.3244,-3.3709,-3.3357,-3.3124,-3.3124,-3.3124,-3.3124,-3.3124,-3.3124,-3.3124,-3.3124,-3.3124,-3.3124,-3.3124,-3.3124,-3.3124,-3.3124,-3.3533,-3.3759,-3.3771,-3.4324,-3.4768,-3.5232,-3.583,-3.6229,-3.6405,-3.6405,-3.6405,-3.6405,-3.6405,-3.6405,-3.6405,-3.6405,-3.6405,-3.6405,-3.6405,-3.6405,-3.6405,-3.6405,-3.7086,-3.8002,-3.8002,-3.8768,-3.9697,-3.9697,-3.9697,-3.9697,-3.9697,-3.9697,-3.9697,-3.9697,-3.9697,-3.9697,-3.9697,-3.9697,-3.9697,-3.9697,-3.9697,-3.9697,-3.9697,-3.9697,-3.9697,-3.9697,-3.9697,-3.9697,-3.9697,-3.9697,-3.9697,-3.9697,-3.9697,-3.9697,-3.9697,-3.9697,-3.9697,-3.9697,-3.9697,-3.9697,-3.9697,-3.9697,-3.9697,-3.9697,-3.9258,-3.8781,-3.8304,-3.7651,-3.7324,-3.7324,-3.682,-3.6556,-3.6556,-3.6455,-3.6405,-1.5459,-1.8027,-2.1557,-2.6223,-2.7755,-2.8824,-3.1702,-3.2717,-3.3124,-3.3124,-3.3124,-3.3124,-3.3124,-3.3124,-3.3124,-3.3124,-3.3124,-3.3149,-3.3224,-3.3174,-3.3149,-3.3224,-3.3162,-3.3124,-3.3124,-3.3124,-3.3124,-3.3124,-3.3124,-3.3124,-3.3124,-3.3124,-3.3124,-3.3124,-3.3124,-3.3124,-3.3124,-3.3156,-3.3224,-3.3194,-3.3746,-3.4048,-3.4135,-3.4688,-3.5466,-3.6405,-3.6405,-3.6405,-3.6405,-3.6405,-3.6405,-3.6405,-3.6405,-3.6405,-3.6405,-3.6405,-3.6405,-3.6405,-3.6405,-3.7086,-3.8002,-3.8002,-3.8768,-3.9697,-3.9697,-3.9697,-3.9697,-3.9697,-3.9697,-3.9697,-3.9697,-3.9697,-3.9697,-3.9697,-3.9697,-3.9697,-3.9697,-3.9697,-3.9697,-3.9697,-3.9697,-3.9697,-3.9697,-3.9697,-3.9697,-3.9697,-3.9697,-3.9697,-3.9697,-3.9697,-3.9697,-3.9697,-3.9697,-3.9697,-3.9697,-3.9697,-3.9697,-3.9697,-3.9697,-3.9697,-3.9697,-3.9622,-3.9546,-3.9471,-3.8429,-3.7902,-3.7889,-3.7337,-3.7073,-3.7061,-3.6631,-3.6405,-1.656,-1.8682,-2.1192,-2.5306,-2.7026,-2.8217,-3.038,-3.1744,-3.2591,-3.2591,-3.2855,-3.3124,-3.3124,-3.3124,-3.3124,-3.3124,-3.3124,-3.3124,-3.3124,-3.3124,-3.3124,-3.3124,-3.3124,-3.3124,-3.3124,-3.3124,-3.3124,-3.3124,-3.3124,-3.3124,-3.3124,-3.3124,-3.3124,-3.3124,-3.3124,-3.3124,-3.3124,-3.3124,-3.3124,-3.3124,-3.3319,-3.3608,-3.3909,-3.4148,-3.4864,-3.5906,-3.5906,-3.6081,-3.6405,-3.6405,-3.6405,-3.6405,-3.6405,-3.6405,-3.6405,-3.6405,-3.6405,-3.6405,-3.6405,-3.7086,-3.8002,-3.8002,-3.8768,-3.9697,-3.9697,-3.9697,-3.9697,-3.9697,-3.9697,-3.9697,-3.9697,-3.9697,-3.9697,-3.9697,-3.9697,-3.9697,-3.9697,-3.9697,-3.9697,-3.9697,-3.9697,-3.9697,-3.9697,-3.9697,-3.9697,-3.9697,-3.9697,-3.9697,-3.9697,-3.9697,-3.9697,-3.9697,-3.9697,-3.9697,-3.9697,-3.9697,-3.9697,-3.9697,-3.9697,-3.9697,-3.9697,-3.9697,-3.9697,-3.9697,-3.8894,-3.8492,-3.8492,-3.7927,-3.7651,-3.7638,-3.74,-3.7287,-1.697,-1.8412,-2.0014,-2.3793,-2.5874,-2.7417,-2.9153,-3.062,-3.1692,-3.2106,-3.2329,-3.2592,-3.3,-3.3124,-3.3124,-3.3124,-3.3124,-3.3124,-3.3124,-3.3124,-3.3124,-3.3124,-3.3124,-3.3124,-3.3124,-3.3124,-3.3124,-3.3124,-3.3124,-3.3124,-3.3124,-3.3124,-3.3124,-3.3124,-3.3124,-3.3124,-3.3124,-3.3124,-3.3124,-3.3124,-3.3124,-3.3294,-3.3696,-3.3696,-3.4211,-3.5094,-3.537,-3.578,-3.6157,-3.6355,-3.6405,-3.6405,-3.6405,-3.6405,-3.6405,-3.6405,-3.6405,-3.643,-3.6568,-3.7199,-3.804,-3.8178,-3.8894,-3.9697,-3.9697,-3.9697,-3.9697,-3.9697,-3.9697,-3.9697,-3.9697,-3.9697,-3.9697,-3.9697,-3.9697,-3.9697,-3.9697,-3.9697,-3.9697,-3.9697,-3.9697,-3.9697,-3.9697,-3.9697,-3.9697,-3.9697,-3.9697,-3.9697,-3.9697,-3.9697,-3.9697,-3.9697,-3.9697,-3.9697,-3.9697,-3.9697,-3.9697,-3.9697,-3.9697,-3.9697,-3.9697,-3.9697,-3.9697,-3.9697,-3.9295,-3.9082,-3.9082,-3.8504,-3.8228,-3.8228,-3.8078,-3.8002,-1.5098,-1.619,-1.7764,-2.146,-2.4254,-2.656,-2.8503,-2.9457,-3.0374,-3.1893,-3.14,-3.124,-3.2796,-3.3124,-3.3124,-3.3124,-3.3124,-3.3124,-3.3124,-3.3124,-3.3124,-3.3124,-3.3124,-3.3124,-3.3124,-3.3124,-3.3124,-3.3124,-3.3124,-3.3124,-3.3124,-3.3124,-3.3124,-3.3124,-3.3124,-3.3124,-3.3124,-3.3124,-3.3124,-3.3124,-3.3124,-3.3093,-3.3162,-3.3162,-3.3432,-3.4035,-3.5044,-3.552,-3.5583,-3.6144,-3.6405,-3.6405,-3.6405,-3.6405,-3.6405,-3.6405,-3.6405,-3.648,-3.696,-3.7525,-3.809,-3.8642,-3.922,-3.9697,-3.9697,-3.9697,-3.9697,-3.9697,-3.9697,-3.9697,-3.9697,-3.9697,-3.9697,-3.9697,-3.9697,-3.9697,-3.9697,-3.9697,-3.9697,-3.9697,-3.9697,-3.9697,-3.9697,-3.9697,-3.9697,-3.9697,-3.9697,-3.9697,-3.9697,-3.9697,-3.9697,-3.9697,-3.9697,-3.9697,-3.9697,-3.9697,-3.9697,-3.9697,-3.9697,-3.9697,-3.9697,-3.9697,-3.9697,-3.9697,-3.9672,-3.9647,-3.9647,-3.9094,-3.8831,-3.8856,-3.8266,-3.8002,-1.5019,-1.585,-1.6951,-1.9655,-2.2525,-2.4975,-2.6237,-2.8494,-3.049,-3.1066,-3.1149,-3.1422,-3.2331,-3.283,-3.3124,-3.3124,-3.3124,-3.3124,-3.3124,-3.3124,-3.3124,-3.3124,-3.3124,-3.3124,-3.3124,-3.3124,-3.3124,-3.3124,-3.3124,-3.3124,-3.3124,-3.3124,-3.3124,-3.3124,-3.3124,-3.3124,-3.3124,-3.3124,-3.3124,-3.3124,-3.3124,-3.3124,-3.3124,-3.3124,-3.3181,-3.3432,-3.4537,-3.5169,-3.5545,-3.6132,-3.6405,-3.6405,-3.6405,-3.6405,-3.6405,-3.6405,-3.6405,-3.6493,-3.6998,-3.755,-3.8103,-3.868,-3.9245,-3.9697,-3.9697,-3.9697,-3.9697,-3.9697,-3.9697,-3.9697,-3.9697,-3.9697,-3.9697,-3.9697,-3.9697,-3.9697,-3.9697,-3.9697,-3.9697,-3.9697,-3.9697,-3.9697,-3.9697,-3.9697,-3.9697,-3.9697,-3.9697,-3.9697,-3.9697,-3.9697,-3.9697,-3.9697,-3.9697,-3.9697,-3.9697,-3.9697,-3.9697,-3.9697,-3.9697,-3.9697,-3.9697,-3.9697,-3.9697,-3.9697,-3.9697,-3.9697,-3.9697,-3.9496,-3.9396,-3.9396,-3.9182,-3.9082,-1.4375,-1.5116,-1.6183,-1.832,-2.0583,-2.2735,-2.4653,-2.6599,-2.839,-2.973,-3.0025,-3.0292,-3.1218,-3.203,-3.2629,-3.3061,-3.3124,-3.3124,-3.3124,-3.3124,-3.3124,-3.3124,-3.3124,-3.3124,-3.3124,-3.3124,-3.3124,-3.3124,-3.3124,-3.3124,-3.3124,-3.3124,-3.3124,-3.3124,-3.3124,-3.3124,-3.3124,-3.3124,-3.3124,-3.3124,-3.3124,-3.3124,-3.3124,-3.3124,-3.3124,-3.3174,-3.4248,-3.4881,-3.5282,-3.6056,-3.6405,-3.6405,-3.6405,-3.6405,-3.6405,-3.6405,-3.6518,-3.6769,-3.7262,-3.7826,-3.8391,-3.8969,-3.9396,-3.9697,-3.9697,-3.9697,-3.9697,-3.9697,-3.9697,-3.9697,-3.9697,-3.9697,-3.9697,-3.9697,-3.9697,-3.9697,-3.9697,-3.9697,-3.9697,-3.9697,-3.9697,-3.9697,-3.9697,-3.9697,-3.9697,-3.9697,-3.9697,-3.9697,-3.9697,-3.9697,-3.9697,-3.9697,-3.9697,-3.9697,-3.9697,-3.9697,-3.9697,-3.9697,-3.9697,-3.9697,-3.9697,-3.9697,-3.9697,-3.9697,-3.9697,-3.9697,-3.9697,-3.9697,-3.9697,-3.9697,-3.9697,-3.9697,0.0,0.0,0.0,0.0,-1.8424,-1.996,-2.3756,-2.3701,-2.3976,-2.797,-2.7937,-2.7775,-2.9462,-3.0638,-3.1738,-3.2855,-3.3074,-3.3074,-3.3074,-3.3074,-3.3074,-3.3074,-3.3043,-3.3056,-3.3056,-3.3111,-3.3124,-3.3124,-3.3124,-3.3124,-3.3124,-3.3124,-3.3124,-3.3124,-3.3124,-3.3124,-3.3124,-3.3124,-3.3124,-3.3124,-3.3124,-3.3124,-3.3124,-3.3124,-3.3124,-3.3174,-3.4248,-3.468,-3.4813,-3.5952,-3.6405,-3.6405,-3.6405,-3.6405,-3.6405,-3.6405,-3.6757,-3.7262,-3.7814,-3.8391,-3.9007,-3.9521,-3.9697,-3.9697,-3.9697,-3.9697,-3.9697,-3.9697,-3.9697,-3.9697,-3.9697,-3.9697,-3.9697,-3.9697,-3.9697,-3.9697,-3.9697,-3.9697,-3.9697,-3.9697,-3.9697,-3.9697,-3.9697,-3.9697,-3.9697,-3.9697,-3.9697,-3.9697,-3.9697,-3.9697,-3.9697,-3.9697,-3.9697,-3.9697,-3.9697,-3.9697,-3.9697,-3.9697,-3.9697,-3.9697,-3.9697,-3.9697,-3.9697,-3.9697,-3.9697,-3.9697,-3.9697,-3.9697,-3.9697,-3.9697,-3.9697,-3.9697,-1.3447,0.0,0.0,0.0,0.0,0.0,-2.0151,-2.1192,-2.2502,-2.5176,-2.5849,-2.6643,-2.8767,-3.0045,-3.1047,-3.175,-3.1851,-3.1851,-3.1851,-3.1851,-3.1851,-3.1851,-3.2202,-3.2453,-3.2453,-3.283,-3.3124,-3.3124,-3.3124,-3.3124,-3.3124,-3.3124,-3.3124,-3.3124,-3.3124,-3.3124,-3.3124,-3.3124,-3.3124,-3.3124,-3.3124,-3.3124,-3.3124,-3.3124,-3.3124,-3.3174,-3.4248,-3.468,-3.4813,-3.5952,-3.6405,-3.6405,-3.6405,-3.6405,-3.6405,-3.6405,-3.6757,-3.7262,-3.7814,-3.8391,-3.9007,-3.9521,-3.9697,-3.9697,-3.9697,-3.9697,-3.9697,-3.9697,-3.9697,-3.9697,-3.9697,-3.9697,-3.9697,-3.9697,-3.9697,-3.9697,-3.9697,-3.9697,-3.9697,-3.9697,-3.9697,-3.9697,-3.9697,-3.9697,-3.9697,-3.9697,-3.9697,-3.9697,-3.9697,-3.9697,-3.9697,-3.9697,-3.9697,-3.9697,-3.9697,-3.9697,-3.9697,-3.9697,-3.9697,-3.9697,-3.9697,-3.9697,-3.9697,-3.9697,-3.9697,-3.9697,-3.9697,-3.9697,-3.9697,-3.9697,-3.9697,-3.9697,-1.4199,0.0,0.0,0.0,0.0,0.0,-1.9081,-1.9813,-2.0705,-2.3508,-2.4565,-2.5371,-2.6671,-2.8376,-2.9511,-2.9386,-3.0121,-3.0884,-3.1336,-3.1386,-3.1386,-3.1386,-3.1675,-3.1863,-3.1863,-3.2177,-3.2378,-3.2378,-3.2579,-3.2817,-3.3111,-3.3124,-3.3124,-3.3124,-3.3124,-3.3124,-3.3124,-3.3124,-3.3124,-3.3124,-3.3124,-3.3124,-3.3124,-3.3124,-3.3124,-3.3174,-3.4248,-3.468,-3.4813,-3.5952,-3.6405,-3.6405,-3.6405,-3.6405,-3.6405,-3.6405,-3.6908,-3.7575,-3.7889,-3.853,-3.927,-3.9584,-3.9697,-3.9697,-3.9697,-3.9697,-3.9697,-3.9697,-3.9697,-3.9697,-3.9697,-3.9697,-3.9697,-3.9697,-3.9697,-3.9697,-3.9697,-3.9697,-3.9697,-3.9697,-3.9697,-3.9697,-3.9697,-3.9697,-3.9697,-3.9697,-3.9697,-3.9697,-3.9697,-3.9697,-3.9697,-3.9697,-3.9697,-3.9697,-3.9697,-3.9697,-3.9697,-3.9697,-3.9697,-3.9697,-3.9697,-3.9697,-3.9697,-3.9697,-3.9697,-3.9697,-3.9697,-3.9697,-3.9697,-3.9697,-3.9697,-3.9362,-1.5175,-1.5234,0.0,0.0,-1.582,0.0,-1.9069,-1.8779,-1.8725,-2.207,-2.3179,-2.3627,-2.3881,-2.5949,-2.7303,-2.6391,-2.81,-2.9925,-3.1072,-3.121,-3.121,-3.121,-3.126,-3.1298,-3.1298,-3.1361,-3.1386,-3.1386,-3.1838,-3.2353,-3.2867,-3.2955,-3.298,-3.298,-3.3086,-3.3124,-3.3124,-3.3124,-3.3124,-3.3124,-3.3124,-3.3124,-3.3124,-3.3124,-3.3106,-3.3275,-3.4274,-3.4705,-3.4889,-3.5931,-3.6405,-3.6405,-3.6405,-3.6405,-3.6405,-3.6405,-3.7061,-3.8002,-3.8002,-3.8755,-3.9697,-3.9697,-3.9697,-3.9697,-3.9697,-3.9697,-3.9697,-3.9697,-3.9697,-3.9697,-3.9697,-3.9697,-3.9697,-3.9697,-3.9697,-3.9697,-3.9697,-3.9697,-3.9697,-3.9697,-3.9697,-3.9697,-3.9697,-3.9697,-3.9697,-3.9697,-3.9697,-3.9697,-3.9697,-3.9697,-3.9697,-3.9697,-3.9697,-3.9697,-3.9697,-3.9697,-3.9697,-3.9697,-3.9697,-3.9697,-3.9697,-3.9697,-3.9697,-3.9697,-3.953,-3.9362,-3.9193,-3.953,-3.9697,-3.9697,-3.9517,-3.8739,-1.5987,-1.6143,-1.6336,-1.5908,-1.6279,0.0,-1.5566,-1.5937,-1.6784,-1.7803,-1.8816,-2.0056,-2.1786,-2.3538,-2.4645,-2.4422,-2.6379,-2.8443,-2.9927,-3.0105,-3.0105,-3.0105,-3.0495,-3.0771,-3.0771,-3.1148,-3.1386,-3.1386,-3.1486,-3.1599,-3.1712,-3.2139,-3.239,-3.239,-3.283,-3.3124,-3.3124,-3.3124,-3.3124,-3.3124,-3.3124,-3.3124,-3.3124,-3.3124,-3.3319,-3.3771,-3.4437,-3.4931,-3.5395,-3.6094,-3.6405,-3.6405,-3.6405,-3.6405,-3.6405,-3.6405,-3.7061,-3.8002,-3.8002,-3.8755,-3.9697,-3.9697,-3.9697,-3.9697,-3.9697,-3.9697,-3.9697,-3.9697,-3.9697,-3.9697,-3.9697,-3.9697,-3.9697,-3.9697,-3.9697,-3.9697,-3.9697,-3.9697,-3.9697,-3.9697,-3.9697,-3.9697,-3.9697,-3.9697,-3.9697,-3.9697,-3.9697,-3.9697,-3.9697,-3.9697,-3.9697,-3.9697,-3.9697,-3.9697,-3.9697,-3.9697,-3.9697,-3.9697,-3.9697,-3.9697,-3.9697,-3.9697,-3.9697,-3.9697,-3.8518,-3.7358,-3.6174,-3.8542,-3.9697,-3.9697,-3.8465,-3.7796,-1.6995,-1.6885,-1.7051,-1.6989,0.0,0.0,0.0,-1.6211,-1.6467,-1.7734,-1.8111,-1.866,-2.0175,-2.1357,-2.2245,-2.2669,-2.5057,-2.6922,-2.7136,-2.8679,-2.9792,-2.9792,-3.0043,-3.0206,-3.0206,-3.0432,-3.0708,-3.0984,-3.0997,-3.1122,-3.1373,-3.165,-3.1926,-3.2202,-3.2491,-3.278,-3.3124,-3.3124,-3.3124,-3.3124,-3.3124,-3.3124,-3.3124,-3.3124,-3.3382,-3.3935,-3.4487,-3.4994,-3.5545,-3.6132,-3.6405,-3.6405,-3.6405,-3.6405,-3.6443,-3.6719,-3.7299,-3.8052,-3.8329,-3.8994,-3.9697,-3.9697,-3.9697,-3.9697,-3.9697,-3.9697,-3.9697,-3.9697,-3.9697,-3.9697,-3.9697,-3.9697,-3.9697,-3.9697,-3.9697,-3.9697,-3.9697,-3.9697,-3.9697,-3.9697,-3.9697,-3.9697,-3.9697,-3.9697,-3.9697,-3.9697,-3.9697,-3.9697,-3.9697,-3.9697,-3.9697,-3.9697,-3.9697,-3.9697,-3.9697,-3.9697,-3.9697,-3.9697,-3.9697,-3.9362,-3.8635,-3.8582,-3.8255,-3.7542,-3.6769,-3.6054,-3.5288,-3.6769,-3.7489,-3.7489,-3.6769,-3.5988,-1.8335,-1.8057,-1.8184,0.0,0.0,-1.667,0.0,0.0,0.0,-1.8159,-1.793,-1.7744,-1.8525,-1.9131,-1.9742,-2.0544,-2.3131,-2.4752,-2.3807,-2.6469,-2.8659,-2.9035,-2.9514,-2.9741,-2.9641,-2.9428,-2.9628,-3.0407,-3.0156,-3.0294,-3.1047,-3.1185,-3.1486,-3.2039,-3.2152,-3.2491,-3.3111,-3.3124,-3.3124,-3.3124,-3.3124,-3.3124,-3.3124,-3.3124,-3.3432,-3.4085,-3.4525,-3.5056,-3.5683,-3.6182,-3.6405,-3.6405,-3.6405,-3.6405,-3.6468,-3.6973,-3.7525,-3.809,-3.8668,-3.9233,-3.9697,-3.9697,-3.9697,-3.9697,-3.9697,-3.9697,-3.9697,-3.9697,-3.9697,-3.9697,-3.9697,-3.9697,-3.9697,-3.9697,-3.9697,-3.9697,-3.9697,-3.9697,-3.9697,-3.9697,-3.9697,-3.9697,-3.9697,-3.9697,-3.9697,-3.9697,-3.9697,-3.9697,-3.9697,-3.9697,-3.9697,-3.9697,-3.9697,-3.9697,-3.9697,-3.9697,-3.9697,-3.9697,-3.9413,-3.8739,-3.7571,-3.7252,-3.6379,-3.4902,-3.4902,-3.4748,-3.447,-3.447,-3.4748,-3.5288,-3.5013,-3.4236,0.0,0.0,0.0,0.0,-1.9043,0.0,0.0,0.0,-1.6897,-1.5596,0.0,-1.585,-1.6369,0.0,0.0,0.0,-1.9358,-2.0919,-2.0816,-2.2599,-2.4576,-2.6214,-2.8435,-2.9591,-2.9038,-2.8147,-2.821,-2.9767,-2.8499,-2.8335,-2.9892,-3.0432,-3.0947,-3.1461,-3.1951,-3.2491,-3.3111,-3.3124,-3.3124,-3.3124,-3.3124,-3.3124,-3.3124,-3.3124,-3.3646,-3.4625,-3.4655,-3.5316,-3.6317,-3.638,-3.6405,-3.6405,-3.6405,-3.6405,-3.6468,-3.6973,-3.7525,-3.809,-3.8668,-3.9233,-3.9697,-3.9697,-3.9697,-3.9697,-3.9697,-3.9697,-3.9697,-3.9697,-3.9697,-3.9697,-3.9697,-3.9697,-3.9697,-3.9697,-3.9697,-3.9697,-3.9697,-3.9697,-3.9697,-3.9697,-3.9697,-3.9697,-3.9697,-3.9697,-3.9697,-3.9697,-3.9697,-3.9697,-3.9697,-3.9697,-3.9697,-3.9697,-3.9697,-3.9697,-3.9697,-3.9697,-3.9697,-3.9697,-3.8465,-3.769,-3.7518,-3.6217,-3.4847,-3.335,-3.335,-3.2701,-3.1392,-3.1392,-3.2768,-3.5288,-3.3957,-3.3237,0.0,0.0,0.0,0.0,0.0,0.0,-1.6777,0.0,-1.6182,0.0,0.0,0.0,0.0,0.0,0.0,0.0,-1.8142,0.0,-1.8351,-2.0698,-2.296,-2.4213,-2.5504,-2.6717,-2.786,-2.7557,-2.7846,-2.9189,-2.8047,-2.7871,-2.9214,-2.9829,-3.0382,-3.0922,-3.1461,-3.2001,-3.2566,-3.2918,-3.3124,-3.3124,-3.3124,-3.3124,-3.3124,-3.3124,-3.3684,-3.468,-3.468,-3.5341,-3.6405,-3.6405,-3.6405,-3.6405,-3.6405,-3.6405,-3.6518,-3.7337,-3.7814,-3.814,-3.9032,-3.9496,-3.9697,-3.9697,-3.9697,-3.9697,-3.9697,-3.9697,-3.9697,-3.9697,-3.9697,-3.9697,-3.9697,-3.9697,-3.9697,-3.9697,-3.9697,-3.9697,-3.9697,-3.9697,-3.9697,-3.9697,-3.9697,-3.9697,-3.9697,-3.9697,-3.9697,-3.9697,-3.9697,-3.9697,-3.9697,-3.9697,-3.9697,-3.9697,-3.9697,-3.9697,-3.9697,-3.9697,-3.9697,-3.9697,-3.7489,-3.6217,-3.6217,-3.3979,-3.2436,-3.1825,-3.1825,-3.1488,-3.0889,-3.0889,-3.1556,-3.2711,-3.2102,-3.1825,-2.1445,0.0,0.0,0.0,0.0,0.0,0.0,0.0,0.0,0.0,0.0,0.0,0.0,0.0,0.0,0.0,0.0,-1.809,0.0,-1.8649,0.0,0.0,0.0,0.0,-2.6528,-2.6386,-2.6791,-2.836,-2.718,-2.713,-2.88,-2.9327,-2.988,-3.0595,-3.1122,-3.165,-3.2202,-3.278,-3.3124,-3.3124,-3.3124,-3.3124,-3.3124,-3.3124,-3.3684,-3.468,-3.468,-3.5341,-3.6405,-3.6405,-3.6405,-3.6405,-3.6405,-3.6505,-3.6744,-3.7651,-3.8103,-3.8379,-3.9358,-3.9697,-3.9697,-3.9697,-3.9697,-3.9697,-3.9697,-3.9697,-3.9697,-3.9697,-3.9697,-3.9697,-3.9697,-3.9697,-3.9697,-3.9697,-3.9697,-3.9697,-3.9697,-3.9697,-3.9697,-3.9697,-3.9697,-3.9697,-3.9697,-3.9697,-3.9697,-3.9697,-3.9697,-3.9697,-3.9697,-3.9697,-3.9697,-3.9697,-3.9697,-3.9697,-3.9697,-3.9697,-3.953,-3.9129,-3.6715,-3.5123,-3.4681,-3.2264,-3.0889,-3.0889,-3.0889,-3.0889,-3.0889,-3.0889,-3.0889,-3.0889,-3.0889,-3.0889,0.0,0.0,0.0,-1.9941,0.0,0.0,0.0,0.0,-1.7334,0.0,0.0,0.0,0.0,0.0,0.0,0.0,0.0,0.0,0.0,0.0,0.0,0.0,0.0,0.0,0.0,-2.4025,-2.4362,-2.713,-2.5335,-2.5523,-2.8712,-2.8913,-2.9427,-3.0583,-3.1122,-3.165,-3.2202,-3.278,-3.3124,-3.3124,-3.3124,-3.3124,-3.3124,-3.3124,-3.3684,-3.468,-3.468,-3.5341,-3.6405,-3.6405,-3.6405,-3.6405,-3.6405,-3.6732,-3.7224,-3.7801,-3.8366,-3.8931,-3.9496,-3.9697,-3.9697,-3.9697,-3.9697,-3.9697,-3.9697,-3.9697,-3.9697,-3.9697,-3.9697,-3.9697,-3.9697,-3.9697,-3.9697,-3.9697,-3.9697,-3.9697,-3.9697,-3.9697,-3.9697,-3.9697,-3.9697,-3.9697,-3.9697,-3.9697,-3.9697,-3.9697,-3.9697,-3.9697,-3.9697,-3.9697,-3.9697,-3.9697,-3.9697,-3.9697,-3.9697,-3.9697,-3.9077,-3.769,-3.6162,-3.4681,-3.3237,-3.171,-3.0889,-3.0889,-3.0889,-3.0889,-3.0889,-3.0889,-3.0889,-3.0889,-3.0889,-3.0889,0.0,0.0,-2.3867,-2.1582,0.0,0.0,0.0,0.0,0.0,0.0,0.0,0.0,0.0,0.0,0.0,0.0,0.0,0.0,0.0,0.0,0.0,0.0,0.0,0.0,0.0,-2.2513,-2.3614,-2.5515,-2.4958,-2.5661,-2.8247,-2.87,-2.9239,-3.0043,-3.0934,-3.1486,-3.1675,-3.2604,-3.3124,-3.3124,-3.3124,-3.3124,-3.3093,-3.3458,-3.4022,-3.4738,-3.5069,-3.568,-3.6405,-3.6405,-3.6405,-3.6405,-3.6405,-3.6923,-3.7751,-3.7939,-3.8366,-3.9007,-3.9496,-3.9697,-3.9697,-3.9697,-3.9697,-3.9697,-3.9697,-3.9697,-3.9697,-3.9697,-3.9697,-3.9697,-3.9697,-3.9697,-3.9697,-3.9697,-3.9697,-3.9697,-3.9697,-3.9697,-3.9697,-3.9697,-3.9697,-3.9697,-3.9697,-3.9697,-3.9697,-3.9697,-3.9697,-3.9697,-3.9697,-3.9697,-3.9697,-3.9697,-3.9697,-3.9697,-3.9697,-3.9697,-3.9478,-3.8973,-3.7583,-3.6097,-3.4626,-3.3134,-3.1883,-3.0889,-3.0889,-3.0889,-3.0889,-3.0889,-3.0889,-3.0889,-3.0889,-3.0889,-2.4414,-2.4619,0.0,-2.2568,-2.168,0.0,-1.874,0.0,-1.9316,0.0,0.0,0.0,0.0,0.0,0.0,0.0,0.0,0.0,0.0,-1.4082,0.0,0.0,0.0,0.0,0.0,-2.0984,-2.2249,-2.463,-2.4236,-2.5059,0.0,-2.8335,-2.8988,-2.9767,-3.0834,-3.1386,-3.1386,-3.2516,-3.3124,-3.3124,-3.3124,-3.3124,-3.3136,-3.3646,-3.4198,-3.4705,-3.5257,-3.5855,-3.6405,-3.6405,-3.6405,-3.643,-3.6619,-3.7211,-3.8002,-3.8002,-3.8504,-3.922,-3.9572,-3.9697,-3.9697,-3.9697,-3.9697,-3.9697,-3.9697,-3.9697,-3.9697,-3.9697,-3.9697,-3.9697,-3.9697,-3.9697,-3.9697,-3.9697,-3.9697,-3.9697,-3.9697,-3.9697,-3.9697,-3.9697,-3.9697,-3.9697,-3.9697,-3.9697,-3.9697,-3.9697,-3.9697,-3.9697,-3.9697,-3.9697,-3.9697,-3.9697,-3.9697,-3.9697,-3.9697,-3.9245,-3.8908,-3.8908,-3.7037,-3.5497,-3.457,-3.3088,-3.1872,-3.0889,-3.0889,-3.0889,-3.0889,-3.0889,-3.0889,-3.0889,-3.0889,-3.0889]},{"header":{"parameterUnit":"m.s-1","parameterCategory":1,"la1":30.6,"la2":29.2853,"lo1":-89.7004,"lo2":-87.6739,"dy":0.0162,"dx":0.0183,"nx":112,"ny":82,"refTime":"2026-02-28T00:00:00:Z","depth":0,"parameterNumber":3,"parameterNumberName":"V-component_of_WINDS"},"data":[0.0,0.0,0.0,0.0,0.0,0.0,0.0,0.0,0.0,0.0,0.0,0.0,0.0,0.0,0.0,0.0,0.0,0.0,0.0,0.0,0.0,0.0,0.0,0.0,0.0,0.0,0.0,0.0,0.0,0.0,0.0,0.0,0.0,0.0,0.0,0.0,0.0,0.0,0.0,0.0,0.0,0.0,0.0,0.0,0.0,0.0,0.0,0.0,0.0,0.0,0.0,0.0,0.0,0.0,0.0,0.0,0.0,0.0,0.0,0.0,0.0,0.0,0.0,0.0,0.0,0.0,0.0,0.0,0.0,0.0,0.0,0.0,0.0,0.0,0.0,0.0,0.0,0.0,0.0,0.0,0.0,0.0,0.0,0.0,0.0,0.0,0.0,0.0,0.0,0.0,1.4493,1.5887,1.782,1.9024,1.9024,1.9442,1.8897,1.6965,0.0,0.0,0.0,0.0,0.0,0.0,0.0,0.0,0.0,0.0,0.0,0.0,0.0,0.0,0.0,0.0,0.0,0.0,0.0,0.0,0.0,0.0,0.0,0.0,0.0,0.0,0.0,0.0,0.0,0.0,0.0,0.0,0.0,0.0,0.0,0.0,0.0,0.0,0.0,0.0,0.0,0.0,0.0,0.0,0.0,0.0,0.0,0.0,0.0,0.0,0.0,0.0,0.0,0.0,0.0,0.0,0.0,0.0,0.0,0.0,0.0,0.0,0.0,0.0,0.0,0.0,0.0,0.0,0.0,0.0,0.0,0.0,0.0,0.0,0.0,0.0,0.0,0.0,0.0,0.0,0.0,0.0,0.0,0.0,0.0,0.0,0.0,0.0,0.0,0.0,0.0,0.0,0.0,0.0,0.0,0.0,0.0,0.0,0.0,0.0,0.0,0.0,0.0,0.0,1.4926,1.8049,1.9086,1.9584,1.9584,1.9639,1.9076,1.7654,0.0,0.0,0.0,0.0,0.0,0.0,0.0,0.0,0.0,0.0,0.0,0.0,0.0,0.0,0.0,0.0,0.0,0.0,0.0,0.0,0.0,0.0,0.0,0.0,0.0,0.0,0.0,0.0,0.0,0.0,0.0,0.0,0.0,0.0,0.0,0.0,0.0,0.0,0.0,0.0,0.0,0.0,0.0,0.0,0.0,0.0,0.0,0.0,0.0,0.0,0.0,0.0,0.0,0.0,0.0,0.0,0.0,0.0,0.0,0.0,0.0,0.0,0.0,0.0,0.0,0.0,0.0,0.0,0.0,0.0,0.0,0.0,0.0,0.0,0.0,0.0,0.0,0.0,0.0,0.0,0.0,0.0,0.0,0.0,0.0,0.0,0.0,0.0,0.0,0.0,0.0,0.0,0.0,0.0,0.0,0.0,0.0,0.0,0.0,0.0,0.0,0.0,0.0,1.4801,1.6364,1.9053,1.9548,1.9708,1.9708,1.9708,1.9121,1.7772,1.5531,0.0,0.0,0.0,0.0,0.0,0.0,0.0,0.0,0.0,0.0,0.0,0.0,0.0,0.0,0.0,0.0,0.0,0.0,0.0,0.0,0.0,0.0,0.0,0.0,0.0,0.0,0.0,0.0,0.0,0.0,0.0,0.0,0.0,0.0,0.0,0.0,0.0,0.0,0.0,0.0,0.0,0.0,0.0,0.0,0.0,0.0,0.0,0.0,0.0,0.0,0.0,0.0,0.0,0.0,0.0,0.0,0.0,0.0,0.0,0.0,0.0,0.0,0.0,0.0,0.0,0.0,0.0,0.0,0.0,0.0,0.0,0.0,0.0,0.0,0.0,0.0,0.0,0.0,0.0,0.0,0.0,0.0,0.0,0.0,0.0,0.0,0.0,0.0,0.0,0.0,0.0,0.0,0.0,0.0,0.0,0.0,0.0,0.0,0.0,0.0,0.0,0.0,1.7084,1.7997,1.9543,1.9708,1.9708,1.9708,1.9405,1.8792,1.7773,1.4948,0.0,0.0,0.0,0.0,0.0,0.0,0.0,0.0,0.0,0.0,0.0,0.0,0.0,0.0,0.0,0.0,0.0,0.0,0.0,0.0,0.0,0.0,0.0,0.0,0.0,0.0,0.0,0.0,0.0,0.0,0.0,0.0,0.0,0.0,0.0,0.0,0.0,0.0,0.0,0.0,0.0,0.0,0.0,0.0,0.0,0.0,0.0,0.0,0.0,0.0,0.0,0.0,0.0,0.0,0.0,0.0,0.0,0.0,0.0,0.0,0.0,0.0,0.0,0.0,0.0,0.0,0.0,0.0,0.0,0.0,0.0,0.0,0.0,0.0,0.0,0.0,0.0,0.0,0.0,0.0,0.0,0.0,0.0,0.0,0.0,0.0,0.0,0.0,0.0,0.0,0.0,0.0,0.0,0.0,0.0,0.0,0.0,0.0,0.0,0.0,0.0,0.0,1.7999,1.9543,1.9693,1.9708,1.9708,1.9708,1.8568,1.7803,1.7713,1.4081,0.0,0.0,0.0,0.0,0.0,0.0,0.0,0.0,0.0,0.0,0.0,0.0,0.0,0.0,0.0,0.0,0.0,0.0,0.0,0.0,0.0,0.0,0.0,0.0,0.0,0.0,0.0,0.0,0.0,0.0,0.0,0.0,0.0,0.0,0.0,0.0,0.0,0.0,0.0,0.0,0.0,0.0,0.0,0.0,0.0,0.0,0.0,0.0,0.0,0.0,0.0,0.0,0.0,0.0,0.0,0.0,0.0,0.0,0.0,0.0,0.0,0.0,0.0,0.0,0.0,0.0,0.0,0.0,0.0,0.0,0.0,0.0,0.0,0.0,0.0,0.0,0.0,0.0,0.0,0.0,0.0,0.0,0.0,0.0,0.0,0.0,0.0,0.0,0.0,0.0,0.0,0.0,0.0,0.0,0.0,0.0,0.0,0.0,0.0,0.0,0.0,0.0,1.7341,1.8777,1.9618,1.9708,1.9708,1.9708,1.9226,1.8401,1.716,0.0,0.0,0.0,0.0,0.0,0.0,0.0,0.0,0.0,0.0,0.0,0.0,0.0,0.0,0.0,0.0,0.0,0.0,0.0,0.0,0.0,0.0,0.0,0.0,0.0,0.0,0.0,0.0,0.0,0.0,0.0,0.0,0.0,0.0,0.0,0.0,0.0,0.0,0.0,0.0,0.0,0.0,0.0,0.0,0.0,0.0,0.0,0.0,0.0,0.0,0.0,0.0,0.0,0.0,0.0,0.0,0.0,0.0,0.0,0.0,0.0,0.0,0.0,0.0,0.0,0.0,0.0,0.0,0.0,0.0,0.0,0.0,0.0,0.0,0.0,0.0,0.0,0.0,0.0,0.0,0.0,0.0,0.0,0.0,0.0,0.0,0.0,0.0,0.0,0.0,0.0,0.0,0.0,0.0,0.0,0.0,0.0,0.0,0.0,0.0,0.0,0.0,1.5514,1.7281,1.8687,1.9603,1.9708,1.9708,1.9708,1.9301,1.8386,1.6801,0.0,0.0,0.0,0.0,0.0,0.0,0.0,0.0,0.0,0.0,0.0,0.0,0.0,0.0,0.0,0.0,0.0,0.0,0.0,0.0,0.0,0.0,0.0,0.0,0.0,0.0,0.0,0.0,0.0,0.0,0.0,0.0,0.0,0.0,0.0,0.0,0.0,0.0,0.0,0.0,0.0,0.0,0.0,0.0,0.0,0.0,0.0,0.0,0.0,0.0,0.0,0.0,0.0,0.0,0.0,0.0,0.0,0.0,0.0,0.0,0.0,0.0,0.0,0.0,0.0,0.0,0.0,0.0,0.0,0.0,0.0,0.0,0.0,0.0,0.0,0.0,0.0,0.0,0.0,0.0,0.0,0.0,0.0,0.0,0.0,0.0,0.0,0.0,0.0,0.0,0.0,0.0,0.0,0.0,0.0,0.0,0.0,0.0,0.0,0.0,0.0,0.0,1.5634,1.8075,1.9708,1.9708,1.9708,1.9708,1.9708,1.8476,1.7428,0.0,0.0,0.0,0.0,0.0,0.0,0.0,0.0,0.0,0.0,0.0,0.0,0.0,0.0,0.0,0.0,0.0,0.0,0.0,0.0,0.0,0.0,0.0,0.0,0.0,0.0,0.0,0.0,0.0,0.0,0.0,0.0,0.0,0.0,0.0,0.0,0.0,0.0,0.0,0.0,0.0,0.0,0.0,0.0,0.0,0.0,0.0,0.0,0.0,0.0,0.0,0.0,0.0,0.0,0.0,0.0,0.0,0.0,0.0,0.0,0.0,0.0,0.0,0.0,0.0,0.0,0.0,0.0,0.0,0.0,0.0,0.0,0.0,0.0,0.0,0.0,0.0,0.0,0.0,0.0,0.0,0.0,0.0,0.0,0.0,0.0,0.0,0.0,0.0,0.0,0.0,0.0,0.0,0.0,0.0,0.0,0.0,0.0,0.0,0.0,0.0,0.0,0.0,1.5634,1.8075,1.9708,1.9708,1.9708,1.9708,1.9708,1.9348,1.8238,1.6189,0.0,0.0,0.0,0.0,0.0,0.0,0.0,0.0,0.0,0.0,0.0,0.0,0.0,0.0,0.0,0.0,0.0,0.0,0.0,0.0,0.0,0.0,0.0,0.0,0.0,0.0,0.0,0.0,0.0,0.0,0.0,0.0,0.0,0.0,0.0,0.0,0.0,0.0,0.0,0.0,0.0,0.0,0.0,0.0,0.0,0.0,0.0,0.0,0.0,0.0,0.0,0.0,0.0,0.0,0.0,0.0,0.0,0.0,0.0,0.0,0.0,0.0,0.0,0.0,0.0,0.0,0.0,0.0,0.0,0.0,0.0,0.0,0.0,0.0,0.0,0.0,0.0,0.0,0.0,0.0,0.0,0.0,0.0,0.0,0.0,0.0,0.0,0.0,0.0,0.0,0.0,0.0,0.0,0.0,0.0,0.0,0.0,0.0,0.0,0.0,0.0,0.0,1.5964,1.8223,1.9813,2.0064,1.9872,1.9813,2.0079,1.9839,1.8689,1.6308,0.0,0.0,0.0,0.0,0.0,0.0,0.0,0.0,0.0,0.0,0.0,0.0,0.0,0.0,0.0,0.0,0.0,0.0,0.0,0.0,0.0,0.0,0.0,0.0,0.0,0.0,0.0,0.0,0.0,0.0,0.0,0.0,0.0,0.0,0.0,0.0,0.0,0.0,0.0,0.0,0.0,0.0,0.0,0.0,0.0,0.0,0.0,0.0,0.0,0.0,0.0,0.0,0.0,0.0,0.0,0.0,0.0,0.0,0.0,0.0,0.0,0.0,0.0,0.0,0.0,0.0,0.0,0.0,0.0,0.0,0.0,0.0,0.0,0.0,0.0,0.0,0.0,0.0,0.0,0.0,0.0,0.0,0.0,0.0,0.0,0.0,0.0,0.0,0.0,0.0,0.0,0.0,0.0,0.0,0.0,0.0,0.0,0.0,0.0,0.0,0.0,0.0,1.6457,1.8506,2.0019,2.0628,2.0154,2.0034,2.0643,2.0094,1.8867,1.6921,0.0,0.0,0.0,0.0,0.0,0.0,0.0,0.0,0.0,0.0,0.0,0.0,0.0,0.0,0.0,0.0,0.0,0.0,0.0,0.0,0.0,0.0,0.0,0.0,0.0,0.0,0.0,0.0,0.0,0.0,0.0,0.0,0.0,0.0,0.0,0.0,0.0,0.0,0.0,0.0,0.0,0.0,0.0,0.0,0.0,0.0,0.0,0.0,0.0,0.0,0.0,0.0,0.0,0.0,0.0,0.0,0.0,0.0,0.0,0.0,1.9388,1.8341,0.0,0.0,0.0,0.0,0.0,0.0,0.0,0.0,0.0,0.0,0.0,0.0,0.0,0.0,0.0,0.0,0.0,0.0,0.0,0.0,0.0,0.0,0.0,0.0,0.0,0.0,0.0,0.0,0.0,0.0,0.0,0.0,0.0,0.0,0.0,0.0,0.0,0.0,0.0,0.0,1.6517,1.8924,2.0539,2.0673,2.0554,2.0539,2.0688,2.0094,1.9061,1.7594,1.6159,0.0,0.0,0.0,0.0,0.0,0.0,0.0,0.0,0.0,0.0,0.0,0.0,0.0,0.0,0.0,0.0,0.0,0.0,0.0,0.0,0.0,0.0,0.0,0.0,0.0,0.0,0.0,0.0,0.0,0.0,0.0,0.0,0.0,0.0,0.0,0.0,0.0,0.0,0.0,0.0,0.0,0.0,0.0,0.0,0.0,0.0,0.0,0.0,0.0,0.0,0.0,0.0,0.0,0.0,0.0,0.0,0.0,0.0,0.0,2.2488,2.1246,0.0,0.0,0.0,0.0,0.0,0.0,0.0,0.0,0.0,0.0,0.0,0.0,0.0,0.0,0.0,0.0,0.0,0.0,0.0,0.0,0.0,0.0,0.0,0.0,0.0,0.0,0.0,0.0,0.0,0.0,0.0,0.0,0.0,0.0,0.0,0.0,0.0,0.0,0.0,0.0,1.7399,1.9447,2.0942,2.159,2.138,2.1186,2.1186,2.0572,1.9615,1.8267,1.6951,0.0,0.0,0.0,0.0,0.0,0.0,0.0,0.0,0.0,0.0,0.0,0.0,0.0,0.0,0.0,0.0,0.0,0.0,0.0,0.0,0.0,0.0,0.0,0.0,0.0,0.0,0.0,0.0,0.0,0.0,0.0,0.0,0.0,0.0,0.0,0.0,0.0,0.0,0.0,0.0,0.0,0.0,0.0,0.0,0.0,0.0,0.0,0.0,0.0,0.0,0.0,0.0,0.0,2.7081,2.7739,2.8289,2.8289,2.8637,2.9131,2.6348,2.5151,2.4978,2.3266,0.0,0.0,0.0,0.0,0.0,0.0,0.0,0.0,0.0,0.0,0.0,0.0,0.0,0.0,0.0,0.0,0.0,0.0,0.0,0.0,0.0,0.0,1.969,2.0262,2.0797,2.0468,1.7746,0.0,0.0,0.0,0.0,0.0,0.0,0.0,0.0,0.0,0.0,0.0,1.8568,2.0154,2.147,2.2583,2.2209,2.1859,2.1859,2.1156,2.0225,1.9121,1.7787,1.6517,0.0,0.0,0.0,0.0,0.0,0.0,0.0,0.0,0.0,0.0,0.0,0.0,0.0,0.0,0.0,0.0,0.0,0.0,0.0,0.0,0.0,0.0,0.0,0.0,0.0,0.0,0.0,0.0,0.0,0.0,0.0,0.0,2.021,2.0285,0.0,0.0,0.0,0.0,0.0,0.0,0.0,0.0,0.0,0.0,0.0,0.0,0.0,2.5833,2.6063,2.7914,2.8918,2.9097,3.027,3.0898,3.0987,3.0987,3.1346,3.1973,3.1524,0.0,2.7151,2.6312,0.0,0.0,0.0,0.0,0.0,0.0,0.0,0.0,0.0,0.0,0.0,0.0,0.0,0.0,0.0,0.0,0.0,0.0,0.0,0.0,0.0,0.0,2.2981,2.3056,2.3146,2.3101,2.2667,1.9944,1.7294,1.6368,1.5367,1.4197,0.0,0.0,0.0,0.0,0.0,0.0,1.9361,2.125,2.2508,2.2673,2.2628,2.2568,2.2568,2.1425,2.0613,2.0449,1.9181,1.8087,1.7355,1.6099,0.0,0.0,0.0,0.0,0.0,0.0,0.0,0.0,0.0,0.0,0.0,0.0,0.0,0.0,0.0,0.0,0.0,0.0,0.0,0.0,0.0,0.0,0.0,0.0,0.0,0.0,0.0,0.0,0.0,2.0139,2.168,2.1321,2.2158,2.2113,0.0,0.0,0.0,0.0,0.0,0.0,0.0,0.0,0.0,2.6941,2.7839,2.8801,2.9909,3.0791,3.1599,3.2362,3.2916,3.3395,3.3769,3.3769,3.3918,3.4203,3.4203,3.3155,3.1314,2.9172,2.738,2.5854,0.0,0.0,0.0,0.0,2.3789,2.367,2.5076,2.5136,2.4492,2.4044,0.0,0.0,0.0,0.0,0.0,0.0,0.0,2.1714,2.3101,2.4103,2.4911,2.5683,2.5563,2.5285,2.5285,2.3319,2.1062,1.9298,1.8491,1.7341,1.4914,0.0,0.0,0.0,0.0,1.8864,2.0587,2.1924,2.2838,2.3182,2.3212,2.3077,2.2733,2.2164,2.15,2.0748,2.0135,1.9343,1.8311,1.7371,1.5934,0.0,0.0,0.0,0.0,0.0,0.0,0.0,0.0,0.0,0.0,0.0,0.0,0.0,0.0,0.0,0.0,0.0,0.0,0.0,0.0,0.0,0.0,0.0,0.0,0.0,0.0,0.0,0.0,2.1754,2.3176,2.2517,2.3879,2.4044,0.0,0.0,0.0,0.0,0.0,0.0,2.6557,2.741,2.8622,3.0283,3.0657,3.1539,3.3006,3.3185,3.3769,3.4773,3.4773,3.5011,3.5504,3.5504,3.5504,3.5504,3.5504,3.522,3.4548,3.1763,3.0103,2.919,2.7515,2.6767,2.6707,2.735,2.7275,2.7096,2.8771,2.8891,2.8214,2.7395,2.6757,2.5974,2.3849,0.0,0.0,0.0,0.0,2.411,2.5899,2.6378,2.6662,2.7839,2.7735,2.7375,2.7375,2.6318,2.4634,2.2168,2.1555,2.0557,1.7791,0.0,0.0,0.0,0.0,2.0064,2.1739,2.2538,2.3107,2.355,2.3595,2.3415,2.2972,2.2793,2.2283,2.1276,2.0882,2.024,1.9256,1.8565,1.7371,1.5575,0.0,0.0,0.0,0.0,0.0,0.0,0.0,0.0,0.0,0.0,0.0,0.0,0.0,0.0,0.0,0.0,0.0,0.0,0.0,0.0,0.0,0.0,0.0,0.0,0.0,0.0,0.0,0.0,0.0,2.453,2.6742,0.0,0.0,0.0,0.0,2.6303,2.7001,2.7989,2.9337,3.0569,3.1585,3.2318,3.3574,3.4309,3.4414,3.5026,3.5385,3.5444,3.5444,3.5474,3.5504,3.5504,3.5504,3.5504,3.5504,3.5489,3.534,3.3903,3.2542,3.1286,3.0552,2.9894,2.9487,3.0073,3.0283,3.0372,3.1092,3.0913,3.0447,3.1017,2.9941,2.8308,2.754,2.6393,0.0,0.0,2.6393,2.6707,2.8083,2.8442,2.8622,2.9337,2.9472,2.9457,2.9457,2.8408,2.6851,0.0,2.3887,2.3011,2.1635,0.0,2.1231,2.0583,2.1096,2.1814,2.2553,2.3176,2.3565,2.3595,2.3595,2.3595,2.355,2.3032,2.2673,2.2598,2.1395,2.0658,2.0598,1.9959,1.8957,1.7594,1.6308,0.0,0.0,0.0,0.0,0.0,0.0,0.0,0.0,0.0,0.0,0.0,0.0,0.0,0.0,0.0,0.0,0.0,0.0,0.0,0.0,0.0,0.0,0.0,0.0,0.0,0.0,0.0,0.0,2.7156,2.9104,0.0,2.7395,2.7784,2.8263,2.8513,2.952,3.0702,3.2033,3.2946,3.3933,3.504,3.5519,3.5953,3.6357,3.6611,3.6731,3.6731,3.6731,3.6731,3.6731,3.6731,3.6731,3.6701,3.6312,3.6133,3.6073,3.516,3.4247,3.3365,3.2691,3.2287,3.2138,3.2347,3.2422,3.2467,3.2706,3.2632,3.2407,3.2198,3.1376,3.0419,3.0193,2.9762,2.9448,2.9687,2.9445,2.9325,3.0225,3.0163,2.9998,3.0644,3.0492,3.0178,3.0178,2.9517,2.8678,2.7949,2.6228,2.4477,2.3146,2.3281,2.3334,2.2667,2.3125,2.3819,2.4477,2.4762,2.4896,2.4896,2.45,2.4231,2.4231,2.3655,2.2921,2.2119,2.1605,2.0961,2.0094,1.9828,1.9271,1.8356,1.7459,1.5845,0.0,0.0,0.0,0.0,0.0,0.0,0.0,0.0,0.0,0.0,0.0,0.0,0.0,0.0,0.0,0.0,0.0,0.0,0.0,0.0,0.0,0.0,0.0,0.0,0.0,2.6791,2.8727,2.919,3.1195,3.1749,2.9774,3.0387,3.1029,3.1254,3.2243,3.335,3.4442,3.5115,3.5878,3.6776,3.6791,3.7,3.7404,3.7404,3.7404,3.7404,3.7404,3.7404,3.7404,3.7404,3.7404,3.7389,3.6971,3.6791,3.6746,3.6103,3.5564,3.5117,3.4427,3.4173,3.4173,3.4173,3.4173,3.4173,3.4173,3.4023,3.3754,3.332,3.2736,3.2168,3.2168,3.2168,3.2168,3.2168,3.1869,3.1614,3.2049,3.1854,3.1569,3.178,3.1509,3.112,3.0896,3.0342,2.9894,2.9894,2.8113,2.6258,2.5136,2.5136,2.5061,2.4388,2.4634,2.5098,2.5555,2.5615,2.5615,2.5615,2.5187,2.4844,2.4634,2.4186,2.349,2.2413,2.1934,2.1291,2.0412,1.9947,1.9498,1.9046,1.8162,1.6637,1.4468,0.0,0.0,0.0,0.0,0.0,0.0,0.0,0.0,0.0,0.0,0.0,0.0,0.0,0.0,0.0,0.0,0.0,0.0,0.0,0.0,0.0,0.0,0.0,2.757,2.934,3.0612,3.0657,3.2976,3.3829,3.1869,3.2871,3.3888,3.4548,3.519,3.5848,3.6477,3.709,3.7419,3.7434,3.7434,3.7449,3.7464,3.7464,3.7464,3.7464,3.7464,3.7464,3.7464,3.7464,3.7464,3.7464,3.7449,3.7434,3.7389,3.6776,3.6507,3.6447,3.5774,3.5504,3.5504,3.5504,3.5504,3.5504,3.5504,3.507,3.4533,3.4533,3.4083,3.3559,3.3559,3.3559,3.3559,3.3559,3.3544,3.3529,3.3529,3.3514,3.3335,3.2706,3.2542,3.2333,3.1675,3.1017,3.0567,3.0537,2.952,2.8442,2.7779,2.7121,2.6437,2.5794,2.5689,0.0,2.5674,2.5674,2.5674,2.5674,2.5644,2.5375,2.4724,2.4634,2.4306,2.361,2.2383,2.168,2.1635,2.0397,1.9708,1.9708,1.8371,1.7071,1.5829,0.0,0.0,0.0,0.0,0.0,0.0,0.0,0.0,0.0,0.0,0.0,0.0,0.0,0.0,0.0,0.0,0.0,0.0,0.0,0.0,0.0,2.7215,2.8843,2.9022,3.1135,3.3036,3.4023,3.5594,3.6387,3.5816,3.6118,3.6402,3.6582,3.6776,3.6971,3.715,3.7315,3.7629,3.8108,3.8123,3.8362,3.8871,3.8871,3.8871,3.8871,3.8871,3.8871,3.8871,3.8871,3.8871,3.8805,3.8332,3.8123,3.8063,3.7419,3.715,3.7045,3.5938,3.5504,3.5504,3.5504,3.5504,3.5504,3.5504,3.5385,3.522,3.522,3.51,3.4951,3.4951,3.4951,3.4951,3.4951,3.4592,3.4234,3.4234,3.3844,3.344,3.3275,3.323,3.3036,3.2363,3.2064,3.1824,3.1316,3.0567,2.9774,2.9172,2.8487,2.7993,2.7799,2.735,0.0,2.7061,2.7061,2.7061,2.7061,2.6626,2.6243,2.6063,2.5158,2.4126,2.3017,2.2158,2.1261,2.0292,1.9902,1.9708,1.9708,1.8371,1.7295,0.0,0.0,0.0,0.0,0.0,0.0,0.0,0.0,0.0,0.0,0.0,0.0,0.0,0.0,0.0,0.0,0.0,0.0,0.0,0.0,0.0,0.0,3.0148,3.1763,3.2018,3.338,3.4816,3.6148,3.6956,3.7404,3.7404,3.7404,3.7404,3.7404,3.7659,3.7823,3.7823,3.8093,3.8437,3.8811,3.8826,3.902,3.9388,3.9388,3.9388,3.9388,3.9388,3.9388,3.9388,3.9388,3.9388,3.9394,3.899,3.8826,3.8766,3.8093,3.7823,3.7689,0.0,0.0,0.0,0.0,3.5504,3.5504,3.5504,3.5504,3.5504,3.5504,3.5504,3.5504,3.5504,3.5504,3.5504,3.5504,3.522,3.4906,3.4906,3.4622,3.4262,3.3978,3.3903,3.3724,3.3066,3.2931,3.2736,3.2049,3.1585,0.0,3.0507,2.9624,2.9011,2.9011,2.8693,2.8349,2.8064,2.8034,2.7914,2.763,2.7255,2.6911,2.6617,2.563,0.0,0.0,0.0,2.1515,2.0168,2.0124,0.0,0.0,0.0,0.0,0.0,0.0,0.0,0.0,1.6562,1.6144,0.0,0.0,0.0,0.0,0.0,0.0,0.0,0.0,0.0,0.0,0.0,0.0,0.0,0.0,0.0,0.0,3.2946,3.4908,3.5714,3.5833,3.6252,3.7389,3.7584,3.7644,3.7644,3.7644,3.7644,3.7644,3.8182,3.8497,3.8497,3.9095,0.0,0.0,0.0,3.9574,3.9634,3.9649,3.9649,3.9649,3.9649,3.9604,3.9493,3.9493,3.9448,3.9388,3.9388,3.9388,3.9328,3.8751,3.8467,3.8272,3.706,3.6596,3.6507,3.5863,3.5609,3.5609,3.5534,0.0,0.0,3.5504,3.5504,3.5504,3.5504,3.5504,3.5504,3.5504,3.5504,3.5504,3.5504,3.5504,3.5355,3.4741,3.4623,3.4444,3.3754,3.3604,3.341,3.2751,3.2557,3.2303,3.172,3.0552,2.9711,2.9711,2.9651,2.9397,2.8786,2.8712,2.8442,2.7779,0.0,0.0,2.6752,2.6093,2.5435,2.4754,2.3505,2.2254,2.0991,2.0932,2.0932,2.0932,2.0932,2.1261,2.1904,2.1904,2.1904,2.1829,1.8165,1.7387,0.0,0.0,0.0,0.0,0.0,0.0,0.0,0.0,0.0,0.0,0.0,0.0,0.0,0.0,0.0,3.2572,3.4262,3.5893,3.7599,3.7838,3.7928,3.8167,3.8691,3.9,3.9,3.9,3.9,3.9,3.9155,3.923,3.923,3.9313,3.9664,4.0187,4.0217,4.0472,4.0995,4.0995,4.0995,4.0995,4.0995,0.0,4.0217,4.0217,3.9918,3.9388,3.9388,3.9388,3.9373,3.9275,3.8901,3.8317,3.7539,3.724,3.715,3.6522,3.6297,3.6222,3.5684,3.5504,3.5504,3.5504,3.5504,3.5504,3.5504,3.5504,0.0,3.5504,3.5504,3.5504,3.5504,3.5504,3.5474,3.534,3.531,3.5115,3.4459,3.4324,3.4098,3.344,3.2886,3.2452,3.2318,3.121,3.0328,3.0328,2.9909,2.9562,2.94,2.9427,2.9157,2.8472,2.8412,2.8128,2.7465,2.6806,2.6123,2.5442,2.4163,2.3086,2.2343,2.2313,2.2313,2.2313,2.2313,2.2628,2.3236,2.3236,2.3236,2.3191,2.138,2.0752,0.0,0.0,0.0,0.0,0.0,0.0,0.0,0.0,0.0,0.0,0.0,2.8098,2.9744,0.0,3.2766,3.5085,3.6297,3.7285,3.8257,3.8691,3.8901,3.8901,3.9215,3.9388,3.9388,3.9388,3.9388,3.9388,3.9723,3.9903,3.9903,4.0217,4.0546,4.0876,4.0891,4.1055,4.1422,4.1422,4.1422,4.1422,4.1422,4.1205,4.0891,4.0891,4.0531,3.9903,3.9903,3.9723,3.9388,3.9388,3.9215,3.8871,3.8542,3.8003,3.7375,3.706,3.6941,3.6896,3.6567,3.6252,3.5998,3.5998,3.5774,3.5504,3.5504,3.5504,3.5504,3.5504,3.5504,3.5504,3.5504,3.5504,3.5504,3.5504,3.5504,3.5415,3.507,3.4996,3.4786,3.4113,3.3724,3.3395,3.3066,3.2183,3.1405,3.1032,3.0746,3.0432,3.0088,3.0043,2.9804,2.916,2.9086,2.8951,2.8633,2.769,2.6662,2.5674,2.4971,2.4328,2.3684,2.3655,2.3655,2.3655,2.3655,2.3969,2.4597,2.4597,2.4597,2.4597,2.3954,2.3475,0.0,0.0,0.0,0.0,0.0,0.0,0.0,2.6635,2.7302,2.8006,2.9101,3.0627,3.2871,3.3814,3.4996,3.724,3.8153,3.8586,3.8586,3.917,3.9574,3.9439,3.9388,3.9388,3.9388,3.9388,3.9433,3.9568,4.0098,4.0457,4.0591,4.11,4.1482,4.1602,4.1564,4.1624,4.1758,4.1758,4.1758,4.1758,4.1758,4.1698,4.1564,4.1564,4.1205,4.0591,4.0457,4.0098,3.9568,3.9433,3.9388,3.9388,3.9388,3.8751,3.7778,3.7644,3.7599,3.7584,3.7464,3.709,3.6671,3.6671,3.6222,3.5699,3.5699,3.5609,3.5504,3.5504,3.5504,3.5504,3.5504,3.5504,3.5504,3.5504,3.5504,3.5504,3.5504,3.5504,3.534,3.4786,3.4593,3.4339,3.3784,3.314,3.2482,3.1795,3.1585,3.1301,3.0748,3.0702,3.0462,2.9846,2.9759,2.9741,2.9621,2.8618,2.754,2.6452,2.6378,2.6093,2.5397,2.5382,2.5382,2.5382,2.5247,2.5576,2.6378,2.6258,2.6258,2.6378,2.6378,2.5824,2.7206,2.5955,2.5907,2.7363,2.7128,2.756,0.0,3.1206,3.0698,3.3126,3.4203,3.4996,3.5878,3.6552,3.7255,3.8138,3.8856,3.9305,3.9305,3.9873,4.0068,3.9448,3.9388,3.9388,3.9388,3.9388,3.9664,4.0247,4.0367,4.0651,4.125,4.1339,4.1692,4.2276,4.2291,4.2536,4.3065,4.308,4.308,4.308,4.308,4.2821,4.2291,4.2291,4.1931,4.1235,4.0651,4.0367,4.0247,3.9664,3.9388,3.9388,3.9388,3.9334,3.911,3.8512,3.8287,3.8197,3.7614,3.736,3.73,3.73,3.6881,3.6372,3.6372,3.5968,3.5504,3.5504,3.5504,3.5504,3.5504,3.5504,3.5504,3.5504,3.5504,3.5504,3.5504,3.5504,3.5489,3.54,3.4906,3.4488,3.4414,3.3829,3.3155,3.2497,3.1884,3.1481,3.1406,3.1391,3.1122,3.0477,3.0402,3.0178,2.9651,2.9472,2.9322,2.9172,2.9157,2.8846,2.8188,2.8158,2.8158,2.8158,2.7585,2.7899,2.9157,2.8547,2.8562,2.9157,2.9157,2.7829,2.9946,2.9238,2.9022,2.9033,2.9831,3.1016,3.2572,3.3185,3.3844,3.534,3.6163,3.6821,3.7464,3.7808,3.8197,3.8871,3.9544,3.9858,3.9433,3.9993,4.0008,3.8945,3.917,3.9388,3.9388,3.9388,3.9694,4.0352,4.0756,4.125,4.1961,4.2312,4.2641,4.291,4.2925,4.3045,4.329,4.329,4.329,4.329,4.329,4.3155,4.2925,4.2925,4.2566,4.1946,4.125,4.0965,4.095,4.0666,4.0337,3.9993,3.9993,3.9753,3.9394,3.9095,3.899,3.8945,3.8676,3.8317,3.7973,3.7973,3.7539,3.703,3.703,3.6836,3.6537,3.6178,3.6073,3.5983,3.5609,3.5504,3.5504,3.5504,3.5504,3.5504,3.5504,3.5504,3.5504,3.5504,3.5265,3.507,3.507,3.4517,3.3978,3.3694,3.3095,3.2512,3.2123,3.2079,3.1824,3.1137,3.1077,3.0808,3.0178,3.0118,2.9968,2.9636,2.9606,2.9487,2.9175,2.9175,2.9175,2.9175,2.8918,2.9037,2.9606,2.9337,2.9337,2.9606,2.9606,2.9007,3.1197,3.1361,3.16,3.0851,3.2512,3.4233,3.3933,3.4996,3.6207,3.6881,3.736,3.7883,3.8556,3.8676,3.8841,3.9298,4.0127,4.0382,3.9508,3.9993,3.9903,3.8556,3.8676,3.8931,3.9125,3.9305,3.9768,4.0606,4.1115,4.1782,4.2581,4.3075,4.329,4.329,4.329,4.329,4.329,4.329,4.329,4.329,4.329,4.329,4.329,4.329,4.3075,4.2596,4.1976,4.1692,4.1677,4.1497,4.11,4.0666,4.0666,4.0382,3.9933,3.9753,3.9574,3.9388,3.9388,3.9095,3.8676,3.8676,3.8212,3.7689,3.7689,3.7554,3.7315,3.6866,3.6746,3.6626,3.6148,3.5908,3.5774,3.5774,3.5639,3.5504,3.5504,3.5504,3.5504,3.5504,3.5504,3.5504,3.5504,3.51,3.4788,3.4788,3.4352,3.3739,3.2901,3.2781,3.2602,3.2093,3.1884,3.157,3.1106,3.0896,3.0597,3.0148,3.0118,3.0118,3.0118,3.0118,3.0118,3.0118,2.9939,2.9924,3.0118,2.9924,2.9939,3.0118,3.0118,3.0118,2.9998,3.1031,3.2632,3.323,3.4906,3.6552,3.712,3.73,3.7539,3.8197,3.8347,3.8571,3.926,3.9394,3.9394,3.9388,4.0502,4.0905,3.9604,3.9993,3.9903,3.8556,3.7838,3.7719,3.8362,3.9035,3.9963,4.125,4.1407,4.1938,4.32,4.329,4.329,4.329,4.329,4.329,4.329,4.329,4.329,4.329,4.329,4.329,4.329,4.329,4.329,4.323,4.2611,4.2366,4.2321,4.1677,4.1407,4.1354,4.1354,4.1339,4.125,4.0606,3.9963,3.9388,3.9388,3.9373,3.9394,3.9394,3.8931,3.8362,3.8362,3.7913,3.7404,3.7389,3.7375,3.7375,3.736,3.6911,3.6462,3.6462,3.5968,3.5504,3.5504,3.5504,3.5504,3.5504,3.5504,3.5504,3.5504,3.5489,3.5474,3.5474,3.5459,3.4966,3.3634,3.3469,3.3455,3.344,3.2871,3.2452,3.2452,3.1839,3.1466,3.1451,3.1451,3.1451,3.1451,3.1451,3.1451,3.1451,3.0806,3.0806,3.1451,3.0806,3.0821,3.1451,3.1451,3.1451,3.2063,3.2976,3.4083,3.5205,3.6626,3.7808,3.8018,3.8422,3.8676,3.8437,3.8392,3.8317,3.8123,3.8078,3.8227,3.8661,3.9858,4.0427,3.9544,4.0367,4.0232,3.8003,3.7928,3.7973,3.7764,3.8332,3.929,4.0636,4.113,4.1758,4.2641,4.309,4.329,4.329,4.329,4.329,4.329,4.329,4.329,4.329,4.329,4.329,4.329,4.329,4.329,4.329,4.3105,4.3015,4.2985,4.2761,4.2417,4.2066,4.2066,4.1796,4.1354,4.113,4.0905,4.0591,3.9723,3.9388,3.9388,3.9388,3.926,3.9065,3.9065,3.8916,3.8646,3.8182,3.8063,3.7958,3.7524,3.7255,3.7,3.6582,3.6312,3.6028,3.5609,3.5504,3.5504,3.5504,3.5504,3.5504,3.5504,3.5504,3.5504,3.5504,3.5115,3.4651,3.4234,3.3769,3.3499,3.3499,3.3305,3.3155,3.3155,3.2961,3.2841,3.2841,3.2841,3.2841,3.2841,3.2841,3.2841,3.2841,3.2183,3.1958,3.2153,3.1481,3.1496,3.2153,3.2153,3.2153,3.3484,3.4533,3.5552,3.6836,3.7958,3.8751,3.8751,3.8916,3.8931,3.8482,3.8033,3.7584,3.7165,3.6881,3.7015,3.7898,3.917,3.9903,3.9448,4.0352,4.0217,3.8018,3.7928,3.7958,3.7778,3.8138,3.8945,4.0292,4.101,4.1707,4.2366,4.297,4.329,4.329,4.329,4.329,4.329,4.329,4.329,4.329,4.329,4.329,4.329,4.329,4.329,4.329,4.329,4.329,4.329,4.329,4.309,4.2701,4.2701,4.2447,4.2043,4.1818,4.1767,4.1587,4.0232,3.9768,3.9723,3.9499,3.9388,3.9388,3.9388,3.9388,3.9334,3.8886,3.8751,3.8661,3.8242,3.7943,3.7659,3.7255,3.6985,3.6641,3.5998,3.5863,3.5789,3.5549,3.5504,3.5504,3.5504,3.5504,3.5504,3.5504,3.513,3.4846,3.4846,3.4472,3.4218,3.4218,3.3993,3.3844,3.3844,3.3634,3.3499,3.3499,3.3499,3.3499,3.3499,3.3499,3.3499,3.3499,3.308,3.2871,3.2871,3.2407,3.2452,3.2871,3.2871,3.2871,3.4339,3.5672,3.6941,3.8182,3.899,3.9418,3.9343,3.8856,3.8347,3.8212,3.7225,3.6342,3.6207,3.5759,3.5804,3.706,3.8437,3.9394,3.9454,4.0008,3.9933,3.8646,3.7913,3.7778,3.8422,3.8497,3.9035,4.0352,4.1025,4.1707,4.2366,4.297,4.329,4.329,4.329,4.329,4.329,4.329,4.329,4.329,4.329,4.329,4.329,4.329,4.329,4.329,4.329,4.329,4.329,4.329,4.329,4.329,4.329,4.329,4.3215,4.2641,4.2455,4.2276,4.095,4.0472,4.0337,3.9694,3.9433,3.9433,3.9388,3.9388,3.9388,3.9388,3.9388,3.9388,3.9388,3.8931,3.8437,3.8407,3.7913,3.7285,3.6671,3.6537,3.6342,3.5684,3.5534,3.5504,3.5504,3.5504,3.5504,3.5504,3.5504,3.5504,3.5504,3.5504,3.5504,3.5504,3.4921,3.4563,3.4563,3.3963,3.3604,3.3604,3.3604,3.3604,3.3604,3.3604,3.3604,3.3604,3.3559,3.3544,3.3544,3.3514,3.3514,3.3544,3.3544,3.3544,3.6776,3.8018,3.8871,3.9679,4.0023,3.9888,3.8871,3.8512,3.7838,3.5911,3.5252,3.4414,3.2392,3.311,3.4277,3.51,3.715,3.9005,4.0008,4.0292,4.0277,3.9933,3.9305,3.917,3.9828,3.9888,4.0232,4.107,4.128,4.1707,4.2366,4.297,4.329,4.329,4.329,4.329,4.329,4.329,4.329,4.329,4.329,4.329,4.329,4.329,4.329,4.329,4.329,4.329,4.329,4.329,4.329,4.329,4.329,4.329,4.3275,4.315,4.309,4.297,4.2147,4.1572,4.1025,4.0367,4.0157,4.0053,3.9574,3.9388,3.9388,3.9388,3.9388,3.9388,3.9388,3.9254,3.9035,3.8512,3.8257,3.7958,3.7315,3.718,3.6985,3.6357,3.5833,3.5504,3.5504,3.5504,3.5504,3.5504,3.5504,3.5504,3.5504,3.5504,3.5504,3.5504,3.5355,3.525,3.525,3.51,3.4996,3.4996,3.4996,3.4996,3.4996,3.4996,3.4996,3.4996,3.4487,3.4264,3.4218,3.3724,3.3754,3.4264,3.4264,3.4264,3.8362,3.9544,4.0307,4.0382,4.0187,3.9544,3.7928,3.709,3.6013,3.3664,3.2736,3.1808,2.9998,3.1046,3.2587,3.3874,3.6252,3.8527,4.0172,4.0651,4.0831,4.0831,4.0502,4.0427,4.0786,4.0831,4.11,4.1796,4.1856,4.2006,4.2381,4.297,4.329,4.329,4.329,4.329,4.329,4.329,4.329,4.329,4.329,4.329,4.329,4.329,4.329,4.329,4.329,4.329,4.329,4.329,4.329,4.329,4.329,4.329,4.329,4.329,4.329,4.3245,4.291,4.2551,4.2087,4.113,4.0831,4.0756,4.0382,4.0083,3.9843,3.9843,3.9649,3.9388,3.9388,3.9388,3.932,3.8931,3.8841,3.8661,3.7973,3.7838,3.7644,3.7015,3.6596,3.6252,3.5983,3.5938,3.5833,3.5549,3.5504,3.5504,3.5504,3.5504,3.5504,3.5504,3.5504,3.5504,3.5504,3.5504,3.5504,3.5504,3.5504,3.5504,3.5504,3.5504,3.5504,3.5504,3.513,3.4921,3.4921,3.4562,3.4562,3.4921,3.4921,3.4921,3.9469,4.0576,4.1354,4.0696,4.0038,3.899,3.6851,3.5342,3.3739,3.1555,3.0178,2.9112,2.8338,2.94,3.1031,3.3036,3.5564,3.8018,4.0113,4.0891,4.1309,4.1527,4.1504,4.1549,4.1624,4.1639,4.1878,4.2485,4.253,4.253,4.253,4.303,4.329,4.329,4.329,4.329,4.329,4.329,4.329,4.329,4.329,4.329,4.329,4.329,4.329,4.329,4.329,4.329,4.329,4.329,4.329,4.329,4.329,4.329,4.329,4.329,4.329,4.329,4.329,4.329,4.308,4.1908,4.1504,4.1527,4.1452,4.098,4.0531,4.0531,4.0113,3.9627,3.9574,3.9508,3.9493,3.9403,3.9388,3.926,3.8661,3.8452,3.8227,3.7659,3.7464,3.724,3.6701,3.6611,3.6387,3.5729,3.5639,3.5609,3.5519,3.5504,3.5504,3.5504,3.5504,3.5504,3.5504,3.5504,3.5504,3.5504,3.5504,3.5504,3.5504,3.5504,3.5504,3.5504,3.5504,3.5504,3.5504,3.5504,3.5504,3.5504,3.5504,3.5504,4.0711,4.1647,4.2066,4.1369,4.0711,3.9439,3.6372,3.4637,0.0,2.9744,2.8472,2.7585,2.6348,2.8113,3.0387,3.2362,3.4921,3.7524,4.0053,4.0502,4.0965,4.2096,4.2231,4.2402,4.2901,4.2961,4.3006,4.3125,4.3125,4.3125,4.3125,4.323,4.329,4.329,4.329,4.329,4.329,4.329,4.329,4.329,4.329,4.329,4.329,4.329,4.329,4.329,4.329,4.329,4.329,4.329,4.329,4.329,4.329,4.329,4.329,4.329,4.329,4.329,4.329,4.329,4.317,4.2447,4.2231,4.2126,4.1587,4.1309,4.1205,4.1205,4.113,4.092,4.0367,4.0232,4.0098,3.9508,3.9388,3.9394,3.9275,3.8796,3.8362,3.8242,3.7778,3.7375,3.727,3.724,3.7045,3.6417,3.6312,3.6118,3.5579,3.5504,3.5504,3.5504,3.5504,3.5504,3.5504,3.5504,3.5504,3.5504,3.5504,3.5504,3.5504,3.5504,3.5504,3.5504,3.5504,3.5504,3.5504,3.5504,3.5504,3.5504,3.5504,3.5504,4.1115,4.2102,4.2626,4.1624,4.0621,3.8856,3.4861,0.0,0.0,2.6811,2.6019,2.5644,2.4328,2.6551,2.9097,3.0717,3.2916,3.5579,3.8886,3.9349,4.0098,4.2156,4.2671,4.2985,4.326,4.329,4.329,4.329,4.329,4.329,4.329,4.329,4.329,4.329,4.329,4.329,4.329,4.329,4.329,4.329,4.329,4.329,4.329,4.329,4.329,4.329,4.329,4.329,4.329,4.329,4.329,4.329,4.329,4.329,4.329,4.329,4.329,4.329,4.329,4.329,4.3245,4.297,4.2865,4.2806,4.2491,4.2162,4.1931,4.1931,4.1692,4.1347,4.0995,4.0905,4.0831,4.0516,4.0172,3.9828,3.9499,3.9155,3.8931,3.8931,3.8676,3.8332,3.7973,3.7913,3.7704,3.706,3.6971,3.6731,3.6103,3.6013,3.5893,3.5549,3.5504,3.5504,3.5504,3.5504,3.5504,3.5504,3.5504,3.5504,3.5504,3.5504,3.5504,3.5504,3.5504,3.5504,3.5504,3.5504,3.5504,3.5504,3.5504,3.5504,4.0995,4.2028,4.2626,4.1459,4.0172,3.8018,3.3499,3.1255,0.0,2.4492,2.3804,2.3752,2.3032,2.5129,2.754,0.0,3.1225,3.3799,3.7464,3.8467,3.9649,4.1931,4.2851,0.0,4.329,4.329,4.329,4.329,4.329,4.329,4.329,4.329,4.329,4.329,4.329,4.329,4.329,4.329,4.329,4.329,4.329,4.329,4.329,4.329,4.329,4.329,4.329,4.329,4.329,4.329,4.329,4.329,4.329,4.329,4.329,4.329,4.329,4.329,4.329,4.329,4.329,4.329,4.329,4.329,4.329,4.297,4.2605,4.2605,4.2192,4.1773,4.1662,4.1632,4.1587,4.1414,4.0995,4.0427,3.9768,3.9634,3.9553,3.9454,3.9388,3.9245,3.8706,3.8601,3.8392,3.7719,3.7614,3.7389,3.6761,3.6686,3.6492,3.5968,3.5669,3.5504,3.5504,3.5504,3.5504,3.5504,3.5504,3.5504,3.5504,3.5504,3.5504,3.5504,3.5504,3.5504,3.5504,3.5504,3.5504,3.5504,3.5504,3.5504,4.0307,4.101,4.1384,4.0666,3.9469,3.7434,3.3425,0.0,2.7784,2.4313,2.2727,2.2278,2.3325,2.4246,0.0,0.0,0.0,3.3484,3.6267,3.8721,4.0531,4.1407,0.0,0.0,4.329,4.329,4.329,4.329,4.329,4.329,4.329,4.329,4.329,4.329,4.329,4.329,4.329,4.329,4.329,4.329,4.329,4.329,4.329,4.329,4.329,4.329,4.329,4.329,4.329,4.329,4.329,4.329,4.329,4.329,4.329,4.329,4.329,4.329,4.329,4.329,4.329,4.329,4.329,4.329,4.329,4.3245,4.32,4.32,4.3155,4.3015,4.247,4.2306,4.2156,4.1519,4.1324,4.1115,4.0442,4.0307,4.0127,3.9529,3.9388,3.9394,3.9298,3.9334,3.9095,3.8407,3.8302,3.8063,3.7404,3.733,3.73,3.724,3.6193,3.5504,3.5504,3.5504,3.5504,3.5504,3.5504,3.5504,3.5504,3.5504,3.5504,3.5504,3.5504,3.5504,3.5504,3.5504,3.5504,3.5504,3.5504,3.5504,3.9514,4.0576,4.113,4.0068,3.8796,3.6656,3.2302,2.9579,2.6956,2.3221,2.2054,2.1844,2.2353,2.331,2.4837,2.7365,0.0,0.0,3.308,3.5085,3.7075,3.932,4.11,4.2476,4.3215,4.329,4.329,4.329,4.329,4.329,4.329,4.329,4.329,4.329,4.329,4.329,4.329,4.329,4.329,4.329,4.329,4.329,4.329,4.329,4.329,4.329,4.329,4.329,4.329,4.329,4.329,4.329,4.329,4.329,4.329,4.329,4.329,4.329,4.329,4.329,4.329,4.329,4.329,4.329,4.329,4.329,4.329,4.329,4.329,4.323,4.3015,4.294,4.2776,4.2171,4.2006,4.1826,4.113,4.0681,4.0322,4.0053,3.9694,3.9388,3.9388,3.9388,3.9334,3.905,3.9005,3.8766,3.8093,3.8003,3.7853,3.7449,3.6956,3.6507,3.6133,3.6088,3.5923,3.5534,3.5504,3.5504,3.5504,3.5504,3.5504,3.5504,3.5504,3.5504,3.5504,3.5504,3.5504,3.5504,3.5504,3.5504,3.8646,3.9649,4.0038,3.929,3.7973,3.5729,3.1465,2.8831,2.6252,2.2458,2.138,2.1216,2.162,2.2428,2.3744,2.5944,0.0,2.8038,3.1331,3.3125,3.516,3.8048,3.9813,4.1324,4.2626,4.3065,4.329,4.329,4.329,4.329,4.329,4.329,4.329,4.329,4.329,4.329,4.329,4.329,4.329,4.329,4.329,4.329,4.329,4.329,4.329,4.329,4.329,4.329,4.329,4.329,4.329,4.329,4.329,4.329,4.329,4.329,4.329,4.329,4.329,4.329,4.329,4.329,4.329,4.329,4.329,4.329,4.329,4.329,4.329,4.329,4.329,4.329,4.317,4.2761,4.2656,4.25,4.1856,4.1309,4.092,4.0726,4.0307,3.9933,3.9738,3.9709,3.9649,3.9454,3.9388,3.9245,3.8751,3.8691,3.8512,3.8048,3.8003,3.7659,3.6836,3.6761,3.6567,3.6103,3.5893,3.5804,3.5804,3.5609,3.5504,3.5504,3.5504,3.5504,3.5504,3.5504,3.5504,3.5504,3.5504,3.5504,3.7689,3.7943,3.7599,3.8242,3.6941,3.4651,3.127,2.8472,2.5674,2.2383,2.0632,2.0127,2.1455,2.171,2.2577,2.5196,2.6707,0.0,3.2048,3.4233,3.6207,3.8167,3.9005,3.9963,4.1265,4.2566,4.329,4.329,4.329,4.329,4.329,4.329,4.329,4.329,4.329,4.329,4.329,4.329,4.329,4.329,4.329,4.329,4.329,4.329,4.329,4.329,4.329,4.329,4.329,4.329,4.329,4.329,4.329,4.329,4.329,4.329,4.329,4.329,4.329,4.329,4.329,4.329,4.329,4.329,4.329,4.329,4.329,4.329,4.329,4.329,4.329,4.329,4.329,4.329,4.329,4.315,4.253,4.2381,4.2186,4.1527,4.1369,4.1145,4.0502,4.0382,4.0172,3.9514,3.9388,3.9388,3.9373,3.9373,3.9373,3.9394,3.9394,3.8856,3.7509,3.7404,3.7404,3.7389,3.6821,3.6477,3.6477,3.5848,3.5504,3.5504,3.5504,3.5504,3.5504,3.5504,3.5504,3.5504,3.5504,3.5504,3.4143,3.522,3.5833,3.4666,3.3574,3.2004,2.916,2.6811,2.4567,2.2188,2.0636,2.0112,2.144,2.1695,2.2868,2.6402,2.733,2.8603,3.1421,3.3559,3.5534,3.7494,4.0307,4.2213,4.2671,4.305,4.329,4.329,4.329,4.329,4.329,4.329,4.329,4.329,4.329,4.329,4.329,4.329,4.329,4.329,4.329,4.329,4.329,4.329,4.329,4.329,4.329,4.329,4.329,4.329,4.329,4.329,4.329,4.329,4.329,4.329,4.329,4.329,4.329,4.329,4.329,4.329,4.329,4.329,4.329,4.329,4.329,4.329,4.329,4.329,4.329,4.329,4.329,4.329,4.329,4.3245,4.3075,4.2671,4.2336,4.2126,4.1722,4.1309,4.1115,4.107,4.0846,4.0187,4.0083,3.9933,3.9448,3.9388,3.9388,3.9388,3.9388,3.905,3.8153,3.8078,3.7883,3.7434,3.7225,3.712,3.712,3.6911,3.6806,3.6806,3.6806,3.6806,3.6806,3.6387,3.5953,3.5504,3.5504,3.5504,3.1705,3.302,3.3769,3.2766,3.1644,3.0223,2.8094,2.5839,2.3738,2.2054,2.0636,2.0019,2.1126,2.1321,2.2368,2.5578,2.6288,2.756,3.0673,3.2647,3.4741,3.7464,4.0621,4.2596,4.2596,4.3006,4.329,4.329,4.329,4.329,4.329,4.329,4.329,4.329,4.329,4.329,4.329,4.329,4.329,4.329,4.329,4.329,4.329,4.329,4.329,4.329,4.329,4.329,0.0,4.329,4.329,4.329,4.329,4.329,4.329,4.329,4.329,4.329,4.329,4.329,4.329,4.329,4.329,4.329,4.329,4.329,4.329,4.329,4.329,4.329,4.329,4.329,4.329,4.329,4.329,4.329,4.329,4.3015,4.2731,4.2731,4.2402,4.2043,4.1826,4.1796,4.1572,4.0876,4.0771,4.0531,3.9873,3.9783,3.9694,3.9454,3.9388,3.9245,3.8811,3.8781,3.8601,3.8197,3.7928,3.7778,3.7778,3.7539,3.7404,3.7404,3.7404,3.7404,3.7404,3.7015,3.6626,3.6222,3.6222,3.6222,0.0,3.1047,3.1346,3.1898,3.0657,2.8992,2.769,2.5398,0.0,2.1949,2.0636,1.9962,2.0748,2.0823,2.1465,2.361,2.447,2.6234,3.0103,3.2003,3.4397,3.8167,4.0322,4.1519,4.1519,4.2626,4.329,4.329,4.329,4.329,4.329,4.329,4.329,4.329,4.329,4.329,4.329,4.329,4.329,4.329,4.329,4.329,4.329,4.329,4.329,4.329,4.329,4.329,4.329,4.329,4.329,4.329,4.329,4.329,4.329,4.329,4.329,4.329,4.329,4.329,4.329,4.329,4.329,4.329,4.329,4.329,4.329,4.329,4.329,4.329,4.329,4.329,4.329,4.329,4.329,4.329,4.329,4.329,4.329,4.329,4.329,4.3135,4.2575,4.247,4.2246,4.1587,4.1444,4.1205,4.0561,4.0472,4.0232,3.9634,3.9559,3.9508,3.9499,3.9454,3.9388,3.9388,3.8811,3.8467,3.8467,3.7883,3.7554,3.7554,3.7554,3.7524,3.7479,3.7479,3.7464,3.7404,3.7404,3.7404,2.453,0.0,2.8293,2.7455,2.6886,2.6333,0.0,2.4059,2.2688,2.1859,2.0636,2.0367,2.2517,2.2128,2.2772,2.6782,2.756,2.8697,3.1629,3.537,3.8512,4.0442,4.1983,4.2826,4.2826,4.311,4.329,4.329,4.329,4.329,4.329,4.329,4.329,4.329,4.329,4.329,4.329,4.329,4.329,4.329,4.329,4.329,4.329,4.329,4.329,4.329,4.329,4.329,4.329,4.329,4.329,4.329,4.329,4.329,4.329,4.329,4.329,4.329,4.329,4.329,4.329,4.329,4.329,4.329,4.329,4.329,4.329,4.329,4.329,4.329,4.329,4.329,4.329,4.329,4.329,4.329,4.329,4.329,4.329,4.329,4.329,4.3245,4.3135,4.3105,4.288,4.2276,4.2171,4.1931,4.1235,4.1145,4.1085,4.0935,4.092,4.0711,4.0217,3.9709,3.9388,3.9388,3.9275,3.917,3.917,3.9,3.8945,3.8945,3.8945,3.8691,3.8153,3.8153,3.7898,3.7404,3.7404,3.7404,2.1784,2.4163,2.6497,2.5794,2.5375,2.5053,2.4694,2.3125,2.168,2.1321,2.0408,2.0232,2.1949,2.2203,2.3161,2.6249,2.7799,2.9939,3.3799,3.727,4.0023,4.1677,4.2716,4.329,4.329,4.329,4.329,4.329,4.329,4.329,4.329,4.329,4.329,4.329,4.329,4.329,4.329,4.329,4.329,4.329,4.329,4.329,4.329,4.329,4.329,4.329,4.329,4.329,4.329,4.329,4.329,4.329,4.329,4.329,4.329,4.329,4.329,4.329,4.329,4.329,4.329,4.329,4.329,4.329,4.329,4.329,4.329,4.329,4.329,4.329,4.329,4.329,4.329,4.329,4.329,4.329,4.329,4.329,4.329,4.329,4.329,4.329,4.329,4.329,4.317,4.2865,4.2806,4.2566,4.1946,4.1871,4.1752,4.1414,4.1422,4.1235,4.0876,4.0531,4.0068,3.9454,3.9388,3.9388,3.9388,3.9388,3.9388,3.9388,3.9388,3.923,3.8856,3.8856,3.8676,3.8332,3.8332,3.8332,2.1017,2.3266,2.5397,2.5211,2.4874,2.4575,2.447,2.2661,2.1021,2.1021,2.0468,2.0337,2.1391,2.2443,2.3655,2.5232,2.7679,3.1046,3.5938,3.8332,4.0262,4.2171,4.294,4.329,4.329,4.329,4.329,4.329,4.329,4.329,4.329,4.329,4.329,4.329,4.329,4.329,4.329,4.329,4.329,4.329,4.329,4.329,4.329,4.329,4.329,4.329,4.329,4.329,4.329,4.329,4.329,4.329,4.329,4.329,4.329,4.329,4.329,4.329,4.329,4.329,4.329,4.329,4.329,4.329,4.329,4.329,4.329,4.329,4.329,4.329,4.329,4.329,4.329,4.329,4.329,4.329,4.329,4.329,4.329,4.329,4.329,4.329,4.329,4.329,4.329,4.329,4.329,4.3135,4.262,4.2545,4.2336,4.1743,4.1683,4.1639,4.1572,4.1572,4.101,3.9798,3.9634,3.9493,3.9388,3.9388,3.9388,3.9388,3.9388,3.9388,3.9388,3.9388,3.9388,3.9388,3.9388,3.9388,2.2547,2.3954,2.4485,2.3422,2.3879,2.4455,2.3879,2.3041,2.2388,2.2388,2.1864,2.2263,2.5151,2.5405,2.6138,2.9116,3.1375,3.3799,3.6851,3.899,4.0771,4.2231,4.294,4.329,4.329,4.329,4.329,4.329,4.329,4.329,4.329,4.329,4.329,4.329,4.329,4.329,4.329,4.329,4.329,4.329,4.329,4.329,4.329,4.329,4.329,4.329,4.329,4.329,4.329,4.329,4.329,4.329,4.329,4.329,4.329,4.329,4.329,4.329,4.329,4.329,4.329,4.329,4.329,4.329,4.329,4.329,4.329,4.329,4.329,4.329,4.329,4.329,4.329,4.329,4.329,4.329,4.329,4.329,4.329,4.329,4.329,4.329,4.329,4.329,4.329,4.329,4.329,4.326,4.3155,4.314,4.311,4.3006,4.2991,4.2806,4.2291,4.2246,4.1931,4.113,4.0561,3.9993,3.9403,3.9388,3.9388,3.9388,3.9388,3.9388,3.9388,3.9388,3.9388,3.9388,3.9388,3.9388,2.1492,2.2692,2.3505,2.3236,2.4702,2.6048,2.536,2.4732,2.4268,2.4268,2.4014,2.4492,2.6731,2.7495,2.8951,3.2617,3.4562,3.6402,3.8706,4.0127,4.1414,4.2731,4.315,4.329,4.329,4.329,4.329,4.329,4.329,4.329,4.329,4.329,4.329,4.329,4.329,4.329,4.329,4.329,4.329,4.329,4.329,4.329,4.329,4.329,4.329,4.329,4.329,4.329,4.329,4.329,4.329,4.329,4.329,4.329,4.329,4.329,4.329,4.329,4.329,4.329,4.329,4.329,4.3544,4.3828,4.3828,4.4107,4.4392,4.4392,4.4137,4.3738,4.3379,4.3559,4.3738,4.3379,4.329,4.329,4.329,4.329,4.329,4.329,4.329,4.329,4.329,4.329,4.329,4.329,4.329,4.329,4.329,4.329,4.329,4.329,4.329,4.317,4.291,4.2895,4.2462,4.1482,4.11,4.0786,4.0487,4.0472,4.0472,4.0472,4.0127,3.9948,3.9948,3.9589,3.9388,3.9388,3.9388,3.9388,2.1605,2.2393,2.3284,2.4103,2.56,2.6941,2.7036,2.6422,2.5974,2.6437,2.6542,2.6946,2.8263,2.9876,3.2018,3.522,3.6941,3.8467,4.0157,4.11,4.2043,4.3155,4.329,4.329,4.329,4.329,4.329,4.329,4.329,4.329,4.329,4.329,4.329,4.329,4.329,4.329,4.329,4.329,4.329,4.329,4.329,4.329,4.329,4.329,4.329,4.329,4.329,4.329,4.329,4.329,4.329,4.329,4.329,4.329,4.329,4.329,4.329,4.329,4.329,4.3394,4.3529,4.3529,4.4003,4.4541,4.4541,4.4885,4.5289,4.5289,4.505,4.4631,4.3917,4.4167,4.4407,4.3873,4.3753,4.3753,4.3753,4.3753,4.3753,4.3753,4.3753,4.3753,4.3753,4.3753,4.3753,4.3753,4.3753,4.3693,4.3544,4.3529,4.3469,4.3305,4.329,4.329,4.329,4.329,4.2871,4.1908,4.1698,4.1572,4.1384,4.1422,4.1422,4.1422,4.0891,4.0621,4.0621,4.0127,3.9873,3.9873,3.9873,3.9873,2.5493,2.5132,2.4529,2.6017,2.56,2.5457,2.7904,2.7455,2.7076,2.8933,2.9322,2.9699,3.0972,3.3319,3.537,3.6267,3.8018,3.9529,4.0292,4.1527,4.259,4.32,4.329,4.329,4.329,4.329,4.329,4.329,4.329,4.329,4.329,4.329,4.329,4.329,4.329,4.329,4.329,4.329,4.329,4.329,4.329,4.329,4.329,4.329,4.329,4.329,4.329,4.329,4.329,4.329,4.329,4.329,4.329,4.329,4.329,4.329,4.329,4.329,4.329,4.3693,4.4242,4.4242,4.4691,4.5229,4.5229,4.5259,4.5289,4.5289,4.5723,4.6022,4.5334,4.5185,4.5214,4.517,4.5155,4.5155,4.5155,4.5155,4.5155,4.5155,4.5155,4.5155,4.5155,4.5155,4.5155,4.5155,4.5155,4.493,4.4332,4.4242,4.4003,4.3364,4.329,4.329,4.329,4.329,4.3245,4.3155,4.2626,4.2051,4.1452,4.1422,4.1422,4.1422,4.1324,4.1347,4.1347,4.1265,4.1272,4.1272,4.1272,4.1272,2.4289,2.4675,2.5093,2.5792,2.6856,2.7964,2.8981,3.0088,3.121,3.2407,3.2976,3.3425,3.3918,3.5474,3.6761,3.7015,3.908,4.0726,4.098,4.2147,4.3045,4.326,4.329,4.329,4.329,4.329,4.329,4.329,4.329,4.329,4.329,4.329,4.329,4.329,4.329,4.329,4.329,4.329,4.329,4.329,4.329,4.329,4.329,4.329,4.329,4.329,4.329,4.329,4.329,4.329,4.329,4.329,4.329,4.329,4.329,4.329,4.329,4.329,4.329,4.3723,4.4317,4.4317,4.505,4.5933,4.5933,4.6217,4.6546,4.6546,4.6741,4.6681,4.5574,4.5618,4.5828,4.5394,4.5289,4.5289,4.5289,4.5289,4.5289,4.5289,4.5289,4.5289,4.5289,4.5289,4.5289,4.5289,4.5289,4.5214,4.4945,4.493,4.4825,4.4586,4.4182,4.3738,4.3334,4.329,4.329,4.329,4.3105,4.2851,4.2611,4.2596,4.2596,4.2596,4.2192,4.2036,4.2036,4.1617,4.1422,4.1422,4.1422,4.1422,2.4332,2.4546,2.5167,2.6009,2.774,2.9577,3.0582,3.2213,3.3799,3.4923,3.5489,3.5818,3.5818,3.6686,3.7479,3.7689,3.9783,4.1444,4.1707,4.2641,4.329,4.329,4.329,4.329,4.329,4.329,4.329,4.329,4.329,4.329,4.329,4.329,4.329,4.329,4.329,4.329,4.329,4.329,4.329,4.329,4.329,4.329,4.329,4.329,4.329,4.329,4.329,4.329,4.329,4.329,4.329,4.329,4.329,4.329,4.329,4.329,4.329,4.3319,4.3529,4.4062,4.4661,4.487,4.5723,4.6636,4.6636,4.695,4.7309,4.7309,4.7309,4.71,4.6172,4.6277,4.6516,4.6037,4.5933,4.5933,4.5933,4.5933,4.5933,4.5933,4.5933,4.5933,4.5933,4.5933,4.5933,4.5933,4.5933,4.5858,4.5648,4.5618,4.5529,4.5319,4.4706,4.4122,4.3633,4.3409,4.329,4.329,4.329,4.329,4.329,4.329,4.329,4.329,4.2895,4.2671,4.2671,4.2222,4.1998,4.1998,4.1998,4.1998,2.6445,2.5218,2.4827,2.6969,2.8088,2.9505,3.2766,3.3514,3.4098,3.6103,3.6507,3.6507,3.6507,3.7,3.7629,3.8287,4.0083,4.1647,4.2306,4.2925,4.329,4.329,4.329,4.329,4.329,4.329,4.329,4.329,4.329,4.329,4.329,4.329,4.329,4.329,4.329,4.329,4.329,4.329,4.329,4.329,4.329,4.329,4.329,4.329,4.329,4.329,4.329,4.329,4.329,4.329,4.329,4.329,4.329,4.329,4.329,4.329,4.329,4.3379,4.4077,4.4736,4.5409,4.6097,4.677,4.7309,4.7309,4.7309,4.7309,4.7309,4.7309,4.7309,4.7309,4.7309,4.7309,4.7309,4.7309,4.7309,4.7309,4.7309,4.7309,4.7309,4.7309,4.7309,4.7309,4.7309,4.7309,4.7309,4.7309,4.707,4.6369,4.6294,4.6067,4.5379,4.4721,4.4332,4.4332,4.3678,4.3305,4.3305,4.3305,4.3305,4.329,4.329,4.329,4.329,4.329,4.329,4.329,4.329,4.329,4.329,4.329,4.329,2.5589,2.5511,2.611,2.7728,3.0095,3.2542,3.4472,3.5265,3.6163,3.8138,3.8153,3.7823,3.7823,3.7973,3.8317,3.9005,4.0397,4.1647,4.2306,4.2925,4.329,4.329,4.329,4.329,4.329,4.329,4.329,4.329,4.329,4.329,4.329,4.329,4.329,4.329,4.329,4.329,4.329,4.329,4.329,4.329,4.329,4.329,4.329,4.329,4.329,4.329,4.329,4.329,4.329,4.329,4.329,4.329,4.329,4.329,4.329,4.329,4.329,4.3319,4.3514,4.4362,4.5334,4.5529,4.6381,4.7309,4.7309,4.7309,4.7309,4.7309,4.7309,4.7309,4.7309,4.7309,4.7309,4.7309,4.7309,4.7309,4.7309,4.7309,4.7309,4.7309,4.7309,4.7309,4.7309,4.7309,4.7309,4.7309,4.7309,4.7234,4.704,4.701,4.6756,4.6097,4.5843,4.5529,4.505,4.4825,4.4511,4.4007,4.4018,4.3768,4.3319,4.329,4.329,4.329,4.329,4.329,4.329,4.329,4.329,4.329,4.329,4.329,2.6913,2.7284,2.8173,3.064,3.2625,3.4455,3.6229,3.6956,3.7659,3.911,3.8871,3.8392,3.8392,3.8392,3.8616,3.9305,4.0307,4.1347,4.2276,4.2476,4.2656,4.291,4.2716,4.2551,4.2551,4.2551,4.2551,4.2551,4.2551,4.2551,4.2551,4.2551,4.2551,4.2551,4.2551,4.2551,4.2551,4.2821,4.294,4.2955,4.317,4.329,4.329,4.329,4.329,4.329,4.329,4.329,4.329,4.329,4.329,4.329,4.329,4.329,4.329,4.329,4.329,4.3334,4.3589,4.4407,4.5334,4.5618,4.6426,4.7309,4.7309,4.7309,4.7309,4.7309,4.7309,4.7309,4.7309,4.7309,4.7309,4.7309,4.7309,4.7309,4.7309,4.7309,4.7309,4.7309,4.7309,4.7309,4.7309,4.7309,4.7309,4.7309,4.7309,4.7309,4.7309,4.7309,4.716,4.6756,4.6444,4.6157,4.5738,4.5454,4.5125,4.4721,4.4706,4.4526,4.4122,4.3574,4.329,4.329,4.329,4.329,4.329,4.329,4.329,4.329,4.329,4.329,2.9332,2.9712,3.0474,3.4595,3.5336,3.566,3.7895,3.8437,3.8661,3.9254,3.8916,3.8482,3.8482,3.8482,3.8706,3.9394,4.0008,4.0846,4.2126,4.1796,4.1647,4.2246,4.1782,4.1422,4.1422,4.1422,4.1422,4.1422,4.1422,4.1422,4.1422,4.1422,4.1422,4.1422,4.1422,4.1422,4.1422,4.2006,4.2306,4.2321,4.2865,4.314,4.32,4.326,4.329,4.329,4.329,4.329,4.329,4.329,4.329,4.329,4.329,4.329,4.329,4.329,4.329,4.3379,4.4018,4.4691,4.5394,4.6022,4.6711,4.7309,4.7309,4.7309,4.7309,4.7309,4.7309,4.7309,4.7309,4.7309,4.7309,4.7309,4.7309,4.7309,4.7309,4.7309,4.7309,4.7309,4.7309,4.7309,4.7309,4.7309,4.7309,4.7309,4.7309,4.7309,4.7309,4.7309,4.7309,4.7309,4.677,4.6369,4.6369,4.5843,4.5454,4.5394,4.5394,4.5364,4.5289,4.4092,4.3379,4.3379,4.3319,4.329,4.329,4.329,4.329,4.329,4.329,4.329,2.7937,2.8903,3.0564,3.4595,3.6704,3.786,3.8301,3.8811,3.9245,3.9394,3.9305,3.92,3.92,3.92,3.9409,4.0083,4.0307,4.0681,4.1512,4.1512,4.1467,4.1617,4.1512,4.1422,4.1422,4.1422,4.1422,4.1422,4.1422,4.1422,4.1422,4.1422,4.1422,4.1422,4.1422,4.1422,4.1422,4.1557,4.1632,4.1632,4.1728,4.2073,4.262,4.309,4.329,4.329,4.329,4.329,4.329,4.329,4.329,4.329,4.329,4.329,4.329,4.329,4.329,4.3319,4.3454,4.4317,4.5319,4.5469,4.6322,4.7309,4.7309,4.7309,4.7309,4.7309,4.7309,4.7309,4.7309,4.7309,4.7309,4.7309,4.7309,4.7309,4.7309,4.7309,4.7309,4.7309,4.7309,4.7309,4.7309,4.7309,4.7309,4.7309,4.7309,4.7309,4.7309,4.7309,4.7309,4.7309,4.7174,4.71,4.71,4.695,4.6651,4.6142,4.6055,4.5858,4.5319,4.4526,4.4067,4.4067,4.3559,4.329,4.329,4.329,4.329,4.329,4.329,4.329,2.8683,3.0396,3.2434,3.6572,3.8394,3.9134,3.8913,3.9155,3.9388,3.9388,3.9388,3.9388,3.9388,3.9388,3.9493,3.9873,3.9933,4.0157,4.0816,4.0636,4.0561,4.0876,4.0636,4.0442,4.0442,4.0442,4.0442,4.0442,4.0442,4.0442,4.0442,4.0442,4.0442,4.0442,4.0442,4.0442,4.0442,4.0756,4.0905,4.092,4.1235,4.1767,4.2425,4.303,4.329,4.329,4.329,4.329,4.329,4.329,4.329,4.329,4.329,4.329,4.329,4.329,4.329,4.329,4.329,4.4197,4.5289,4.5289,4.6202,4.7309,4.7309,4.7309,4.7309,4.7309,4.7309,4.7309,4.7309,4.7309,4.7309,4.7309,4.7309,4.7309,4.7309,4.7309,4.7309,4.7309,4.7309,4.7309,4.7309,4.7309,4.7309,4.7309,4.7309,4.7309,4.7309,4.7309,4.7309,4.7309,4.7309,4.7309,4.7309,4.7309,4.716,4.6815,4.68,4.6636,4.6277,4.5618,4.5125,4.4796,4.4137,4.3768,4.3768,4.3454,4.329,4.329,4.329,4.329,2.933,3.207,3.4722,3.8647,3.973,3.9692,3.932,3.9298,3.9388,3.9388,3.9388,3.9388,3.9388,3.9388,3.9388,3.9388,3.9388,3.9604,4.0157,3.9768,3.9619,4.0172,3.9753,3.9388,3.9388,3.9388,3.9388,3.9388,3.9388,3.9388,3.9388,3.9388,3.9388,3.9388,3.9388,3.9388,3.9388,3.9963,4.0232,4.0247,4.0905,4.1527,4.2081,4.2701,4.308,4.329,4.329,4.329,4.329,4.329,4.329,4.329,4.329,4.329,4.329,4.329,4.329,4.329,4.329,4.4197,4.5289,4.5289,4.6202,4.7309,4.7309,4.7309,4.7309,4.7309,4.7309,4.7309,4.7309,4.7309,4.7309,4.7309,4.7309,4.7309,4.7309,4.7309,4.7309,4.7309,4.7309,4.7309,4.7309,4.7309,4.7309,4.7309,4.7309,4.7309,4.7309,4.7309,4.7309,4.7309,4.7309,4.7309,4.7309,4.7309,4.7309,4.7309,4.7309,4.7309,4.7309,4.6785,4.6217,4.5648,4.487,4.4481,4.4481,4.3783,4.3469,4.3469,4.3349,4.329,2.6776,3.1224,3.5877,3.8334,3.9363,3.9582,3.8715,3.899,3.9388,3.9388,3.9388,3.9388,3.9388,3.9388,3.9388,3.9388,3.9388,3.9418,3.9508,3.9448,3.9418,3.9508,3.9433,3.9388,3.9388,3.9388,3.9388,3.9388,3.9388,3.9388,3.9388,3.9388,3.9388,3.9388,3.9388,3.9388,3.9388,3.9514,3.9508,3.9559,4.0217,4.0576,4.0681,4.1339,4.2267,4.329,4.329,4.329,4.329,4.329,4.329,4.329,4.329,4.329,4.329,4.329,4.329,4.329,4.329,4.4197,4.5289,4.5289,4.6202,4.7309,4.7309,4.7309,4.7309,4.7309,4.7309,4.7309,4.7309,4.7309,4.7309,4.7309,4.7309,4.7309,4.7309,4.7309,4.7309,4.7309,4.7309,4.7309,4.7309,4.7309,4.7309,4.7309,4.7309,4.7309,4.7309,4.7309,4.7309,4.7309,4.7309,4.7309,4.7309,4.7309,4.7309,4.7309,4.7309,4.7309,4.7309,4.7219,4.713,4.704,4.5798,4.517,4.5155,4.4496,4.4182,4.4167,4.3559,4.329,2.8756,3.2357,3.5709,3.8689,3.9323,3.9105,3.8624,3.8681,3.8841,3.8841,3.9155,3.9388,3.9388,3.9388,3.9388,3.9388,3.9388,3.9388,3.9388,3.9388,3.9388,3.9388,3.9388,3.9388,3.9388,3.9388,3.9388,3.9388,3.9388,3.9388,3.9388,3.9388,3.9388,3.9388,3.9388,3.9388,3.9388,3.9388,3.9388,3.9388,3.9709,4.0053,4.0412,4.0696,4.1549,4.2791,4.2791,4.3,4.329,4.329,4.329,4.329,4.329,4.329,4.329,4.329,4.329,4.329,4.329,4.4197,4.5289,4.5289,4.6202,4.7309,4.7309,4.7309,4.7309,4.7309,4.7309,4.7309,4.7309,4.7309,4.7309,4.7309,4.7309,4.7309,4.7309,4.7309,4.7309,4.7309,4.7309,4.7309,4.7309,4.7309,4.7309,4.7309,4.7309,4.7309,4.7309,4.7309,4.7309,4.7309,4.7309,4.7309,4.7309,4.7309,4.7309,4.7309,4.7309,4.7309,4.7309,4.7309,4.7309,4.7309,4.6352,4.5873,4.5873,4.52,4.487,4.4855,4.4571,4.4436,2.9467,3.1972,3.3977,3.7619,3.8359,3.8261,3.8339,3.8409,3.8446,3.8432,3.8958,3.945,3.9415,3.9388,3.9388,3.9388,3.9388,3.9388,3.9388,3.9388,3.9388,3.9388,3.9388,3.9388,3.9388,3.9388,3.9388,3.9388,3.9388,3.9388,3.9388,3.9388,3.9388,3.9388,3.9388,3.9388,3.9388,3.9388,3.9388,3.9388,3.9388,3.9679,4.0157,4.0157,4.0771,4.1916,4.2246,4.2641,4.309,4.323,4.329,4.329,4.329,4.329,4.329,4.329,4.329,4.3319,4.3484,4.4332,4.5334,4.5499,4.6352,4.7309,4.7309,4.7309,4.7309,4.7309,4.7309,4.7309,4.7309,4.7309,4.7309,4.7309,4.7309,4.7309,4.7309,4.7309,4.7309,4.7309,4.7309,4.7309,4.7309,4.7309,4.7309,4.7309,4.7309,4.7309,4.7309,4.7309,4.7309,4.7309,4.7309,4.7309,4.7309,4.7309,4.7309,4.7309,4.7309,4.7309,4.7309,4.7309,4.7309,4.7309,4.683,4.6576,4.6576,4.5888,4.5559,4.5559,4.5379,4.5289,2.615,2.8113,3.0157,3.3848,3.5705,3.6809,3.7484,3.813,3.853,3.8432,3.9036,3.9538,3.9433,3.9388,3.9388,3.9388,3.9388,3.9388,3.9388,3.9388,3.9388,3.9388,3.9388,3.9388,3.9388,3.9388,3.9388,3.9388,3.9388,3.9388,3.9388,3.9388,3.9388,3.9388,3.9388,3.9388,3.9388,3.9388,3.9388,3.9388,3.9388,3.9439,3.9433,3.9433,3.9843,4.0561,4.1856,4.2425,4.25,4.3075,4.329,4.329,4.329,4.329,4.329,4.329,4.329,4.3379,4.4047,4.4721,4.5394,4.6052,4.6741,4.7309,4.7309,4.7309,4.7309,4.7309,4.7309,4.7309,4.7309,4.7309,4.7309,4.7309,4.7309,4.7309,4.7309,4.7309,4.7309,4.7309,4.7309,4.7309,4.7309,4.7309,4.7309,4.7309,4.7309,4.7309,4.7309,4.7309,4.7309,4.7309,4.7309,4.7309,4.7309,4.7309,4.7309,4.7309,4.7309,4.7309,4.7309,4.7309,4.7309,4.7309,4.7279,4.7249,4.7249,4.6591,4.6277,4.6204,4.5603,4.5289,2.6015,2.7452,2.9139,3.2873,3.4113,3.4773,3.6029,3.6801,3.7234,3.7188,3.7703,3.8288,3.8702,3.9125,3.9388,3.9388,3.9388,3.9388,3.9388,3.9388,3.9388,3.9388,3.9388,3.9388,3.9388,3.9388,3.9388,3.9388,3.9388,3.9388,3.9388,3.9388,3.9388,3.9388,3.9388,3.9388,3.9388,3.9388,3.9388,3.9388,3.9388,3.9388,3.9388,3.9388,3.9544,3.9843,4.116,4.2006,4.2455,4.306,4.329,4.329,4.329,4.329,4.329,4.329,4.329,4.3394,4.4092,4.4751,4.5409,4.6097,4.677,4.7309,4.7309,4.7309,4.7309,4.7309,4.7309,4.7309,4.7309,4.7309,4.7309,4.7309,4.7309,4.7309,4.7309,4.7309,4.7309,4.7309,4.7309,4.7309,4.7309,4.7309,4.7309,4.7309,4.7309,4.7309,4.7309,4.7309,4.7309,4.7309,4.7309,4.7309,4.7309,4.7309,4.7309,4.7309,4.7309,4.7309,4.7309,4.7309,4.7309,4.7309,4.7309,4.7309,4.7309,4.707,4.695,4.695,4.6696,4.6576,2.4898,2.6116,2.7959,3.1732,3.2231,3.2697,3.5954,3.6443,3.6338,3.6795,3.741,3.7997,3.8379,3.8597,3.8886,3.9313,3.9388,3.9388,3.9388,3.9388,3.9388,3.9388,3.9388,3.9388,3.9388,3.9388,3.9388,3.9388,3.9388,3.9388,3.9388,3.9388,3.9388,3.9388,3.9388,3.9388,3.9388,3.9388,3.9388,3.9388,3.9388,3.9388,3.9388,3.9388,3.9388,3.9448,4.0816,4.1662,4.2141,4.297,4.329,4.329,4.329,4.329,4.329,4.329,4.3424,4.3723,4.4407,4.508,4.5753,4.6441,4.695,4.7309,4.7309,4.7309,4.7309,4.7309,4.7309,4.7309,4.7309,4.7309,4.7309,4.7309,4.7309,4.7309,4.7309,4.7309,4.7309,4.7309,4.7309,4.7309,4.7309,4.7309,4.7309,4.7309,4.7309,4.7309,4.7309,4.7309,4.7309,4.7309,4.7309,4.7309,4.7309,4.7309,4.7309,4.7309,4.7309,4.7309,4.7309,4.7309,4.7309,4.7309,4.7309,4.7309,4.7309,4.7309,4.7309,4.7309,4.7309,4.7309,0.0,0.0,0.0,0.0,2.9919,3.0517,3.711,3.6936,3.5798,3.7201,3.8101,3.8581,3.857,3.7919,3.7823,3.9155,3.9328,3.9328,3.9328,3.9328,3.9328,3.9328,3.9379,3.9394,3.9394,3.9373,3.9388,3.9388,3.9388,3.9388,3.9388,3.9388,3.9388,3.9388,3.9388,3.9388,3.9388,3.9388,3.9388,3.9388,3.9388,3.9388,3.9388,3.9388,3.9388,3.9448,4.0816,4.1422,4.1489,4.2751,4.329,4.329,4.329,4.329,4.329,4.329,4.3708,4.4407,4.5065,4.5753,4.6384,4.71,4.7309,4.7309,4.7309,4.7309,4.7309,4.7309,4.7309,4.7309,4.7309,4.7309,4.7309,4.7309,4.7309,4.7309,4.7309,4.7309,4.7309,4.7309,4.7309,4.7309,4.7309,4.7309,4.7309,4.7309,4.7309,4.7309,4.7309,4.7309,4.7309,4.7309,4.7309,4.7309,4.7309,4.7309,4.7309,4.7309,4.7309,4.7309,4.7309,4.7309,4.7309,4.7309,4.7309,4.7309,4.7309,4.7309,4.7309,4.7309,4.7309,4.7309,2.3291,0.0,0.0,0.0,0.0,0.0,3.0882,3.1198,3.1619,3.4652,3.4617,3.48,3.7405,3.7268,3.7,3.7838,3.7958,3.7958,3.7958,3.7958,3.7958,3.7958,3.8377,3.8676,3.8676,3.9125,3.9388,3.9388,3.9388,3.9388,3.9388,3.9388,3.9388,3.9388,3.9388,3.9388,3.9388,3.9388,3.9388,3.9388,3.9388,3.9388,3.9388,3.9388,3.9388,3.9448,4.0816,4.1422,4.1489,4.2751,4.329,4.329,4.329,4.329,4.329,4.329,4.3708,4.4407,4.5065,4.5753,4.6384,4.71,4.7309,4.7309,4.7309,4.7309,4.7309,4.7309,4.7309,4.7309,4.7309,4.7309,4.7309,4.7309,4.7309,4.7309,4.7309,4.7309,4.7309,4.7309,4.7309,4.7309,4.7309,4.7309,4.7309,4.7309,4.7309,4.7309,4.7309,4.7309,4.7309,4.7309,4.7309,4.7309,4.7309,4.7309,4.7309,4.7309,4.7309,4.7309,4.7309,4.7309,4.7309,4.7309,4.7309,4.7309,4.7309,4.7309,4.7309,4.7309,4.7309,4.7309,2.4594,0.0,0.0,0.0,0.0,0.0,3.0684,3.0729,3.0914,3.4607,3.492,3.5162,3.7306,3.7064,3.677,3.7443,3.7031,3.6806,3.7345,3.7404,3.7404,3.7404,3.7749,3.7973,3.7973,3.8347,3.8586,3.8586,3.8826,3.911,3.9373,3.9388,3.9388,3.9388,3.9388,3.9388,3.9388,3.9388,3.9388,3.9388,3.9388,3.9388,3.9388,3.9388,3.9388,3.9448,4.0816,4.1422,4.1489,4.2751,4.329,4.329,4.329,4.329,4.329,4.329,4.3888,4.4781,4.5155,4.5918,4.68,4.7174,4.7309,4.7309,4.7309,4.7309,4.7309,4.7309,4.7309,4.7309,4.7309,4.7309,4.7309,4.7309,4.7309,4.7309,4.7309,4.7309,4.7309,4.7309,4.7309,4.7309,4.7309,4.7309,4.7309,4.7309,4.7309,4.7309,4.7309,4.7309,4.7309,4.7309,4.7309,4.7309,4.7309,4.7309,4.7309,4.7309,4.7309,4.7309,4.7309,4.7309,4.7309,4.7309,4.7309,4.7309,4.7309,4.7309,4.7309,4.7309,4.7309,4.7538,2.6218,2.6387,0.0,0.0,2.7402,0.0,3.2946,3.2527,3.1789,3.5149,3.6296,3.6821,3.7216,3.6717,3.648,3.717,3.6291,3.5902,3.703,3.7195,3.7195,3.7195,3.7255,3.73,3.73,3.7375,3.7404,3.7404,3.7943,3.8556,3.917,3.9275,3.9305,3.9305,3.9343,3.9388,3.9388,3.9388,3.9388,3.9388,3.9388,3.9388,3.9388,3.9388,3.9454,3.9568,4.0846,4.1452,4.1579,4.2821,4.329,4.329,4.329,4.329,4.329,4.329,4.4167,4.5289,4.5289,4.6187,4.7309,4.7309,4.7309,4.7309,4.7309,4.7309,4.7309,4.7309,4.7309,4.7309,4.7309,4.7309,4.7309,4.7309,4.7309,4.7309,4.7309,4.7309,4.7309,4.7309,4.7309,4.7309,4.7309,4.7309,4.7309,4.7309,4.7309,4.7309,4.7309,4.7309,4.7309,4.7309,4.7309,4.7309,4.7309,4.7309,4.7309,4.7309,4.7309,4.7309,4.7309,4.7309,4.7309,4.7309,4.7424,4.7538,4.7651,4.7424,4.7309,4.7309,4.7409,4.7946,2.7621,2.796,2.8367,2.7554,2.8197,0.0,2.7029,2.7604,2.8852,3.0224,3.0112,3.0664,3.3709,3.4089,3.3999,3.416,3.4927,3.5599,3.5824,3.5878,3.5878,3.5878,3.6342,3.6671,3.6671,3.712,3.7404,3.7404,3.7524,3.7659,3.7793,3.8302,3.8601,3.8601,3.9125,3.9388,3.9388,3.9388,3.9388,3.9388,3.9388,3.9388,3.9388,3.9388,3.9709,4.0247,4.104,4.1722,4.2276,4.3015,4.329,4.329,4.329,4.329,4.329,4.329,4.4167,4.5289,4.5289,4.6187,4.7309,4.7309,4.7309,4.7309,4.7309,4.7309,4.7309,4.7309,4.7309,4.7309,4.7309,4.7309,4.7309,4.7309,4.7309,4.7309,4.7309,4.7309,4.7309,4.7309,4.7309,4.7309,4.7309,4.7309,4.7309,4.7309,4.7309,4.7309,4.7309,4.7309,4.7309,4.7309,4.7309,4.7309,4.7309,4.7309,4.7309,4.7309,4.7309,4.7309,4.7309,4.7309,4.7309,4.7309,4.8099,4.8907,4.9789,4.813,4.7309,4.7309,4.8141,4.8594,2.9362,2.9245,2.9533,2.9501,0.0,0.0,0.0,2.8078,2.8449,3.0717,3.0291,3.0301,3.2923,3.273,3.2442,3.3216,3.394,3.4536,3.4889,3.5258,3.5504,3.5504,3.5804,3.5998,3.5998,3.6267,3.6596,3.6926,3.6941,3.709,3.7389,3.7719,3.8048,3.8377,3.8721,3.9065,3.9388,3.9388,3.9388,3.9388,3.9388,3.9388,3.9388,3.9388,3.9783,4.0442,4.11,4.1796,4.2455,4.306,4.329,4.329,4.329,4.329,4.3334,4.3663,4.4451,4.5349,4.5678,4.6471,4.7309,4.7309,4.7309,4.7309,4.7309,4.7309,4.7309,4.7309,4.7309,4.7309,4.7309,4.7309,4.7309,4.7309,4.7309,4.7309,4.7309,4.7309,4.7309,4.7309,4.7309,4.7309,4.7309,4.7309,4.7309,4.7309,4.7309,4.7309,4.7309,4.7309,4.7309,4.7309,4.7309,4.7309,4.7309,4.7309,4.7309,4.7309,4.7309,4.7538,4.803,4.8072,4.8309,4.8815,4.9352,4.9852,5.0397,4.9352,4.8856,4.8856,4.9352,4.9876,3.1678,3.1275,3.1495,0.0,0.0,2.8873,0.0,0.0,0.0,3.1374,3.1055,3.0734,3.2087,3.1295,3.0914,3.2325,3.2729,3.3072,3.3686,3.4417,3.4921,3.5067,3.5329,3.5444,3.5325,3.507,3.531,3.6237,3.5938,3.6103,3.7,3.7165,3.7524,3.8182,3.8317,3.8721,3.9373,3.9388,3.9388,3.9388,3.9388,3.9388,3.9388,3.9388,3.9843,4.0621,4.1145,4.1871,4.262,4.312,4.329,4.329,4.329,4.329,4.3364,4.4062,4.4721,4.5394,4.6082,4.6756,4.7309,4.7309,4.7309,4.7309,4.7309,4.7309,4.7309,4.7309,4.7309,4.7309,4.7309,4.7309,4.7309,4.7309,4.7309,4.7309,4.7309,4.7309,4.7309,4.7309,4.7309,4.7309,4.7309,4.7309,4.7309,4.7309,4.7309,4.7309,4.7309,4.7309,4.7309,4.7309,4.7309,4.7309,4.7309,4.7309,4.7309,4.7309,4.7495,4.7946,4.8743,4.8988,4.9615,5.0665,5.0665,5.0795,5.0984,5.0984,5.0795,5.0397,5.0589,5.1117,0.0,0.0,0.0,0.0,3.2983,0.0,0.0,0.0,2.9193,2.6945,0.0,2.7452,2.828,0.0,0.0,0.0,3.0533,3.1382,3.145,3.2125,3.2837,3.3552,3.4726,3.5265,3.4683,3.3544,3.3619,3.5474,3.3963,3.3769,3.5624,3.6267,3.6881,3.7494,3.8078,3.8721,3.9373,3.9388,3.9388,3.9388,3.9388,3.9388,3.9388,3.9388,4.0098,4.1265,4.1392,4.2087,4.3185,4.326,4.329,4.329,4.329,4.329,4.3364,4.4062,4.4721,4.5394,4.6082,4.6756,4.7309,4.7309,4.7309,4.7309,4.7309,4.7309,4.7309,4.7309,4.7309,4.7309,4.7309,4.7309,4.7309,4.7309,4.7309,4.7309,4.7309,4.7309,4.7309,4.7309,4.7309,4.7309,4.7309,4.7309,4.7309,4.7309,4.7309,4.7309,4.7309,4.7309,4.7309,4.7309,4.7309,4.7309,4.7309,4.7309,4.7309,4.7309,4.8141,4.8677,4.8784,4.9734,5.0703,5.1724,5.1724,5.2205,5.3161,5.3161,5.2186,5.0397,5.1303,5.1796,0.0,0.0,0.0,0.0,0.0,0.0,2.9059,0.0,2.8027,0.0,0.0,0.0,0.0,0.0,0.0,0.0,2.9175,0.0,2.9872,3.0471,3.1385,3.2572,3.257,3.27,3.3275,3.2841,3.3185,3.4786,3.3425,3.3215,3.4816,3.5549,3.6207,3.6851,3.7494,3.8138,3.8811,3.923,3.9388,3.9388,3.9388,3.9388,3.9388,3.9388,4.0142,4.1422,4.1422,4.2117,4.329,4.329,4.329,4.329,4.329,4.329,4.3424,4.4496,4.5065,4.5454,4.6516,4.707,4.7309,4.7309,4.7309,4.7309,4.7309,4.7309,4.7309,4.7309,4.7309,4.7309,4.7309,4.7309,4.7309,4.7309,4.7309,4.7309,4.7309,4.7309,4.7309,4.7309,4.7309,4.7309,4.7309,4.7309,4.7309,4.7309,4.7309,4.7309,4.7309,4.7309,4.7309,4.7309,4.7309,4.7309,4.7309,4.7309,4.7309,4.7309,4.8856,4.9734,4.9734,5.1336,5.2416,5.2835,5.2835,5.3059,5.3501,5.3501,5.3041,5.2222,5.2644,5.2835,3.7144,0.0,0.0,0.0,0.0,0.0,0.0,0.0,0.0,0.0,0.0,0.0,0.0,0.0,0.0,0.0,0.0,2.9092,0.0,2.8923,0.0,0.0,0.0,0.0,3.2324,3.1656,3.1928,3.3799,3.2392,3.2332,3.4399,3.4951,3.5609,3.6462,3.709,3.7719,3.8377,3.9065,3.9388,3.9388,3.9388,3.9388,3.9388,3.9388,4.0142,4.1422,4.1422,4.2117,4.329,4.329,4.329,4.329,4.329,4.3409,4.3693,4.487,4.5409,4.5738,4.6905,4.7309,4.7309,4.7309,4.7309,4.7309,4.7309,4.7309,4.7309,4.7309,4.7309,4.7309,4.7309,4.7309,4.7309,4.7309,4.7309,4.7309,4.7309,4.7309,4.7309,4.7309,4.7309,4.7309,4.7309,4.7309,4.7309,4.7309,4.7309,4.7309,4.7309,4.7309,4.7309,4.7309,4.7309,4.7309,4.7309,4.7309,4.7424,4.7679,4.9392,5.0512,5.0817,5.2522,5.3501,5.3501,5.3501,5.3501,5.3501,5.3501,5.3501,5.3501,5.3501,5.3501,0.0,0.0,0.0,3.4539,0.0,0.0,0.0,0.0,3.0023,0.0,0.0,0.0,0.0,0.0,0.0,0.0,0.0,0.0,0.0,0.0,0.0,0.0,0.0,0.0,0.0,2.9602,2.9097,3.2332,3.0193,3.0417,3.4294,3.4533,3.5147,3.6447,3.709,3.7719,3.8377,3.9065,3.9388,3.9388,3.9388,3.9388,3.9388,3.9388,4.0142,4.1422,4.1422,4.2117,4.329,4.329,4.329,4.329,4.329,4.3678,4.4362,4.505,4.5723,4.6396,4.707,4.7309,4.7309,4.7309,4.7309,4.7309,4.7309,4.7309,4.7309,4.7309,4.7309,4.7309,4.7309,4.7309,4.7309,4.7309,4.7309,4.7309,4.7309,4.7309,4.7309,4.7309,4.7309,4.7309,4.7309,4.7309,4.7309,4.7309,4.7309,4.7309,4.7309,4.7309,4.7309,4.7309,4.7309,4.7309,4.7309,4.7309,4.7722,4.8677,4.9773,5.0817,5.1796,5.2904,5.3501,5.3501,5.3501,5.3501,5.3501,5.3501,5.3501,5.3501,5.3501,5.3501,0.0,0.0,4.1339,3.7381,0.0,0.0,0.0,0.0,0.0,0.0,0.0,0.0,0.0,0.0,0.0,0.0,0.0,0.0,0.0,0.0,0.0,0.0,0.0,0.0,0.0,2.8686,2.9357,3.0475,2.9744,3.0582,3.3664,3.4279,3.4923,3.5804,3.6866,3.7524,3.7749,3.8856,3.9388,3.9388,3.9388,3.9388,3.9439,3.9873,4.0546,4.1399,4.1886,4.2521,4.329,4.329,4.329,4.329,4.329,4.4003,4.499,4.5214,4.5723,4.6384,4.707,4.7309,4.7309,4.7309,4.7309,4.7309,4.7309,4.7309,4.7309,4.7309,4.7309,4.7309,4.7309,4.7309,4.7309,4.7309,4.7309,4.7309,4.7309,4.7309,4.7309,4.7309,4.7309,4.7309,4.7309,4.7309,4.7309,4.7309,4.7309,4.7309,4.7309,4.7309,4.7309,4.7309,4.7309,4.7309,4.7309,4.7309,4.7467,4.7807,4.8759,4.9797,5.0855,5.1885,5.28,5.3501,5.3501,5.3501,5.3501,5.3501,5.3501,5.3501,5.3501,5.3501,4.2286,4.2642,0.0,3.9089,3.755,0.0,3.2459,0.0,3.3457,0.0,0.0,0.0,0.0,0.0,0.0,0.0,0.0,0.0,0.0,2.4391,0.0,0.0,0.0,0.0,0.0,2.7596,2.8222,2.9484,2.8948,2.9864,0.0,3.3769,3.4547,3.5474,3.6746,3.7404,3.7404,3.8751,3.9388,3.9388,3.9388,3.9388,3.9403,4.0098,4.0756,4.1452,4.2111,4.2731,4.329,4.329,4.329,4.3319,4.3544,4.4347,4.5289,4.5289,4.5888,4.6741,4.716,4.7309,4.7309,4.7309,4.7309,4.7309,4.7309,4.7309,4.7309,4.7309,4.7309,4.7309,4.7309,4.7309,4.7309,4.7309,4.7309,4.7309,4.7309,4.7309,4.7309,4.7309,4.7309,4.7309,4.7309,4.7309,4.7309,4.7309,4.7309,4.7309,4.7309,4.7309,4.7309,4.7309,4.7309,4.7309,4.7309,4.7609,4.7834,4.7834,4.915,5.0227,5.0892,5.1938,5.2784,5.3501,5.3501,5.3501,5.3501,5.3501,5.3501,5.3501,5.3501,5.3501]}]]